[[{"header":{"parameterUnit":"m.s-1","parameterCategory":1,"la1":30.6,"la2":28.766,"lo1":-90.7593,"lo2":-88.6598,"dx":0.0162,"dy":0.0183,"nx":116,"ny":114,"refTime":"2022-11-12T06:00:00:Z","depth":0,"parameterNumber":2,"parameterNumberName":"U-component_of_WINDS"},"data":[0.0,0.0,0.0,0.0,0.0,0.0,0.0,0.0,0.0,0.0,0.0,0.0,0.0,0.0,0.0,0.0,0.0,0.0,0.0,0.0,0.0,0.0,0.0,0.0,0.0,0.0,0.0,0.0,0.0,0.0,0.0,0.0,0.0,0.0,0.0,0.0,0.0,0.0,0.0,0.0,0.0,0.0,0.0,0.0,0.0,0.0,0.0,0.0,0.0,0.0,0.0,0.0,0.0,0.0,0.0,0.0,0.0,0.0,0.0,0.0,0.0,0.0,0.0,0.0,0.0,0.0,0.0,0.0,0.0,0.0,0.0,0.0,0.0,0.0,0.0,0.0,0.0,0.0,0.0,0.0,0.0,0.0,0.0,0.0,0.0,0.0,0.0,0.0,0.0,0.0,0.0,0.0,0.0,0.0,0.0,0.0,0.0,0.0,0.0,0.0,0.0,0.0,0.0,0.0,0.0,0.0,0.0,0.0,0.0,0.0,0.0,0.0,0.0,0.0,0.0,0.0,0.0,0.0,0.0,0.0,0.0,0.0,0.0,0.0,0.0,0.0,0.0,0.0,0.0,0.0,0.0,0.0,0.0,0.0,0.0,0.0,0.0,0.0,0.0,0.0,0.0,0.0,0.0,0.0,0.0,0.0,0.0,0.0,0.0,0.0,0.0,0.0,0.0,0.0,0.0,0.0,0.0,0.0,0.0,0.0,0.0,0.0,0.0,0.0,0.0,0.0,0.0,0.0,0.0,0.0,0.0,0.0,0.0,0.0,0.0,0.0,0.0,0.0,0.0,0.0,0.0,0.0,0.0,0.0,0.0,0.0,0.0,0.0,0.0,0.0,0.0,0.0,0.0,0.0,0.0,0.0,0.0,0.0,0.0,0.0,0.0,0.0,0.0,0.0,0.0,0.0,0.0,0.0,0.0,0.0,0.0,0.0,0.0,0.0,0.0,0.0,0.0,0.0,0.0,0.0,0.0,0.0,0.0,0.0,0.0,0.0,0.0,0.0,0.0,0.0,0.0,0.0,0.0,0.0,0.0,0.0,0.0,0.0,0.0,0.0,0.0,0.0,0.0,0.0,0.0,0.0,0.0,0.0,0.0,0.0,0.0,0.0,0.0,0.0,0.0,0.0,0.0,0.0,0.0,0.0,0.0,0.0,0.0,0.0,0.0,0.0,0.0,0.0,0.0,0.0,0.0,0.0,0.0,0.0,0.0,0.0,0.0,0.0,0.0,0.0,0.0,0.0,0.0,0.0,0.0,0.0,0.0,0.0,0.0,0.0,0.0,0.0,0.0,0.0,0.0,0.0,0.0,0.0,0.0,0.0,0.0,0.0,0.0,0.0,0.0,0.0,0.0,0.0,0.0,0.0,0.0,0.0,0.0,0.0,0.0,0.0,0.0,0.0,0.0,0.0,0.0,0.0,0.0,0.0,0.0,0.0,0.0,0.0,0.0,0.0,0.0,0.0,0.0,0.0,0.0,0.0,0.0,0.0,0.0,0.0,0.0,0.0,0.0,0.0,0.0,0.0,0.0,0.0,0.0,0.0,0.0,0.0,0.0,0.0,0.0,0.0,0.0,0.0,0.0,0.0,0.0,0.0,0.0,0.0,0.0,0.0,0.0,0.0,0.0,0.0,0.0,0.0,0.0,0.0,0.0,0.0,0.0,0.0,0.0,0.0,0.0,0.0,0.0,0.0,0.0,0.0,0.0,0.0,0.0,0.0,0.0,0.0,0.0,0.0,0.0,0.0,0.0,0.0,0.0,0.0,0.0,0.0,0.0,0.0,0.0,0.0,0.0,0.0,0.0,0.0,0.0,0.0,0.0,0.0,0.0,0.0,0.0,0.0,0.0,0.0,0.0,0.0,0.0,0.0,0.0,0.0,0.0,0.0,0.0,0.0,0.0,0.0,0.0,0.0,0.0,0.0,0.0,0.0,0.0,0.0,0.0,0.0,0.0,0.0,0.0,0.0,0.0,0.0,0.0,0.0,0.0,0.0,0.0,0.0,0.0,0.0,0.0,0.0,0.0,0.0,0.0,0.0,0.0,0.0,0.0,0.0,0.0,0.0,0.0,0.0,0.0,0.0,0.0,0.0,0.0,0.0,0.0,0.0,0.0,0.0,0.0,0.0,0.0,0.0,0.0,0.0,0.0,0.0,0.0,0.0,0.0,0.0,0.0,0.0,0.0,0.0,0.0,0.0,0.0,0.0,0.0,0.0,0.0,0.0,0.0,0.0,0.0,0.0,0.0,0.0,0.0,0.0,0.0,0.0,0.0,0.0,0.0,0.0,0.0,0.0,0.0,0.0,0.0,0.0,0.0,0.0,0.0,0.0,0.0,0.0,0.0,0.0,0.0,0.0,0.0,0.0,0.0,0.0,0.0,0.0,0.0,0.0,0.0,0.0,0.0,0.0,0.0,0.0,0.0,0.0,0.0,0.0,0.0,0.0,0.0,0.0,0.0,0.0,0.0,0.0,0.0,0.0,0.0,0.0,0.0,0.0,0.0,0.0,0.0,0.0,0.0,0.0,0.0,0.0,0.0,0.0,0.0,0.0,0.0,0.0,0.0,0.0,0.0,0.0,0.0,0.0,0.0,0.0,0.0,0.0,0.0,0.0,0.0,0.0,0.0,0.0,0.0,0.0,0.0,0.0,0.0,0.0,0.0,0.0,0.0,0.0,0.0,0.0,0.0,0.0,0.0,0.0,0.0,0.0,0.0,0.0,0.0,0.0,0.0,0.0,0.0,0.0,0.0,0.0,0.0,0.0,0.0,0.0,0.0,0.0,0.0,0.0,0.0,0.0,0.0,0.0,0.0,0.0,0.0,0.0,0.0,0.0,0.0,0.0,0.0,0.0,0.0,0.0,0.0,0.0,0.0,0.0,0.0,0.0,0.0,0.0,0.0,0.0,0.0,0.0,0.0,0.0,0.0,0.0,0.0,0.0,0.0,0.0,0.0,0.0,0.0,0.0,0.0,0.0,0.0,0.0,0.0,0.0,0.0,0.0,0.0,0.0,0.0,0.0,0.0,0.0,0.0,0.0,0.0,0.0,0.0,0.0,0.0,0.0,0.0,0.0,0.0,0.0,0.0,0.0,0.0,0.0,0.0,0.0,0.0,0.0,0.0,0.0,0.0,0.0,0.0,0.0,0.0,0.0,0.0,0.0,0.0,0.0,0.0,0.0,0.0,0.0,0.0,0.0,0.0,0.0,0.0,0.0,0.0,0.0,0.0,0.0,0.0,0.0,0.0,0.0,0.0,0.0,0.0,0.0,0.0,0.0,0.0,0.0,0.0,0.0,0.0,0.0,0.0,0.0,0.0,0.0,0.0,0.0,0.0,0.0,0.0,0.0,0.0,0.0,0.0,0.0,0.0,0.0,0.0,0.0,0.0,0.0,0.0,0.0,0.0,0.0,0.0,0.0,0.0,0.0,0.0,0.0,0.0,0.0,0.0,0.0,0.0,0.0,0.0,0.0,0.0,0.0,0.0,0.0,0.0,0.0,0.0,0.0,0.0,0.0,0.0,0.0,0.0,0.0,0.0,0.0,0.0,0.0,0.0,0.0,0.0,0.0,0.0,0.0,0.0,0.0,0.0,0.0,0.0,0.0,0.0,0.0,0.0,0.0,0.0,0.0,0.0,0.0,0.0,0.0,0.0,0.0,0.0,0.0,0.0,0.0,0.0,0.0,0.0,0.0,0.0,0.0,0.0,0.0,0.0,0.0,0.0,0.0,0.0,0.0,0.0,0.0,0.0,0.0,0.0,0.0,0.0,0.0,0.0,0.0,0.0,0.0,0.0,0.0,0.0,0.0,0.0,0.0,0.0,0.0,0.0,0.0,0.0,0.0,0.0,0.0,0.0,0.0,0.0,0.0,0.0,0.0,0.0,0.0,0.0,0.0,0.0,0.0,0.0,0.0,0.0,0.0,0.0,0.0,0.0,0.0,0.0,0.0,0.0,0.0,0.0,0.0,0.0,0.0,0.0,0.0,0.0,0.0,0.0,0.0,0.0,0.0,0.0,0.0,0.0,0.0,0.0,0.0,0.0,0.0,0.0,0.0,0.0,0.0,0.0,0.0,0.0,0.0,0.0,0.0,0.0,0.0,0.0,0.0,0.0,0.0,0.0,0.0,0.0,0.0,0.0,0.0,0.0,0.0,0.0,0.0,0.0,0.0,0.0,0.0,0.0,0.0,0.0,0.0,0.0,0.0,0.0,0.0,0.0,0.0,0.0,0.0,0.0,0.0,0.0,0.0,0.0,0.0,0.0,0.0,0.0,0.0,0.0,0.0,0.0,0.0,0.0,0.0,0.0,0.0,0.0,0.0,0.0,0.0,0.0,0.0,0.0,0.0,0.0,0.0,0.0,0.0,0.0,0.0,0.0,0.0,0.0,0.0,0.0,0.0,0.0,0.0,0.0,0.0,0.0,0.0,0.0,0.0,0.0,0.0,0.0,0.0,0.0,0.0,0.0,0.0,0.0,0.0,0.0,0.0,0.0,0.0,0.0,0.0,0.0,0.0,0.0,0.0,0.0,0.0,0.0,0.0,0.0,0.0,0.0,0.0,0.0,0.0,0.0,0.0,0.0,0.0,0.0,0.0,0.0,0.0,0.0,0.0,0.0,0.0,0.0,0.0,0.0,0.0,0.0,0.0,0.0,0.0,0.0,0.0,0.0,0.0,0.0,0.0,0.0,0.0,0.0,0.0,0.0,0.0,0.0,0.0,0.0,0.0,0.0,0.0,0.0,0.0,0.0,0.0,0.0,0.0,0.0,0.0,0.0,0.0,0.0,0.0,0.0,0.0,0.0,0.0,0.0,0.0,0.0,0.0,0.0,0.0,0.0,0.0,0.0,0.0,0.0,0.0,0.0,0.0,0.0,0.0,0.0,0.0,0.0,0.0,0.0,0.0,0.0,0.0,0.0,0.0,0.0,0.0,0.0,0.0,0.0,0.0,0.0,0.0,0.0,0.0,0.0,0.0,0.0,0.0,0.0,0.0,0.0,0.0,0.0,0.0,0.0,0.0,0.0,0.0,0.0,0.0,0.0,0.0,0.0,0.0,0.0,0.0,0.0,0.0,0.0,0.0,0.0,0.0,0.0,0.0,0.0,0.0,0.0,0.0,0.0,0.0,0.0,0.0,0.0,0.0,0.0,0.0,0.0,0.0,0.0,0.0,0.0,0.0,0.0,0.0,0.0,0.0,0.0,0.0,0.0,0.0,0.0,0.0,0.0,0.0,0.0,0.0,0.0,0.0,0.0,0.0,0.0,0.0,0.0,0.0,0.0,0.0,0.0,0.0,0.0,0.0,0.0,0.0,0.0,0.0,0.0,0.0,0.0,0.0,0.0,0.0,0.0,0.0,0.0,0.0,0.0,0.0,0.0,0.0,0.0,0.0,0.0,0.0,0.0,0.0,0.0,0.0,0.0,0.0,0.0,0.0,0.0,0.0,0.0,0.0,0.0,0.0,0.0,0.0,0.0,0.0,0.0,0.0,0.0,0.0,0.0,0.0,0.0,0.0,0.0,0.0,0.0,0.0,0.0,0.0,0.0,0.0,0.0,0.0,0.0,0.0,0.0,0.0,0.0,0.0,0.0,0.0,0.0,0.0,0.0,0.0,0.0,0.0,0.0,0.0,0.0,0.0,0.0,0.0,0.0,0.0,0.0,0.0,0.0,0.0,0.0,0.0,0.0,0.0,0.0,0.0,0.0,0.0,0.0,0.0,0.0,0.0,0.0,0.0,0.0,0.0,0.0,0.0,0.0,0.0,0.0,0.0,0.0,0.0,0.0,0.0,0.0,0.0,0.0,0.0,0.0,0.0,0.0,0.0,0.0,0.0,0.0,0.0,0.0,0.0,0.0,0.0,0.0,0.0,0.0,0.0,0.0,0.0,0.0,0.0,0.0,0.0,0.0,0.0,0.0,0.0,0.0,0.0,0.0,0.0,0.0,0.0,0.0,0.0,0.0,0.0,0.0,0.0,0.0,0.0,0.0,0.0,0.0,0.0,0.0,0.0,0.0,0.0,0.0,0.0,0.0,0.0,0.0,0.0,0.0,0.0,0.0,0.0,0.0,0.0,0.0,0.0,0.0,0.0,0.0,0.0,5.0705,0.0,0.0,0.0,0.0,0.0,0.0,0.0,0.0,0.0,0.0,0.0,0.0,0.0,0.0,0.0,0.0,0.0,0.0,0.0,0.0,0.0,0.0,0.0,0.0,3.5118,3.5822,3.627,3.6641,0.0,0.0,0.0,0.0,0.0,0.0,0.0,3.5632,3.6118,3.6735,3.7507,3.8353,3.9135,3.9856,3.9423,3.9239,3.9239,0.0,0.0,0.0,0.0,0.0,0.0,0.0,0.0,0.0,0.0,0.0,0.0,0.0,0.0,0.0,0.0,0.0,0.0,0.0,0.0,0.0,0.0,0.0,0.0,0.0,0.0,0.0,0.0,0.0,0.0,0.0,0.0,0.0,0.0,0.0,0.0,0.0,0.0,0.0,0.0,0.0,0.0,0.0,0.0,0.0,0.0,0.0,0.0,0.0,0.0,0.0,0.0,0.0,0.0,0.0,0.0,0.0,0.0,0.0,0.0,0.0,0.0,0.0,0.0,0.0,0.0,0.0,0.0,0.0,0.0,0.0,5.2626,0.0,0.0,0.0,0.0,0.0,0.0,0.0,0.0,0.0,0.0,0.0,0.0,0.0,0.0,0.0,0.0,0.0,0.0,0.0,0.0,0.0,3.2709,3.4968,3.6116,3.6817,3.7114,3.7738,3.7779,3.6971,3.6931,0.0,0.0,0.0,0.0,3.6707,3.7033,3.7838,3.92,3.927,4.0076,4.1507,4.1356,4.0961,4.0271,3.9492,0.0,0.0,0.0,0.0,0.0,0.0,0.0,0.0,0.0,0.0,0.0,0.0,0.0,0.0,0.0,0.0,0.0,0.0,0.0,0.0,0.0,0.0,0.0,0.0,0.0,0.0,0.0,0.0,0.0,0.0,0.0,0.0,0.0,0.0,0.0,0.0,0.0,0.0,0.0,0.0,0.0,0.0,0.0,0.0,0.0,0.0,0.0,0.0,0.0,0.0,0.0,0.0,0.0,0.0,0.0,0.0,0.0,0.0,0.0,0.0,0.0,0.0,0.0,5.4008,5.4469,5.5164,5.5164,5.5937,5.7093,5.5011,5.4508,5.5203,0.0,0.0,0.0,0.0,0.0,0.0,0.0,0.0,0.0,0.0,0.0,0.0,0.0,0.0,0.0,0.0,0.0,0.0,0.0,0.0,3.4174,3.5936,3.7474,3.8942,4.0365,4.0549,4.0296,3.9467,3.9431,0.0,0.0,0.0,3.9096,3.8391,3.9864,4.0679,4.0789,4.1479,4.2286,4.3176,4.247,4.2103,4.1956,4.114,4.0732,4.0516,0.0,0.0,0.0,0.0,0.0,0.0,0.0,0.0,0.0,0.0,0.0,0.0,0.0,0.0,0.0,0.0,0.0,0.0,0.0,0.0,0.0,0.0,0.0,0.0,0.0,0.0,0.0,0.0,0.0,0.0,0.0,0.0,0.0,0.0,0.0,0.0,0.0,0.0,0.0,0.0,0.0,4.6735,4.6735,0.0,0.0,0.0,0.0,0.0,0.0,0.0,0.0,0.0,0.0,0.0,0.0,0.0,0.0,5.4318,5.5013,5.5747,5.6519,5.728,5.7701,5.7816,5.7816,5.7931,5.8124,5.7778,0.0,5.7816,5.7893,0.0,0.0,0.0,0.0,0.0,0.0,0.0,0.0,0.0,0.0,0.0,0.0,0.0,0.0,0.0,0.0,0.0,0.0,0.0,0.0,0.0,3.8142,3.9643,4.0373,4.1254,4.1434,4.063,4.0557,0.0,0.0,4.019,4.0406,4.0076,4.0813,4.1364,4.1768,4.2622,4.3177,4.3506,4.3139,4.2951,4.2951,4.2621,4.1952,4.1063,4.0365,0.0,0.0,0.0,0.0,0.0,0.0,0.0,0.0,0.0,0.0,0.0,0.0,0.0,0.0,0.0,0.0,0.0,0.0,0.0,0.0,0.0,0.0,0.0,0.0,0.0,0.0,0.0,0.0,0.0,0.0,0.0,0.0,0.0,0.0,0.0,0.0,0.0,0.0,0.0,4.6661,4.7081,4.7505,4.7582,4.7697,0.0,0.0,0.0,0.0,0.0,0.0,0.0,0.0,0.0,5.4549,5.4626,5.5241,5.6626,5.6973,5.7091,5.6981,5.7401,5.7819,5.8316,5.8316,5.8816,5.9707,5.9707,5.9707,5.9665,5.9165,5.897,5.897,0.0,0.0,0.0,0.0,5.8701,5.8393,0.0,0.0,0.0,0.0,0.0,0.0,0.0,0.0,0.0,0.0,0.0,0.0,3.7041,3.9207,4.0602,4.0789,4.1923,4.2286,4.147,4.1397,4.1323,4.1099,4.1283,4.1397,4.1397,4.1617,4.2111,4.294,4.3562,4.3958,4.4093,4.4093,4.4093,4.4093,4.3906,4.302,4.169,4.1507,4.0736,3.9603,0.0,0.0,0.0,0.0,0.0,0.0,0.0,0.0,0.0,0.0,0.0,0.0,0.0,0.0,0.0,0.0,0.0,0.0,0.0,0.0,0.0,0.0,0.0,0.0,0.0,0.0,0.0,0.0,0.0,0.0,0.0,0.0,0.0,0.0,0.0,0.0,0.0,4.7274,4.7776,4.8353,4.8625,4.8853,0.0,0.0,0.0,0.0,0.0,0.0,5.3815,5.3854,5.4626,5.6321,5.6167,5.6744,5.8278,5.8316,5.8088,5.7632,5.7866,5.8322,5.8934,5.8934,5.9627,6.0784,6.0784,6.0784,6.0745,6.0089,5.9819,5.9819,5.9819,5.9473,5.9011,5.9627,5.9435,5.9127,0.0,0.0,0.0,0.0,0.0,0.0,0.0,0.0,0.0,0.0,0.0,3.7933,3.9541,4.1185,4.2506,4.3249,4.3396,4.3098,4.2282,4.2249,4.1911,4.1136,4.1841,4.2249,4.2249,4.2988,4.3802,4.4684,4.4638,4.5035,4.5778,4.5778,4.5778,4.5741,4.4998,4.4158,4.3322,4.2543,4.2176,4.1992,4.0455,0.0,0.0,0.0,0.0,0.0,0.0,0.0,0.0,0.0,0.0,0.0,0.0,0.0,0.0,0.0,0.0,0.0,0.0,0.0,0.0,0.0,0.0,0.0,0.0,0.0,0.0,0.0,0.0,0.0,0.0,0.0,0.0,0.0,0.0,0.0,0.0,0.0,0.0,4.932,5.0053,0.0,0.0,0.0,0.0,5.3008,5.3162,5.3892,5.5475,5.5552,5.6357,5.8124,5.7363,5.7363,5.8278,5.8316,5.8662,5.9393,6.0207,6.063,6.0668,6.0668,6.0707,6.0784,6.0784,6.0784,6.0784,6.0745,6.0745,6.0745,6.0745,6.0707,6.0668,6.0707,6.0707,6.0707,0.0,0.0,0.0,3.0497,3.0616,3.0983,3.0983,3.1641,3.2736,3.4347,3.627,3.7933,3.9019,4.1038,4.2433,4.2694,4.3212,4.3396,4.3102,4.258,4.2172,4.1878,4.2135,4.2543,4.3065,4.3864,4.4428,4.4749,4.5232,4.5626,4.5883,4.5883,4.5883,4.5883,4.559,4.5035,4.4232,4.3428,4.2767,4.2249,4.1662,4.0961,0.0,0.0,0.0,0.0,0.0,0.0,0.0,0.0,0.0,0.0,0.0,0.0,0.0,0.0,0.0,0.0,0.0,0.0,0.0,0.0,0.0,0.0,0.0,0.0,0.0,0.0,0.0,0.0,0.0,0.0,0.0,0.0,0.0,0.0,0.0,0.0,0.0,5.0966,5.1777,0.0,0.0,5.3238,5.3933,5.4741,5.5321,5.6167,5.7319,5.6821,5.7093,5.8278,5.8011,5.8242,5.9047,5.9627,5.9781,5.9509,5.9819,5.9973,5.9973,5.9973,6.0281,6.0784,6.0784,6.0784,6.0784,6.0784,6.0784,6.0784,6.0784,6.0784,6.0784,6.0784,6.1133,6.1633,0.0,3.2369,0.0,3.0424,3.043,3.0763,3.132,3.1861,3.3069,3.5525,3.7037,3.8436,3.9753,4.1589,4.2694,4.2694,4.3171,4.3506,4.3506,4.2767,4.2286,4.2286,4.2286,4.28,4.3869,4.4447,4.4957,4.5503,4.6021,4.6429,4.6728,4.6728,4.6728,4.6691,4.6429,4.6021,4.5429,4.4378,4.3428,4.2694,4.2694,4.2213,4.1507,0.0,0.0,0.0,0.0,0.0,0.0,0.0,0.0,0.0,0.0,0.0,0.0,0.0,0.0,0.0,0.0,0.0,0.0,0.0,0.0,0.0,0.0,0.0,0.0,0.0,0.0,0.0,0.0,0.0,0.0,0.0,0.0,0.0,0.0,0.0,5.1395,5.2236,5.3123,5.3623,5.3623,5.4667,5.5436,5.5667,5.6519,5.7247,5.7819,5.7591,5.7822,5.8662,5.8701,5.897,5.947,6.0089,6.0089,5.9509,5.9819,5.9935,5.9935,5.9935,6.0242,6.0784,6.0784,6.0784,6.0784,6.0784,6.0784,6.0784,6.0784,6.0784,6.0784,6.0784,6.1172,6.1672,0.0,3.1935,3.1133,3.0353,2.9577,2.9577,3.117,3.1427,3.2936,3.6978,3.8215,3.9639,4.2025,4.3024,4.3506,4.3506,4.3506,4.3506,4.3469,4.2727,4.2245,4.2245,4.2323,4.3089,4.4663,4.4737,4.5503,4.7076,4.7076,4.7448,4.8228,4.8228,4.8228,4.8223,4.7448,4.7113,4.7003,4.5429,4.4305,4.3547,4.351,4.3029,4.2323,0.0,0.0,0.0,0.0,0.0,0.0,0.0,0.0,0.0,0.0,0.0,0.0,0.0,0.0,0.0,0.0,0.0,0.0,0.0,0.0,0.0,0.0,0.0,0.0,0.0,0.0,0.0,0.0,0.0,0.0,0.0,0.0,0.0,5.0709,5.1431,5.2272,5.3085,5.401,5.4552,5.4552,5.6016,5.6634,5.5783,5.6516,5.7019,5.7096,5.7857,5.8662,5.947,5.9509,5.9509,5.9509,5.9511,5.9547,5.9547,6.0399,6.0784,6.0784,6.0784,6.0784,6.0784,6.0784,6.0784,6.0784,6.0784,6.0784,6.0784,6.0784,6.0784,6.0784,6.0784,6.0822,6.0822,3.1825,3.1537,3.1133,3.0353,3.0023,3.0207,3.1244,3.2382,3.4181,3.7125,3.8696,4.0271,4.2098,4.3024,4.3506,4.3506,4.3506,4.3249,4.2657,4.1878,4.1434,4.1434,4.2547,4.3649,4.4663,4.5255,4.5773,4.6246,4.6246,4.6356,4.6544,4.6544,4.687,4.7411,4.7191,4.7113,4.7076,4.664,4.5649,4.4301,4.3722,4.3359,4.3176,0.0,0.0,0.0,0.0,0.0,0.0,0.0,0.0,0.0,0.0,0.0,0.0,0.0,0.0,0.0,0.0,0.0,0.0,0.0,0.0,0.0,0.0,0.0,0.0,0.0,0.0,0.0,0.0,0.0,0.0,0.0,0.0,4.9976,5.0594,5.2474,5.3623,5.3238,5.5052,5.6055,5.5436,5.6362,5.6904,5.6673,5.6865,5.7517,5.8745,5.8473,5.8662,5.947,5.9509,5.9509,5.9509,6.0127,6.0435,6.0438,6.0707,6.0784,6.0784,6.0784,6.0784,6.0784,6.0784,6.0784,6.0784,6.0784,6.0784,6.0784,6.0784,6.0784,6.0784,6.0784,6.121,6.1826,3.1501,3.1394,3.1133,3.0353,3.0207,3.0467,3.1283,3.2786,3.4801,3.7628,3.91,4.0642,4.2584,4.3212,4.3359,4.3029,4.2992,4.2657,4.1841,4.1356,4.1397,4.2098,4.2992,4.4016,4.5181,4.5663,4.5883,4.5883,4.5883,4.5883,4.5883,4.5883,4.614,4.6608,4.6608,4.6787,4.7076,4.675,4.6237,4.5613,4.4447,4.3795,4.3506,4.3506,4.3212,4.2808,4.2838,4.2311,4.1593,4.1687,0.0,0.0,0.0,0.0,0.0,0.0,0.0,0.0,0.0,0.0,0.0,0.0,0.0,0.0,0.0,0.0,0.0,0.0,0.0,0.0,0.0,0.0,0.0,0.0,5.0935,5.1474,5.1241,5.3128,5.4434,5.428,5.5862,5.6673,5.5783,5.6478,5.6981,5.6981,5.7324,5.7976,5.8932,5.8855,5.9009,5.947,5.9858,6.005,6.005,6.0553,6.0784,6.0784,6.0784,6.0976,6.1325,6.1325,6.1515,0.0,6.1858,6.1858,6.1858,6.1858,6.1669,0.0,0.0,0.0,0.0,0.0,6.1861,6.2669,3.1534,3.1537,3.1317,3.0613,3.039,3.065,3.154,3.2966,3.5125,3.8391,3.9533,4.0936,4.3249,4.3506,4.3212,4.2506,4.2359,4.1952,4.1136,4.1283,4.2025,4.3433,4.3653,4.4424,4.5883,4.5883,4.5883,4.5883,4.5883,4.5883,4.5883,4.5883,4.5883,4.5883,4.5883,4.6319,4.6929,4.6319,4.6388,4.686,4.5503,4.4411,4.3616,4.3547,4.3506,4.3515,4.3579,4.308,4.2446,4.25,0.0,0.0,0.0,0.0,0.0,0.0,0.0,0.0,0.0,0.0,0.0,0.0,0.0,0.0,0.0,0.0,0.0,0.0,0.0,0.0,0.0,0.0,0.0,0.0,5.2279,5.378,5.2505,5.3662,5.4859,5.5475,5.6401,5.6673,5.5783,5.6593,5.7096,5.7019,5.7819,5.8355,5.8432,0.0,0.0,0.0,0.0,6.0784,6.0784,6.0784,6.0861,6.0941,6.0941,6.1402,6.2252,6.2252,6.263,6.3314,6.3314,6.3314,6.3314,6.3314,6.2897,6.2133,6.1284,6.1015,6.1207,6.2056,6.282,6.3468,3.2324,3.2369,3.2329,3.2149,3.1604,3.1647,3.3113,3.4167,3.5962,3.9243,4.0373,4.1548,4.3327,4.3506,4.3433,4.3286,4.2657,4.1952,4.1136,4.2319,4.3176,4.3506,4.475,4.5594,4.5883,4.5883,4.5883,4.5883,4.5883,4.5883,4.5883,4.5883,4.5883,4.5883,4.5883,4.5993,4.6172,4.664,4.6571,4.6172,4.6498,4.576,4.4411,4.3763,4.3506,4.351,4.3523,4.3409,4.3299,4.3334,4.3249,4.3139,4.3139,4.3205,0.0,0.0,0.0,0.0,0.0,0.0,0.0,0.0,0.0,0.0,0.0,0.0,0.0,0.0,0.0,0.0,0.0,0.0,0.0,5.2277,5.2428,5.3005,5.4703,5.5244,5.5283,5.4782,5.6055,5.6673,5.5783,5.7126,5.7745,5.7058,5.7819,5.8585,5.9239,5.9432,0.0,6.0515,6.0707,6.0784,6.0784,6.0784,6.1133,6.1867,0.0,0.0,6.3086,6.3086,6.3163,6.3314,6.3314,6.3314,6.3314,6.3314,6.3198,6.2971,6.2172,6.2246,6.2932,6.3782,6.4205,6.4432,3.3435,3.3036,3.2476,3.2078,3.2342,3.2856,3.3663,3.5202,3.6964,3.9019,4.001,4.0961,4.2176,4.1923,4.156,4.1116,4.0744,4.085,4.1654,4.2841,4.3873,4.4676,4.5484,4.5883,4.5883,4.5883,4.5883,4.5883,4.5883,4.5883,4.5883,4.5883,4.57,4.5292,4.5292,4.5292,4.5328,4.5723,4.6127,4.6498,4.6498,4.6278,4.576,4.4557,4.3869,4.3506,4.3506,4.3506,4.3515,4.3549,4.3587,4.3613,4.3613,4.3651,4.368,0.0,0.0,0.0,0.0,0.0,0.0,0.0,0.0,0.0,0.0,0.0,0.0,0.0,0.0,4.8641,0.0,0.0,5.1741,5.2431,5.3138,5.3952,5.4959,5.5436,5.5552,5.5167,5.6629,5.7324,5.6439,5.7511,5.8278,5.8245,5.8665,5.9278,6.013,6.0165,6.0361,6.0784,6.0784,6.1018,6.1441,6.1441,6.1864,6.2704,6.2704,6.3128,6.3932,6.3932,6.4202,6.4586,6.4586,6.4586,6.4589,6.4125,6.4202,6.4512,6.3666,6.3589,6.4009,6.4432,6.4897,6.532,3.4341,3.3846,3.3103,3.2455,3.3406,3.4324,3.4471,3.6204,3.7856,3.8799,3.95,4.0194,4.1026,4.0667,4.0047,3.9236,3.9309,4.0227,4.2176,4.3355,4.4534,4.5847,4.5883,4.5883,4.5883,4.5883,4.5993,4.6136,4.6287,4.6365,4.6365,4.6365,4.5842,4.492,4.492,4.4778,4.448,4.4626,4.5466,4.6604,4.6282,4.6429,4.675,4.5613,4.4557,4.3722,4.3722,4.3612,4.3547,4.3707,4.3804,4.3904,4.4052,4.4125,4.4084,4.4104,4.4201,0.0,0.0,0.0,0.0,0.0,0.0,0.0,0.0,0.0,4.7003,4.7646,4.8043,4.8694,5.011,5.1474,5.2379,5.2236,5.3822,5.4949,5.4688,5.533,5.5885,5.5934,5.7203,5.786,5.7286,5.8011,5.8816,5.9435,5.9665,6.005,6.0745,6.0784,6.0784,6.0784,6.0976,6.1402,6.2098,6.2249,6.2746,6.3545,6.3545,6.4009,6.4859,6.4859,6.5243,6.59,6.59,6.59,6.5862,6.5128,6.5282,6.5824,6.5128,6.4859,6.4859,6.5013,6.5513,6.617,3.4341,3.521,3.5866,3.5756,3.5903,3.6273,3.6975,3.7309,3.8039,3.9578,3.9835,4.0194,4.1026,4.1658,4.1695,4.0916,4.147,4.2025,4.2286,4.4378,4.5704,4.5883,4.5883,4.5883,4.5883,4.5883,4.6246,4.6971,4.7672,4.8044,4.8044,4.8044,4.7237,4.5773,4.5773,4.497,4.3685,4.4411,4.481,4.5104,4.642,4.6608,4.6104,4.664,4.5906,4.4557,4.4557,4.4121,4.3629,4.4397,4.474,4.4969,4.567,4.5892,4.5916,4.5837,4.5954,4.6165,4.6376,0.0,0.0,4.6611,4.5932,4.5521,0.0,0.0,4.8236,4.9301,5.0716,5.1557,5.1002,5.1938,5.2867,5.3259,5.3765,5.4381,5.5109,5.5913,5.6536,5.6802,5.7019,5.7401,5.8088,5.8896,5.9396,5.947,6.0204,6.0707,6.0784,6.0784,6.0784,6.0784,6.1556,6.1982,6.2098,6.282,6.3586,6.4432,6.4432,6.4897,6.5747,6.5747,6.5824,6.59,6.59,6.59,6.59,6.5785,6.5824,6.59,6.5785,6.5747,6.5824,6.6555,6.6865,6.7093,3.4724,3.6048,3.7269,3.7548,3.7268,3.7121,3.7456,3.8296,3.8953,3.917,4.001,4.0557,4.041,4.0263,4.008,3.9745,4.0451,4.1483,4.2914,4.4374,4.5402,4.5888,4.5438,4.5402,4.5883,4.5883,4.6503,4.7783,4.815,4.8301,4.8301,4.8301,4.7457,4.5883,4.5883,4.5011,4.3506,4.3869,4.4525,4.5443,4.6136,4.676,4.7347,4.7672,4.7081,4.598,4.5026,4.448,0.0,4.4638,4.4862,4.5129,4.5946,4.5907,4.5636,4.6031,4.5912,4.5794,4.6577,0.0,0.0,0.0,4.759,4.7398,4.7922,4.8249,4.8546,4.9162,4.9828,5.0563,5.1325,5.212,5.2857,0.0,5.4032,5.4763,5.5593,5.6165,5.6825,5.7766,5.787,5.8166,5.8941,5.9742,6.0242,6.0242,6.0592,6.0784,6.0784,6.1051,6.1307,6.1553,6.2167,6.2852,6.3551,6.3897,6.4474,6.5359,6.5359,6.5551,6.59,6.59,6.59,6.59,6.59,6.59,6.5939,6.6404,6.6593,6.6631,6.7167,6.7356,6.7321,6.717,6.7096,6.7209,3.488,3.6207,3.7477,3.8046,3.7838,3.7627,3.78,3.8897,3.9443,3.8784,3.9709,4.0296,3.9941,3.9166,3.8865,3.9305,3.968,4.0936,4.3327,4.4268,4.5071,4.5847,4.5328,4.5292,4.5883,4.5883,4.6691,4.8301,4.8301,4.8191,4.7966,4.7966,4.7122,4.5553,4.5553,4.4782,4.3506,4.3722,4.4488,4.5626,4.6062,4.6943,4.8003,4.8228,4.7783,4.6929,4.5544,4.4883,4.4704,4.4731,4.4849,4.5138,4.5976,4.5906,4.5687,4.6487,4.6479,4.6436,4.7398,0.0,0.0,4.8704,4.8566,4.8413,4.8338,4.8491,4.8766,4.9112,4.9371,5.004,5.1667,5.2399,5.2937,5.3477,5.4353,5.5183,5.5776,5.6482,5.7297,5.8361,5.8728,5.9038,5.9524,6.0249,6.0679,6.0679,6.0746,6.0867,6.0983,6.1427,6.1842,6.2286,6.2967,6.3729,6.4586,6.4859,6.5285,6.59,6.59,6.6016,6.6247,6.6478,6.659,6.659,6.659,6.659,6.6628,6.7209,6.7478,6.7513,6.8164,6.8391,6.8353,6.7975,6.767,6.7555,3.461,3.5469,3.6307,3.7087,3.7551,3.7974,3.8579,3.8934,3.9035,3.8745,3.8755,3.9056,3.9835,3.9166,3.9342,4.0879,4.0341,4.0936,4.3327,4.4268,4.5071,4.5847,4.5888,4.5888,4.5883,4.5883,4.6691,4.8301,4.8301,4.7893,4.7149,4.7149,4.6273,4.4737,4.4737,4.4268,4.3543,4.4337,4.47,4.4883,4.6457,4.7076,4.7223,4.8003,4.7783,4.7003,4.6172,4.5365,4.4713,4.4769,4.4901,4.5146,4.6012,4.6441,4.6801,4.7693,4.8487,4.9157,4.9453,0.0,4.8131,4.8123,4.7522,4.7076,4.7524,4.8242,4.9012,4.9805,5.0579,5.1389,5.2237,5.2781,5.3205,5.3635,5.4712,5.5493,5.5493,5.6909,5.8103,5.8457,5.9233,5.978,0.0,6.0097,6.0311,6.0311,6.0603,6.1012,6.1443,6.1864,6.2311,6.2753,6.3942,6.4542,6.4586,6.5436,6.5862,6.59,6.59,6.6324,6.7096,6.7933,6.8314,6.8314,6.8314,6.8314,6.8314,6.8353,6.8353,6.8353,6.8391,6.8391,6.8507,6.9318,6.9087,6.8353,3.4128,3.4913,3.5823,3.6869,3.6661,3.6766,3.7989,3.8962,3.9163,3.805,3.9313,0.0,0.0,0.0,0.0,0.0,4.0377,4.0455,4.1805,4.3167,4.4016,4.4314,4.4819,4.5365,4.5883,4.5883,4.6429,4.7484,4.7484,4.7085,4.6319,4.6319,4.5732,4.4737,4.5255,4.5039,4.4337,4.5149,4.5805,4.6347,4.6892,4.7411,4.7856,4.7594,4.7375,4.7068,0.0,4.4973,4.4753,4.4971,4.5142,4.5454,4.6514,4.6549,4.6293,4.6605,4.7634,4.853,4.7963,4.7931,4.8017,4.8021,4.7754,4.7672,4.8431,4.8808,4.9199,4.9869,5.0648,5.1459,5.225,5.3047,5.3577,5.3706,5.4722,5.5613,5.5995,5.7155,5.8165,5.86,5.9097,0.0,0.0,0.0,0.0,6.0297,6.0912,6.1465,6.1873,6.2376,6.2946,6.3592,6.4085,6.4553,6.5063,6.592,6.6483,6.6712,6.7282,6.7702,6.7971,6.8276,6.8391,6.8391,6.8391,6.8391,6.843,6.9007,6.9241,6.9318,6.9856,7.0049,7.0087,7.0398,7.0321,7.0049,3.3632,3.4185,3.4979,3.6259,3.6127,0.0,0.0,0.0,0.0,0.0,0.0,0.0,0.0,0.0,0.0,0.0,0.0,4.0047,4.1434,4.2245,4.2914,4.3469,4.3718,4.408,4.4599,4.4599,4.5145,4.6232,4.6232,4.5984,4.548,4.5773,4.5475,4.4737,4.5553,4.5626,4.5181,4.5989,4.6466,4.6718,4.6971,4.7232,4.7388,4.6907,4.6585,0.0,4.5248,4.4665,4.4429,4.4759,4.4931,4.5158,4.5998,4.6366,4.6458,4.6524,4.7551,4.8531,4.7868,4.7955,4.8203,4.8203,4.8158,4.8219,4.8776,4.9106,4.9509,5.0222,5.1041,5.1846,5.2646,5.3322,5.3857,5.4049,5.5029,5.601,5.6652,5.7612,5.8348,5.865,5.89,5.8922,0.0,0.0,0.0,6.0367,6.1076,6.1762,6.2348,6.2968,6.3546,6.4031,6.4726,6.5205,6.5569,6.6536,6.7064,6.7147,6.7982,6.8403,6.8403,6.8713,6.8866,6.8866,6.8866,6.8866,6.8905,6.9483,6.9716,6.9755,7.0256,7.0486,7.0486,7.0486,7.0486,7.0521,3.3191,3.3413,3.392,0.0,0.0,0.0,0.0,0.0,0.0,0.0,0.0,0.0,0.0,0.0,0.0,0.0,0.0,0.0,4.2029,4.1507,4.1805,4.3359,4.2727,4.2319,4.2359,4.2319,4.3053,4.459,4.4626,4.4626,4.4663,4.5406,4.5369,4.4663,4.548,4.5814,4.5847,4.6645,4.6571,4.5957,4.6677,4.6535,4.5897,4.5996,4.5516,4.4821,4.4919,4.4473,4.3882,4.4277,4.4385,4.4458,4.4695,4.5925,4.7248,4.7377,4.8229,4.9108,4.9039,4.8824,4.8605,4.8605,4.8601,4.8647,4.8577,4.9184,4.9996,5.0891,5.1755,5.252,0.0,0.0,5.4056,5.4603,5.5633,5.6612,5.7393,5.821,5.8687,0.0,0.0,0.0,0.0,0.0,0.0,6.0599,0.0,6.1957,6.2887,6.3601,6.4073,6.4272,6.5736,6.6336,6.6027,6.7224,6.7643,6.7358,6.8115,6.8456,6.8494,6.9309,6.9697,6.9697,6.9697,6.9697,6.9697,6.9697,6.9697,6.9697,6.9697,6.9697,6.9697,6.9697,6.9711,6.9837,0.0,0.0,0.0,0.0,0.0,0.0,0.0,0.0,0.0,0.0,0.0,0.0,0.0,0.0,0.0,0.0,0.0,0.0,4.0418,4.0883,4.1544,4.2543,4.2396,4.2584,4.3176,4.2621,4.2502,4.2906,4.3497,4.3795,4.3795,4.402,4.3983,4.3832,4.4631,4.4672,4.4167,4.4957,4.5544,4.5883,4.5471,4.5544,4.5856,4.5325,4.5068,4.4887,4.4383,4.4086,4.4117,4.5211,4.566,4.5685,4.495,4.5397,4.6199,4.6297,4.7192,4.8151,4.8191,4.8349,4.8532,4.8532,4.8922,4.9348,4.9314,4.9929,5.062,5.088,5.1664,5.2378,0.0,0.0,0.0,5.4837,5.6156,0.0,5.7467,5.821,0.0,5.8687,0.0,5.9191,5.9573,6.0123,0.0,0.0,6.2327,6.2761,6.3314,6.3588,6.4125,6.5063,6.519,6.5649,6.645,6.7657,6.8525,6.9086,6.9276,6.9385,6.9385,6.9583,6.9697,6.9697,6.9697,6.9697,6.9697,6.9697,6.9697,6.9697,6.9697,6.9697,6.9697,6.9697,6.9887,7.0277,0.0,0.0,0.0,0.0,0.0,0.0,0.0,0.0,0.0,0.0,0.0,0.0,0.0,0.0,0.0,0.0,0.0,0.0,0.0,4.0304,4.0924,4.1731,4.1442,4.1446,4.1927,4.1148,4.1254,4.2286,4.2396,4.2988,4.4011,4.4011,4.4011,4.4048,4.4851,4.4966,4.4566,4.5039,4.5292,0.0,0.0,4.4798,4.4853,4.4541,4.444,4.4461,4.4069,4.4309,4.4767,4.505,0.0,4.6029,4.5414,4.5639,4.6223,4.6595,0.0,4.8083,4.8091,4.825,4.8497,4.8906,4.9277,4.9605,4.9605,5.022,5.0832,5.0873,5.164,0.0,0.0,0.0,0.0,0.0,0.0,0.0,5.7987,5.8427,5.8841,0.0,5.9387,0.0,6.0423,6.0995,6.1613,0.0,6.2687,6.3088,6.3512,6.4064,6.4635,6.5138,6.581,6.6656,6.7685,6.8178,6.8699,6.9166,6.9166,6.9166,6.9166,6.9166,6.9166,6.9166,0.0,6.9166,6.9166,6.9166,6.9386,6.9681,6.9681,7.0045,7.0528,7.0528,7.0801,7.119,0.0,0.0,0.0,0.0,0.0,0.0,0.0,0.0,0.0,3.7551,3.8362,3.8832,0.0,0.0,0.0,0.0,0.0,0.0,0.0,0.0,4.0414,4.1209,4.0377,3.9945,4.0051,3.9166,3.9713,4.1805,4.1213,4.2057,4.4218,4.4218,4.4296,4.4406,4.5112,4.5406,4.5406,4.542,4.5089,4.4538,4.4529,4.4158,4.3655,0.0,4.3893,4.3905,4.3992,4.4703,4.5502,4.4488,4.4983,4.596,4.5844,4.6195,4.6784,4.745,4.8058,4.8489,4.8486,4.8458,4.8673,4.9527,4.9826,4.9899,4.9789,5.0477,5.1084,5.1074,0.0,5.2673,5.3375,5.4321,5.5251,5.5987,0.0,5.7764,5.8581,5.8799,5.9133,5.9802,5.9988,6.0396,6.1293,6.1988,6.2415,6.2499,6.2897,6.3295,6.3702,6.4753,6.524,6.5125,6.6997,6.8328,6.8976,6.866,6.8457,6.8445,6.8457,6.8469,6.8469,6.8487,6.8493,6.8493,0.0,0.0,6.8679,6.8753,6.9236,6.9868,6.9868,7.0533,7.1501,7.1501,7.1772,7.2121,0.0,0.0,0.0,0.0,0.0,0.0,0.0,0.0,0.0,0.0,3.9203,3.9423,0.0,0.0,0.0,0.0,0.0,0.0,0.0,0.0,0.0,4.2062,4.0675,4.0194,4.0883,3.9452,3.8905,3.9305,3.9863,4.0667,4.1719,4.1719,4.2094,4.2722,4.2873,4.2906,4.2914,4.299,4.331,4.3747,4.3197,4.3308,4.3783,4.3853,0.0,0.0,4.3992,4.4583,4.5325,4.4999,4.5617,4.6307,4.5426,4.6022,4.7058,4.7287,4.7822,4.8491,4.9257,4.9365,4.9481,5.0362,5.1101,5.1394,5.0734,5.1715,0.0,0.0,5.2617,5.3338,5.3486,5.4321,5.527,5.6147,5.6974,5.7764,5.8581,5.9282,5.9728,0.0,6.0545,0.0,0.0,0.0,0.0,0.0,0.0,6.4319,6.4417,6.4733,6.5497,6.6828,6.7877,6.8392,6.8432,6.8377,6.8278,6.8189,6.8284,6.8327,6.8334,6.8445,6.8493,6.8531,6.9199,0.0,6.9527,7.0196,7.0567,7.0679,7.0679,7.0816,7.1014,7.1014,7.1302,7.1803,0.0,0.0,0.0,0.0,0.0,0.0,0.0,3.792,3.8966,3.9844,4.0634,4.0855,4.0039,4.0993,4.1507,0.0,0.0,0.0,0.0,0.0,0.0,4.1654,4.0524,4.0088,4.0483,3.9309,0.0,0.0,0.0,4.0748,4.2323,4.1507,4.1544,4.2286,4.2286,4.2543,4.2923,4.3003,4.3253,4.3593,4.3377,4.3504,4.3878,0.0,0.0,0.0,4.3941,4.4188,4.4551,4.4913,4.5625,4.6334,4.622,4.6608,4.7195,4.767,4.8386,4.9055,4.9512,4.9929,5.0362,5.1211,5.1725,5.1798,5.0986,0.0,0.0,0.0,5.2414,5.3056,5.3946,5.4563,5.5248,5.6162,5.6984,5.7913,5.9133,5.9653,6.021,6.1107,6.159,6.2125,0.0,0.0,0.0,0.0,0.0,6.5162,6.5222,6.5792,6.6673,6.7899,6.8241,6.8365,6.8296,6.8234,6.8208,6.8215,6.8265,6.8556,6.9032,6.9094,6.9348,6.9756,7.0159,0.0,7.0344,7.0753,7.1168,7.1583,7.1463,7.1832,7.2404,7.2336,7.2607,7.3068,0.0,0.0,0.0,0.0,0.0,0.0,3.8254,3.9336,4.0386,4.1238,4.2062,4.2319,4.169,4.1617,4.1617,0.0,0.0,0.0,0.0,0.0,0.0,0.0,0.0,0.0,0.0,0.0,0.0,0.0,0.0,0.0,0.0,0.0,0.0,0.0,4.2286,4.2767,4.351,4.3583,4.3625,0.0,0.0,4.3905,0.0,0.0,0.0,0.0,0.0,4.3857,4.3943,4.4924,4.5614,4.6248,4.7022,4.7288,4.7448,4.7893,4.8788,4.9642,4.9826,5.044,5.1242,5.2055,5.2275,5.2013,5.1017,5.1573,0.0,0.0,5.2295,5.2954,5.4848,5.5035,5.5257,5.6375,5.7075,5.803,5.9653,6.004,6.0709,0.0,6.2534,0.0,6.3573,0.0,0.0,0.0,0.0,0.0,6.602,6.6944,6.7746,6.8377,6.8315,6.832,6.8467,6.841,6.8484,6.8726,6.879,6.9211,6.9905,6.9923,7.0307,7.0902,7.1094,0.0,0.0,7.1322,7.1804,7.2399,7.2205,7.2747,7.3634,7.3498,7.3688,7.4029,0.0,0.0,0.0,0.0,0.0,0.0,3.8254,3.9819,4.12,4.209,4.2878,4.3359,4.3286,4.3286,4.3286,0.0,0.0,0.0,0.0,0.0,0.0,0.0,0.0,0.0,0.0,0.0,0.0,0.0,0.0,0.0,0.0,0.0,0.0,0.0,0.0,0.0,4.351,4.3583,0.0,0.0,0.0,0.0,0.0,0.0,0.0,0.0,0.0,4.3804,4.4046,4.5482,0.0,4.6239,4.6902,4.7604,4.8076,4.7411,0.0,0.0,5.0472,5.1284,5.2092,5.2889,5.3104,5.2706,5.1164,0.0,0.0,5.3104,5.3156,5.3938,5.6404,5.5775,5.5448,5.7117,5.7342,5.7905,5.9674,6.0501,6.1252,6.2285,0.0,0.0,6.4396,6.4334,0.0,0.0,0.0,0.0,6.6839,6.7591,6.8047,6.8121,6.8108,6.84,6.9031,6.9132,6.9501,7.0112,7.0347,7.0514,7.0601,7.0746,7.0827,7.0939,7.1744,0.0,0.0,7.2753,7.3033,7.3094,7.2953,7.297,7.3054,7.3077,7.3068,7.3115,0.0,0.0,0.0,0.0,0.0,0.0,3.8157,3.9913,4.1438,4.2139,4.2962,4.3506,4.3506,4.3506,4.3506,4.3506,0.0,0.0,0.0,0.0,0.0,0.0,0.0,0.0,0.0,0.0,0.0,0.0,0.0,0.0,0.0,0.0,0.0,0.0,0.0,0.0,0.0,4.3044,0.0,0.0,0.0,0.0,0.0,0.0,0.0,0.0,0.0,0.0,0.0,0.0,0.0,4.6659,4.6439,4.6938,4.7594,0.0,4.8999,5.0513,5.1284,5.2123,5.2816,5.3104,5.2852,5.2197,5.1059,0.0,5.2637,5.3104,5.3214,5.4018,5.6565,5.5739,5.528,5.7079,5.727,5.7978,6.0245,6.0817,6.1481,6.2743,6.3612,0.0,0.0,0.0,0.0,0.0,0.0,0.0,6.8118,6.8097,6.8304,6.8808,6.8821,6.9195,6.9941,6.9915,7.0062,7.0414,7.0454,7.0773,7.1296,7.1348,7.1664,7.2189,7.2529,0.0,0.0,7.295,7.3077,7.3057,7.2906,7.2807,7.2793,7.2709,7.2718,7.2718,0.0,0.0,0.0,0.0,0.0,3.7423,3.8395,3.9937,4.1359,4.2404,4.3124,4.3506,4.3506,4.3506,4.3506,4.3506,4.3506,0.0,0.0,0.0,0.0,0.0,0.0,0.0,0.0,0.0,4.1841,4.2653,4.2098,0.0,0.0,0.0,0.0,0.0,0.0,0.0,0.0,0.0,0.0,0.0,0.0,0.0,0.0,0.0,0.0,0.0,0.0,0.0,0.0,0.0,0.0,4.6971,4.6136,4.6613,4.7484,4.7567,4.8967,5.0624,5.1431,5.2417,5.3214,5.3214,5.2601,5.1798,0.0,0.0,5.2527,5.3067,5.3398,5.4321,5.6905,5.6006,5.5486,5.7334,5.7523,5.8234,6.0617,6.0896,6.1553,6.3336,0.0,6.4586,0.0,0.0,0.0,0.0,0.0,0.0,0.0,6.8763,6.8949,6.9526,6.9539,6.9908,7.0736,7.0688,7.0819,7.1129,7.1125,7.1447,7.2096,7.2096,7.2435,7.2996,0.0,0.0,0.0,7.2941,7.292,7.2906,7.2709,7.2638,7.2631,7.2524,7.2488,7.2488,0.0,0.0,0.0,0.0,0.0,0.0,3.9085,3.9868,4.0971,4.3126,4.345,4.3506,4.3506,4.3506,4.3506,4.3506,4.3506,0.0,0.0,0.0,0.0,0.0,0.0,0.0,0.0,0.0,4.269,4.3506,4.3474,4.3474,4.3506,4.3474,0.0,0.0,0.0,0.0,0.0,0.0,0.0,0.0,0.0,0.0,4.3792,0.0,0.0,0.0,0.0,0.0,0.0,0.0,0.0,0.0,0.0,4.6985,4.7971,4.6397,4.7691,4.9789,5.0582,5.1971,5.3214,5.3214,5.2601,5.1798,0.0,0.0,5.3177,5.3214,5.3843,5.5172,5.772,5.6864,5.6355,5.8124,5.8262,5.8782,6.0566,6.0708,6.1558,0.0,0.0,6.4831,0.0,0.0,0.0,0.0,0.0,0.0,0.0,6.9633,7.008,7.008,7.008,7.0484,7.127,7.1432,7.1876,7.2672,7.2876,7.2989,7.2989,7.2989,7.2989,0.0,0.0,0.0,0.0,7.2779,7.2709,7.2695,7.2546,7.2496,7.2496,7.2488,7.2488,7.2488,0.0,0.0,0.0,0.0,0.0,0.0,3.8384,4.0071,4.1559,4.234,4.3044,4.3506,4.3506,4.3506,4.3506,4.3506,4.3506,0.0,0.0,0.0,0.0,0.0,0.0,0.0,0.0,4.3139,4.3497,4.4301,4.3763,4.3795,4.4301,4.3759,4.3506,4.3474,0.0,0.0,0.0,0.0,0.0,0.0,0.0,4.3696,4.3783,0.0,0.0,0.0,0.0,0.0,0.0,0.0,0.0,0.0,0.0,0.0,0.0,4.7049,4.8485,5.0587,5.1394,5.2375,5.3214,5.3214,5.2601,5.2092,5.2375,5.2847,5.3513,5.462,5.462,5.515,5.7607,5.6742,5.6419,5.8702,5.898,5.9485,6.1239,6.1927,6.2732,6.4045,6.5134,6.6211,0.0,0.0,0.0,0.0,0.0,0.0,0.0,7.0793,7.091,7.091,7.1015,7.1439,7.2271,7.232,7.2451,7.2709,7.266,7.2675,7.2675,7.2675,0.0,0.0,0.0,0.0,0.0,7.2582,7.256,7.2553,7.251,7.2488,7.2488,7.2488,7.2488,7.2488,0.0,0.0,0.0,0.0,0.0,0.0,3.8251,4.004,4.1487,4.1737,4.2765,4.3506,4.3506,4.3506,4.3616,4.3942,4.3938,0.0,0.0,0.0,0.0,0.0,0.0,0.0,4.3506,4.3506,4.3906,4.47,4.4195,4.419,4.47,4.4195,4.3795,4.3474,4.2988,4.3029,0.0,0.0,0.0,0.0,4.3528,4.3575,4.3655,0.0,0.0,0.0,0.0,0.0,0.0,0.0,0.0,0.0,0.0,0.0,0.0,0.0,4.9586,5.1316,5.1505,5.2123,5.2816,5.3104,5.2601,5.2202,5.3036,5.3434,5.4032,5.5328,5.5212,5.5506,5.7593,5.6681,5.631,5.851,5.9071,5.9697,6.1072,6.2224,6.3449,6.4837,0.0,0.0,0.0,0.0,0.0,0.0,0.0,0.0,0.0,7.16,7.1747,7.1747,7.181,7.2117,7.2624,7.2624,7.2624,7.2624,7.2532,7.2488,7.2488,7.2488,0.0,0.0,0.0,0.0,0.0,7.2488,7.2488,7.2488,7.2488,7.2488,7.2488,7.2488,7.2488,7.2488,0.0,0.0,0.0,0.0,0.0,0.0,0.0,3.9803,4.0872,4.1394,4.2645,4.3506,4.3506,4.3506,4.3795,4.4553,0.0,0.0,0.0,0.0,0.0,0.0,0.0,0.0,4.3506,4.3547,4.3938,4.47,4.47,4.47,4.47,4.4626,4.4232,4.3506,4.3506,4.3506,0.0,0.0,0.0,0.0,4.3506,4.3506,0.0,0.0,0.0,0.0,0.0,0.0,0.0,0.0,0.0,0.0,0.0,0.0,0.0,0.0,0.0,0.0,0.0,5.1463,5.2275,5.2994,5.2674,5.2386,5.3183,5.399,0.0,5.5585,5.5732,5.6172,5.7709,5.6791,5.6277,5.7813,5.8798,5.9636,6.045,6.2022,6.3937,0.0,6.729,0.0,0.0,0.0,0.0,0.0,0.0,0.0,0.0,7.2085,7.2488,7.2488,7.2488,7.2488,7.2488,7.2488,7.2488,7.2488,7.2488,7.2488,7.2488,7.2488,0.0,0.0,0.0,0.0,0.0,7.2488,7.2488,7.2488,7.2488,7.2488,7.2488,7.2488,7.2488,7.2488,0.0,0.0,0.0,0.0,0.0,0.0,0.0,0.0,0.0,0.0,4.2832,4.3506,4.3506,4.3506,4.3579,0.0,0.0,0.0,0.0,0.0,0.0,0.0,0.0,0.0,4.3506,4.4085,4.4521,4.47,4.47,4.47,4.47,4.4085,4.3685,4.3506,4.3506,4.3506,0.0,0.0,0.0,0.0,4.3506,4.3506,0.0,0.0,0.0,0.0,4.3506,4.453,0.0,0.0,0.0,0.0,0.0,0.0,0.0,0.0,5.1211,5.1945,5.1762,0.0,5.2962,5.3141,5.3513,5.4038,0.0,5.5647,5.6449,5.7268,5.6969,5.6816,5.7813,5.7672,5.7776,5.8756,6.012,6.1337,6.2132,6.4194,6.6072,6.729,6.8128,0.0,0.0,0.0,0.0,0.0,0.0,0.0,0.0,7.2415,7.2488,7.2488,7.2488,7.2488,7.2488,7.2488,7.2488,7.2488,7.2488,7.2488,7.2488,7.2488,0.0,0.0,0.0,0.0,7.2488,7.2488,7.2488,7.2488,7.2488,7.2488,7.2488,7.2488,7.2488,7.2488,0.0,0.0,0.0,0.0,0.0,0.0,0.0,0.0,0.0,0.0,4.2554,4.3506,4.3506,4.3506,0.0,0.0,0.0,0.0,0.0,0.0,0.0,0.0,0.0,4.3506,4.3506,4.3942,4.4337,4.47,4.47,4.47,4.47,4.4268,4.3869,4.3506,4.3506,4.3506,0.0,0.0,0.0,4.3506,4.3506,0.0,0.0,0.0,0.0,0.0,4.3906,4.4856,0.0,4.6319,4.7269,4.8521,0.0,0.0,0.0,0.0,5.2228,5.2637,5.301,5.3146,5.3287,5.366,5.4363,5.5176,5.5983,5.6486,5.7036,5.7813,5.7367,5.7036,5.785,5.8002,5.8253,5.908,6.0848,6.2695,6.4267,6.5668,6.6953,6.8091,6.8635,0.0,0.0,0.0,0.0,0.0,0.0,0.0,0.0,7.2488,7.2488,7.2488,7.2488,7.2488,7.2488,7.2488,7.2488,7.2488,7.2488,7.2488,7.2488,7.2488,7.2488,0.0,0.0,0.0,7.2488,7.2488,7.2488,7.2488,7.2488,7.2488,7.2488,7.2488,7.2488,7.2488,0.0,0.0,0.0,0.0,0.0,0.0,0.0,0.0,0.0,0.0,0.0,0.0,0.0,0.0,0.0,0.0,0.0,0.0,0.0,0.0,0.0,0.0,4.3579,4.3506,4.3506,4.3616,4.4011,4.47,4.47,4.47,4.47,4.4553,4.4158,4.3506,4.3506,4.3506,4.3506,0.0,0.0,4.3506,4.3506,0.0,0.0,0.0,0.0,0.0,0.0,0.0,0.0,4.6824,4.7631,4.8558,5.0141,0.0,0.0,0.0,0.0,0.0,5.4174,5.3917,5.3581,5.4363,5.5176,5.5946,5.6633,5.689,5.7183,5.7855,5.7446,5.722,5.8033,5.829,5.8621,5.9453,6.1618,6.3967,6.6182,6.6696,6.7357,6.8745,6.9112,0.0,0.0,0.0,0.0,0.0,0.0,0.0,0.0,7.2488,7.2488,7.2488,7.2488,7.2488,7.2488,7.2488,7.2488,7.2488,7.2488,7.2488,7.2488,7.2488,7.2488,0.0,0.0,0.0,7.2488,7.2488,7.2488,7.2488,7.2488,7.2488,7.2488,7.2488,7.2488,7.2488,0.0,0.0,0.0,0.0,0.0,0.0,0.0,0.0,0.0,0.0,0.0,0.0,0.0,0.0,0.0,0.0,0.0,0.0,0.0,0.0,0.0,4.4516,4.3869,4.3506,4.3506,4.4158,4.459,4.47,4.47,4.47,4.47,4.4011,4.3616,4.3506,4.3506,4.3506,4.3506,4.3506,0.0,4.3506,0.0,0.0,0.0,0.0,0.0,0.0,0.0,0.0,0.0,4.6824,4.7631,4.8485,4.9454,0.0,0.0,0.0,0.0,0.0,5.4174,5.4326,5.4399,5.5212,5.602,5.6633,5.6774,5.733,5.785,5.7966,5.7886,5.807,5.8866,5.9563,6.0309,0.0,0.0,6.5295,0.0,0.0,6.8635,0.0,0.0,0.0,0.0,0.0,0.0,0.0,0.0,0.0,0.0,7.2488,7.2488,7.2488,7.2488,7.2488,7.2488,7.2488,7.2488,7.2488,7.2488,7.2488,7.2488,7.2488,7.2488,0.0,0.0,7.2488,7.2488,7.2488,7.2488,7.2488,7.2488,7.2488,7.2488,7.2488,7.2488,7.2488,0.0,0.0,0.0,0.0,0.0,0.0,0.0,0.0,0.0,0.0,0.0,0.0,0.0,0.0,0.0,0.0,0.0,0.0,0.0,0.0,4.5145,4.4737,4.4337,4.3938,4.351,4.4301,4.4484,4.4048,4.4484,4.448,4.4048,4.3653,4.3506,4.3506,4.3506,4.3506,4.3506,4.3506,4.3506,4.3506,0.0,0.0,0.0,0.0,0.0,0.0,0.0,0.0,0.0,0.0,4.7631,4.8448,4.9344,0.0,0.0,0.0,0.0,0.0,5.4588,5.5065,5.5365,5.6576,5.6859,5.6921,5.7336,5.774,5.8107,5.8541,5.8284,5.8364,5.96,6.0523,6.1741,6.3906,0.0,6.6366,0.0,0.0,0.0,0.0,0.0,0.0,0.0,0.0,0.0,0.0,0.0,0.0,0.0,0.0,7.2488,7.2488,7.2488,7.2488,7.2488,7.2488,7.2488,7.2488,7.2488,7.2488,7.2488,7.2488,7.2488,7.2488,0.0,7.2488,7.2488,7.2488,7.2488,7.2488,7.2488,7.2488,7.2488,7.2488,7.2488,7.2488,0.0,0.0,0.0,0.0,0.0,0.0,0.0,0.0,0.0,0.0,0.0,0.0,0.0,0.0,0.0,0.0,0.0,0.0,0.0,4.5365,4.5328,4.4737,4.4521,4.4232,4.3795,4.4195,4.4305,4.4057,4.4305,4.4195,4.3795,4.3795,4.3795,4.3763,4.3579,4.3506,4.3506,4.3506,4.3616,4.3759,0.0,0.0,0.0,0.0,0.0,0.0,0.0,0.0,0.0,0.0,0.0,0.0,0.0,0.0,0.0,5.1358,5.1982,5.2753,5.4997,5.5475,5.5763,5.7562,5.7556,5.7257,5.7855,0.0,5.8468,5.908,5.8872,5.8988,6.0419,6.1667,0.0,6.6072,6.6806,0.0,0.0,0.0,0.0,0.0,0.0,0.0,0.0,0.0,0.0,0.0,0.0,0.0,0.0,0.0,7.2488,7.2488,7.2488,7.2488,7.2488,7.2488,7.2488,7.2488,7.2488,7.2488,7.2488,7.2488,7.2488,7.2488,7.2488,7.2488,7.2488,7.2488,7.2488,7.2488,7.2488,7.2488,7.2488,7.2488,7.2488,7.2525,0.0,0.0,0.0,0.0,0.0,0.0,0.0,0.0,0.0,0.0,0.0,0.0,0.0,0.0,0.0,0.0,0.0,0.0,0.0,4.5181,4.4773,4.47,4.3979,4.3906,4.459,4.3942,4.4273,4.5736,4.4273,4.3942,4.4626,4.4626,4.4626,4.459,4.3832,4.3506,4.3506,4.3506,4.3942,4.4553,4.3795,0.0,0.0,0.0,0.0,0.0,0.0,0.0,0.0,0.0,0.0,0.0,0.0,0.0,5.0729,5.0834,5.193,5.3471,5.5139,5.5065,5.506,5.7409,5.796,5.7923,5.7997,5.8578,0.0,5.919,0.0,0.0,0.0,6.3429,6.5368,6.6329,6.7754,0.0,0.0,0.0,0.0,0.0,0.0,0.0,0.0,0.0,0.0,0.0,0.0,0.0,0.0,0.0,0.0,7.2488,7.2488,7.2488,7.2488,7.2488,7.2488,7.2488,7.2488,7.2488,7.2488,7.2488,7.2488,7.2488,7.2488,7.2488,7.2488,7.2488,7.2488,7.2488,7.2488,7.2488,7.2488,7.2488,7.2488,7.2599,0.0,0.0,0.0,0.0,0.0,0.0,0.0,0.0,0.0,0.0,0.0,0.0,0.0,0.0,0.0,0.0,0.0,0.0,0.0,4.472,4.47,4.47,4.4411,4.4374,4.47,4.4892,4.4787,4.4424,4.4305,4.4411,4.47,4.47,4.47,4.4659,4.3869,4.3506,4.3547,4.4011,4.4411,4.4663,4.4374,4.4447,0.0,0.0,0.0,0.0,0.0,0.0,0.0,0.0,4.7012,4.8003,4.8825,4.9522,5.0261,5.1248,5.1982,5.2784,5.4405,5.4992,5.5506,5.689,5.7629,5.8143,5.8615,5.8976,5.949,6.0487,6.0523,0.0,0.0,0.0,6.7063,6.7864,0.0,0.0,0.0,0.0,0.0,0.0,0.0,0.0,0.0,0.0,0.0,0.0,0.0,0.0,0.0,0.0,0.0,7.2488,7.2488,7.2488,7.2488,7.2488,7.2488,7.2488,7.2488,7.2488,7.2488,7.2488,7.2488,7.2488,7.2488,7.2488,7.2488,7.2488,7.2488,7.2488,7.2488,7.2488,7.2569,7.3046,7.323,7.334,0.0,0.0,0.0,0.0,0.0,0.0,0.0,0.0,0.0,0.0,0.0,0.0,0.0,0.0,0.0,0.0,0.0,0.0,4.3443,4.3751,4.3902,4.3902,4.4058,4.4122,4.4122,4.5049,4.5117,4.4277,4.5071,4.5324,4.5067,4.5067,4.5067,4.5035,4.3979,4.3653,4.3906,4.4195,4.4484,4.47,4.47,4.47,0.0,0.0,0.0,0.0,0.0,0.0,0.0,0.0,4.7017,4.8113,4.9233,4.9752,5.0261,5.1583,5.2354,5.3046,5.4405,5.5359,5.6235,5.7288,5.7954,5.8651,5.9716,5.9747,5.9973,6.13,6.1374,6.1845,6.4053,0.0,0.0,0.0,0.0,0.0,0.0,0.0,0.0,0.0,0.0,0.0,0.0,0.0,0.0,0.0,0.0,0.0,0.0,0.0,0.0,0.0,7.2488,7.2488,7.2488,7.2488,7.2488,7.2488,7.2488,7.2488,7.2488,7.2488,7.2488,7.2488,7.2488,7.2488,7.2488,7.2488,7.2488,7.2488,7.2488,7.2679,7.2936,7.3494,7.3861,7.4184,0.0,0.0,0.0,0.0,0.0,0.0,0.0,0.0,0.0,0.0,0.0,0.0,0.0,0.0,0.0,0.0,0.0,0.0,4.2175,4.2205,4.2211,4.2216,4.2635,4.2896,4.2937,4.4108,4.5104,4.5883,4.6677,4.6682,4.5883,4.5883,4.5883,4.5814,4.4204,4.3938,4.4626,4.3832,4.3975,4.47,4.47,4.47,4.47,0.0,0.0,0.0,0.0,0.0,0.0,0.0,4.7113,4.7411,4.9003,5.0105,5.0986,5.1762,5.3157,5.4583,5.5365,5.6203,5.7178,5.8787,5.919,5.9636,6.1233,6.1006,6.0639,6.1453,6.2285,6.3343,6.5031,0.0,0.0,0.0,0.0,0.0,0.0,0.0,0.0,0.0,0.0,0.0,0.0,0.0,0.0,0.0,0.0,0.0,0.0,0.0,0.0,0.0,7.2488,7.2488,7.2488,7.2488,7.2488,7.2488,7.2488,7.2488,7.2488,7.2488,7.2488,7.2488,7.2488,7.2488,7.2488,7.2488,7.2488,7.2496,7.2496,7.301,7.3714,7.3714,7.4221,7.5021,0.0,0.0,0.0,0.0,0.0,0.0,0.0,0.0,0.0,0.0,0.0,0.0,0.0,0.0,0.0,0.0,0.0,0.0,4.1715,4.2034,4.2353,4.2695,4.283,4.3313,4.4167,4.5631,4.6241,4.5883,4.5581,4.5585,4.5883,4.5883,4.559,4.5035,4.4557,4.4154,4.3869,4.4195,4.448,4.4737,4.5328,4.5553,4.5553,0.0,0.0,0.0,0.0,0.0,0.0,0.0,0.0,0.0,5.0105,5.1384,5.2412,5.2092,5.3529,5.5176,5.4845,5.6161,5.7776,5.8253,5.9202,6.0487,6.2065,6.1814,6.1637,6.3068,6.4457,6.5742,6.6776,0.0,0.0,0.0,0.0,0.0,0.0,0.0,0.0,0.0,0.0,0.0,0.0,0.0,0.0,0.0,0.0,0.0,0.0,0.0,0.0,0.0,7.2488,7.2488,7.2488,7.2488,7.2488,7.2488,7.2488,7.2488,7.2488,7.2488,7.2488,7.2488,7.2488,7.2488,7.2488,7.2488,7.2826,7.3347,7.3347,7.3854,7.4617,7.5175,7.5542,7.5946,0.0,0.0,0.0,0.0,0.0,0.0,0.0,0.0,0.0,0.0,4.1676,4.1351,0.0,0.0,0.0,0.0,0.0,0.0,4.1512,4.1955,4.2394,4.2798,4.3179,4.3951,4.5136,4.6131,4.6535,4.6393,4.5906,4.5727,4.5883,4.5883,4.5626,4.5181,4.5181,4.4929,4.4461,4.4631,4.47,4.4773,4.559,4.5883,4.5925,0.0,0.0,0.0,0.0,0.0,0.0,0.0,0.0,0.0,5.1384,5.2407,5.3214,5.3377,5.4704,5.6051,5.5873,5.7116,5.8615,5.9287,6.0419,6.1765,6.3417,6.3423,0.0,0.0,6.5815,6.6843,6.7987,0.0,0.0,0.0,0.0,0.0,0.0,0.0,0.0,0.0,0.0,0.0,0.0,0.0,0.0,0.0,0.0,0.0,0.0,0.0,0.0,0.0,7.2488,7.2488,7.2488,7.2488,7.2488,7.2488,7.2826,7.2973,7.2973,7.2642,7.2488,7.2525,7.2826,7.3156,7.3443,7.3443,7.3744,7.4184,7.4184,7.4654,7.5461,7.6269,7.6783,7.7268,0.0,0.0,0.0,0.0,0.0,0.0,0.0,0.0,0.0,4.2308,4.1933,4.1588,0.0,0.0,0.0,4.0847,4.1232,4.1468,4.1506,4.1881,4.2289,4.2744,4.374,4.4856,4.5984,4.6067,4.6466,4.7223,4.7003,4.6535,4.5883,4.5883,4.5847,4.5773,4.5883,4.5847,4.5736,4.4924,4.4594,4.4663,4.5553,4.5883,4.5993,4.686,0.0,0.0,0.0,0.0,0.0,0.0,0.0,0.0,5.2847,5.3398,5.3807,5.5102,5.6235,5.7147,5.7813,5.8688,5.9783,6.1337,6.2438,6.3527,6.5074,6.5508,6.5809,6.6476,0.0,6.721,0.0,0.0,0.0,0.0,0.0,0.0,0.0,0.0,0.0,0.0,0.0,0.0,0.0,0.0,0.0,0.0,0.0,0.0,0.0,0.0,0.0,7.2488,7.2569,7.2599,7.2599,7.2672,7.2709,0.0,7.345,7.3824,7.3788,7.3046,7.2709,7.2745,7.3487,7.4221,7.4903,7.4903,7.4948,7.5014,7.5014,7.5535,7.6423,7.7142,7.7957,7.8809,0.0,0.0,0.0,0.0,0.0,0.0,0.0,0.0,4.1356,4.1601,4.151,4.1235,4.0675,4.0661,0.0,4.0595,4.0871,4.1163,4.149,4.1312,4.1767,4.3109,4.4942,4.6182,4.6814,4.7452,4.7861,4.8039,4.6127,4.5438,4.5883,4.5883,4.5548,4.4993,4.5626,4.5553,4.492,4.4089,4.3759,4.3873,4.5333,4.5883,4.6067,4.7494,4.7929,0.0,0.0,0.0,0.0,0.0,0.0,0.0,5.3843,5.5018,5.5862,5.4913,5.6559,5.8572,5.8107,5.9507,6.1337,6.2285,6.412,6.5815,6.6145,6.7203,6.8017,6.7547,6.7944,0.0,0.0,0.0,0.0,0.0,0.0,0.0,0.0,0.0,0.0,0.0,0.0,0.0,0.0,0.0,0.0,0.0,0.0,0.0,0.0,0.0,0.0,7.2488,7.312,7.3457,7.3457,7.4074,7.439,0.0,7.4544,7.4654,7.4654,7.447,7.439,7.4397,7.4581,7.4727,7.4903,7.4903,7.5278,7.5836,7.5836,7.6754,7.8075,7.8259,7.8854,7.9661,0.0,0.0,0.0,0.0,0.0,0.0,0.0,0.0,4.1636,4.1335,4.1015,4.0775,4.0832,4.065,0.0,0.0,4.0901,4.1203,4.149,4.1506,4.2328,4.4186,4.5804,4.6949,4.7653,4.8076,4.8113,4.7741,4.6099,4.548,4.5883,4.5516,4.5108,4.4737,4.5553,4.5438,4.4663,4.4268,4.4309,4.4713,4.5557,4.6361,4.7127,4.7971,4.8563,4.9045,4.9853,0.0,0.0,0.0,0.0,0.0,0.0,0.0,5.6633,5.5789,5.7,5.8615,5.8578,5.9758,6.1484,6.3496,6.5258,6.6696,6.746,6.8304,6.9002,6.9339,6.9772,0.0,0.0,0.0,0.0,0.0,0.0,0.0,0.0,0.0,0.0,0.0,0.0,0.0,0.0,0.0,0.0,0.0,0.0,0.0,0.0,7.3663,7.3663,7.3663,7.4067,7.4258,7.4258,7.4691,7.4903,7.4903,7.5278,7.5682,7.6004,7.5234,7.5131,7.5461,7.5461,7.5682,7.6041,7.6041,7.6298,7.6709,7.7121,7.7818,7.8699,7.947,8.0021,8.0506,0.0,0.0,0.0,0.0,0.0,0.0,0.0,0.0,0.0,4.1102,4.0491,4.0413,4.1106,4.0674,4.0418,0.0,0.0,0.0,4.1501,4.2124,4.3273,4.511,4.628,4.7329,4.8282,4.8301,4.7893,4.7113,4.6282,4.5847,4.5663,4.4998,4.4773,4.492,4.5443,4.5406,4.4883,4.4626,4.4961,4.57,4.5847,4.6764,4.8113,4.8411,4.8898,4.9527,5.0618,5.1358,5.1945,5.3036,0.0,0.0,0.0,0.0,5.6633,5.6743,5.7367,5.8143,5.8792,6.0009,6.1771,6.4744,6.6109,6.71,6.8561,6.9002,6.9516,7.1013,0.0,0.0,0.0,0.0,0.0,0.0,0.0,0.0,0.0,0.0,0.0,0.0,0.0,0.0,0.0,0.0,0.0,0.0,0.0,0.0,7.4867,7.4903,7.4903,7.4903,7.5021,7.5131,7.5131,7.5234,7.5307,7.5307,7.5975,7.6673,7.7244,7.5931,7.5682,7.6306,7.6306,7.6673,7.7318,7.7472,7.7509,7.7619,7.8479,7.889,7.9176,8.049,8.1077,8.1305,0.0,0.0,0.0,0.0,0.0,0.0,0.0,0.0,0.0,0.0,4.0262,4.0266,4.028,4.0372,4.0491,4.0522,4.0686,4.0977,4.1479,0.0,0.0,4.4659,4.612,4.7329,4.8282,4.8301,4.7893,4.7113,4.6282,4.5553,0.0,0.0,4.5071,4.57,4.5108,4.5181,4.5663,4.4236,4.4121,4.4924,4.5626,4.6466,4.7411,4.8861,4.9013,4.8778,5.1027,5.1468,5.1311,5.3518,5.4326,0.0,0.0,0.0,5.5915,5.6596,5.7367,5.8033,5.8143,6.0829,6.4059,6.5888,6.696,6.7767,6.8671,6.9449,7.0183,0.0,0.0,0.0,0.0,0.0,0.0,0.0,0.0,0.0,0.0,0.0,0.0,0.0,0.0,0.0,0.0,0.0,0.0,0.0,0.0,0.0,7.4903,7.4903,7.4903,7.4903,7.5572,7.5946,7.5946,7.6628,7.6988,7.6988,7.7098,7.7208,7.7281,7.7061,7.7024,7.7142,7.7142,7.7208,7.7355,7.8104,7.8442,7.8516,7.9331,8.0065,8.071,8.093,8.1452,8.2048,0.0,0.0,0.0,0.0,0.0,0.0,0.0,0.0,0.0,0.0,0.0,4.0169,4.0119,4.0269,4.0418,4.0497,4.0613,4.0829,4.114,4.2416,4.3606,4.4573,4.5904,4.7151,4.8287,4.7856,4.7227,4.6429,4.5622,4.4819,0.0,4.4011,4.4236,0.0,4.4199,4.4232,4.4534,4.4268,4.4635,4.5438,4.6241,4.7347,4.8526,4.8788,4.9224,4.9769,5.0445,5.0996,5.1615,5.2716,5.3665,5.4509,5.5244,0.0,0.0,0.0,5.6339,5.7629,5.8988,6.1673,6.4506,6.6109,6.743,6.8568,6.9376,7.0176,7.0984,7.1828,0.0,0.0,0.0,0.0,0.0,0.0,0.0,0.0,0.0,0.0,0.0,0.0,0.0,0.0,0.0,0.0,0.0,0.0,0.0,7.5755,7.6225,7.6225,7.6225,7.6225,7.6592,7.6775,7.6775,7.7134,7.7281,7.7281,7.7281,7.7546,7.8031,7.8031,7.7766,7.7318,7.781,7.8031,7.8104,7.8927,7.9258,7.9331,8.0175,8.0681,8.104,8.1525,8.1893,8.2194,0.0,0.0,0.0,0.0,0.0,0.0,0.0,0.0,0.0,0.0,0.0,4.0113,4.0113,0.0,0.0,0.0,4.0339,4.0459,4.0601,4.1777,4.2944,4.4073,4.5351,4.6499,4.7524,4.7015,4.6316,4.5448,4.4853,0.0,4.3366,4.3463,4.3506,0.0,4.3506,4.3726,0.0,0.0,0.0,4.6287,4.7085,4.8526,5.0193,4.9958,5.076,5.1903,5.1106,5.1583,5.2532,5.2134,5.2931,5.4142,5.4326,5.5201,0.0,0.0,0.0,5.7073,5.928,6.1654,6.3949,6.5999,6.7577,6.8898,7.0146,7.0874,7.1527,0.0,0.0,0.0,0.0,0.0,0.0,0.0,0.0,0.0,0.0,0.0,0.0,0.0,0.0,0.0,0.0,0.0,0.0,0.0,0.0,7.6673,7.7281,7.7281,7.7281,7.7281,7.7281,7.7281,7.7281,7.7281,7.7399,7.7619,7.7619,7.8067,7.889,7.889,7.8552,7.7957,7.8626,7.889,7.8964,7.9771,8.0102,8.0175,8.0975,8.1305,8.1379,8.1966,8.2194,8.2194,0.0,0.0,0.0,0.0,0.0,0.0,0.0,0.0,0.0,0.0,0.0,4.0113,4.0113,4.0219,4.0071,3.95,3.9533,3.9622,3.9761,4.1057,4.2132,4.2784,4.4261,0.0,4.5467,4.5675,4.5253,4.4189,0.0,0.0,4.2934,4.3303,4.3506,4.3506,4.3506,4.435,4.5736,0.0,0.0,4.7113,4.7893,4.9701,5.2024,5.3524,5.4625,5.5254,5.4441,0.0,5.4032,5.2496,5.2564,5.3398,5.4179,5.4473,5.4563,0.0,0.0,0.0,5.8044,6.0083,6.2518,6.5705,6.7143,6.8355,7.072,7.127,7.1527,0.0,0.0,0.0,0.0,0.0,0.0,0.0,0.0,0.0,0.0,0.0,0.0,0.0,0.0,0.0,0.0,0.0,0.0,0.0,0.0,7.7244,7.7281,7.7281,7.7281,7.7281,7.7281,7.7281,7.7281,7.7281,7.7693,7.8516,7.8516,7.8964,7.9743,7.9743,7.9706,7.9669,7.9706,7.9743,7.9816,8.0608,8.0938,8.1012,8.1819,8.2158,8.2158,8.2194,8.2194,8.2194,0.0,0.0,0.0,0.0,0.0,0.0,0.0,0.0,0.0,0.0,0.0,0.0,0.0,3.9806,3.9518,3.93,3.9435,0.0,0.0,4.1146,4.1939,4.2662,4.3966,4.4744,4.4858,4.4893,4.4525,4.3663,0.0,4.2879,4.2896,4.3041,4.3529,4.4264,4.4264,4.4594,4.5181,4.5906,0.0,0.0,4.8727,5.0409,5.2098,5.2794,5.3545,5.4199,0.0,0.0,0.0,5.242,5.2606,5.3015,5.3663,5.4327,5.487,5.4925,5.516,5.5832,5.7812,5.9318,6.1077,6.416,6.6336,6.8068,6.9442,7.0947,7.2158,0.0,0.0,0.0,0.0,0.0,0.0,0.0,0.0,0.0,0.0,0.0,0.0,0.0,0.0,0.0,0.0,0.0,0.0,0.0,0.0,0.0,7.7281,7.7281,7.7281,7.7281,7.7839,7.8369,7.8883,7.8405,7.8552,7.9368,7.9368,7.9808,8.0571,8.0571,8.0836,8.135,8.135,8.1056,8.0645,8.1452,8.1782,8.1782,8.2084,8.2194,8.2194,8.2194,8.2194,8.2194,0.0,0.0,0.0,0.0,0.0,0.0,0.0,0.0,0.0,4.0912,0.0,0.0,0.0,0.0,3.9104,3.8874,3.9221,3.9698,4.0242,4.0792,4.1377,4.1946,4.3214,4.3905,4.3887,4.3715,4.3443,4.3185,4.2109,4.1976,4.2686,4.3119,4.3792,4.4737,4.5246,4.5503,0.0,0.0,0.0,4.7676,0.0,0.0,5.2108,0.0,5.3791,0.0,0.0,0.0,0.0,0.0,0.0,5.3757,5.3907,5.4363,5.4808,5.4786,5.5006,5.5451,5.6629,5.7882,5.969,6.2983,6.4985,6.6825,6.9181,7.0727,7.1835,0.0,0.0,0.0,0.0,0.0,0.0,0.0,0.0,0.0,0.0,0.0,0.0,0.0,0.0,0.0,0.0,0.0,0.0,0.0,0.0,0.0,7.7281,7.7582,7.7839,7.8141,7.8699,7.9258,7.9779,7.9258,7.9404,8.0212,8.0212,8.0616,8.1415,8.1415,8.1672,8.2194,8.2194,8.1893,8.1452,8.1966,8.2194,8.2194,8.2194,8.2194,8.2194,8.2194,8.2194,8.2194,0.0,0.0,0.0,0.0,0.0,0.0,0.0,0.0,4.2327,4.2293,0.0,0.0,0.0,0.0,0.0,3.8304,3.8846,3.9282,3.9426,3.9994,4.0362,4.0504,4.192,4.2621,4.2469,4.2064,4.2141,4.27,4.1215,4.1087,4.2282,4.3546,4.4356,4.4842,4.6415,4.7113,4.7149,0.0,4.7594,4.8507,0.0,5.1852,5.2286,0.0,0.0,0.0,5.4931,5.5311,0.0,0.0,0.0,0.0,0.0,5.4472,5.4206,5.4207,5.4741,5.5204,0.0,0.0,0.0,6.2133,6.3075,6.4497,6.9853,7.0522,7.0463,0.0,0.0,0.0,0.0,0.0,0.0,0.0,0.0,0.0,0.0,0.0,0.0,0.0,0.0,0.0,0.0,0.0,0.0,0.0,0.0,7.7281,7.7281,7.8141,7.9001,7.9816,7.9816,7.9816,7.989,7.9853,8.0249,8.104,8.104,8.1452,8.2194,8.2194,8.2194,8.2194,8.2194,8.2194,8.2194,8.2194,8.2194,8.2194,8.2194,8.2194,8.2194,8.2194,8.2194,8.2194,0.0,0.0,0.0,0.0,0.0,4.4079,4.349,4.322,4.2888,0.0,0.0,0.0,0.0,0.0,4.0354,3.963,3.9815,4.0,4.0037,4.0303,4.0504,4.0625,4.1964,4.2485,4.198,4.2858,4.3128,4.2709,4.236,4.2684,4.365,4.416,4.509,4.6391,4.6864,4.7411,4.7966,4.7966,0.0,0.0,4.9861,5.1397,0.0,0.0,0.0,0.0,0.0,5.6422,0.0,0.0,5.5213,5.4618,0.0,0.0,5.4647,5.4294,5.4366,5.4741,5.5624,0.0,0.0,0.0,0.0,0.0,0.0,0.0,0.0,0.0,0.0,0.0,0.0,0.0,0.0,0.0,0.0,0.0,0.0,0.0,0.0,0.0,0.0,0.0,0.0,0.0,0.0,0.0,7.7281,7.7281,7.7281,7.8141,7.925,8.0608,8.0102,8.0367,8.1534,8.0975,8.1085,8.1856,8.1856,8.1966,8.2194,8.2194,8.2194,8.2194,8.2194,8.2194,8.2194,8.2194,8.2194,8.2194,8.2194,8.2194,8.2194,8.2194,8.2194,8.2194,0.0,0.0,4.5514,4.5514,4.5514,4.5345,4.4884,4.458,4.4309,0.0,0.0,0.0,0.0,0.0,4.1346,4.0601,4.0637,4.0675,4.0675,4.0458,4.0505,4.0901,4.1957,4.2562,4.2595,4.307,4.3296,4.3218,4.264,4.2866,4.3892,4.4912,4.5857,4.6716,4.7926,4.8299,4.8052,0.0,0.0,0.0,5.0326,0.0,0.0,5.4211,5.5481,0.0,0.0,0.0,5.5365,5.7196,5.6542,0.0,0.0,0.0,0.0,0.0,5.4118,5.4369,5.5588,5.5617,5.5866,5.8363,0.0,0.0,0.0,0.0,0.0,0.0,0.0,0.0,0.0,0.0,0.0,0.0,0.0,0.0,0.0,0.0,0.0,0.0,0.0,0.0,0.0,0.0,0.0,7.7281,7.7281,7.7619,7.8324,7.914,8.0167,8.1452,8.1056,8.124,8.2194,8.1746,8.1746,8.2194,8.2194,8.2194,8.2194,8.2194,8.2194,8.2194,8.2194,8.2194,8.2194,8.2194,8.2194,8.2194,8.2194,8.2194,8.2194,8.2194,8.2194,8.2194,0.0,0.0,4.6827,4.6928,4.6928,4.6928,4.6928,4.638,4.6102,0.0,4.4918,4.3118,4.1745,0.0,0.0,0.0,4.1434,4.14,4.1333,4.0709,4.0648,4.1318,4.2022,4.2834,4.3654,4.3049,4.3136,4.3971,4.2633,4.2512,4.3646,4.5592,4.6484,4.6549,4.899,4.9214,4.7756,4.8654,0.0,4.8058,5.1383,5.1849,0.0,0.0,5.545,0.0,5.6709,5.6528,5.6099,5.9026,5.8382,0.0,0.0,0.0,0.0,0.0,5.4203,5.4476,5.5049,5.5219,5.5874,0.0,0.0,0.0,0.0,0.0,0.0,0.0,0.0,0.0,0.0,0.0,0.0,0.0,0.0,0.0,0.0,0.0,0.0,0.0,0.0,0.0,0.0,7.7281,7.7281,7.7281,7.7391,7.8141,7.9706,8.0571,8.1379,8.2158,8.2194,8.2194,8.2194,8.2194,8.2194,8.2194,8.2194,8.2194,8.2194,8.2194,8.2194,8.2194,8.2194,8.2194,8.2194,8.2194,8.2194,8.2194,8.2194,8.2194,8.2194,8.2194,8.2194,8.2194,4.659,4.6691,4.6996,4.7582,4.7684,4.7684,4.7684,4.7549,4.7109,4.6034,4.5527,4.4925,4.4025,0.0,0.0,4.3085,4.2976,4.2713,4.2124,4.1955,4.1967,4.2235,4.2841,4.3322,4.3606,4.3986,4.4284,4.4454,4.4266,4.444,4.4936,4.5566,4.6588,4.7908,4.8074,4.8167,4.8238,0.0,0.0,4.8958,5.045,0.0,5.3902,5.5718,5.7467,5.9068,5.9368,5.9315,5.9143,0.0,5.9001,5.825,0.0,0.0,0.0,0.0,0.0,0.0,0.0,0.0,0.0,0.0,0.0,0.0,0.0,0.0,0.0,0.0,0.0,0.0,0.0,0.0,0.0,0.0,0.0,0.0,0.0,0.0,0.0,0.0,0.0,0.0,0.0,7.7281,7.7281,7.7281,7.7957,7.8772,7.9743,8.0571,8.1379,8.2158,8.2194,8.2194,8.2194,8.2194,8.2194,8.2194,8.2194,8.2194,8.2194,8.2194,8.2194,8.2194,8.2194,8.2194,8.2194,8.2194,8.2194,8.2194,8.2194,8.2194,8.2194,8.2194,8.2194,8.2194,4.7353,4.7631,4.8139,4.8883,4.9011,4.8875,4.8496,4.8157,4.7515,4.638,4.6575,4.6244,4.4777,0.0,0.0,0.0,4.3626,4.3254,4.2855,4.2489,4.2489,4.2949,4.3254,4.3626,4.4088,4.4439,4.4608,4.4608,4.5043,4.532,4.5542,4.6713,4.793,4.9126,4.877,4.8635,4.87,0.0,4.7705,4.8376,5.0913,0.0,5.5486,5.7534,5.932,6.0689,6.0689,6.0926,6.1013,5.9608,5.8835,0.0,0.0,5.7751,5.6614,0.0,5.5814,5.6349,0.0,0.0,0.0,5.7312,0.0,0.0,0.0,0.0,0.0,0.0,0.0,0.0,0.0,0.0,0.0,0.0,0.0,0.0,0.0,0.0,0.0,0.0,0.0,0.0,0.0,7.7281,7.7281,7.7281,7.8479,7.9368,7.9779,8.0946,8.1782,8.2194,8.2194,8.2194,8.2194,8.2194,8.2194,8.2194,8.2194,8.2194,8.2194,8.2194,8.2194,8.2194,8.2194,8.2194,8.2194,8.2194,8.2194,8.2194,8.2194,8.2194,8.2194,8.2194,8.2194,8.2194,4.8124,4.8597,4.9221,4.9973,5.0109,4.9906,4.9289,4.8706,4.7996,4.7131,4.7421,4.7049,4.5413,0.0,0.0,0.0,0.0,4.4505,4.4065,4.3504,4.3369,4.3822,4.3693,4.4012,4.4804,4.4668,4.4608,4.4608,4.5331,4.5696,4.5737,4.7561,4.8912,4.978,4.9715,0.0,0.0,0.0,0.0,4.8699,0.0,5.4233,5.5578,5.8546,6.0182,6.0917,6.1525,6.211,6.2323,6.0308,0.0,5.8906,5.9641,5.8549,0.0,0.0,0.0,0.0,0.0,0.0,0.0,0.0,0.0,5.7872,0.0,0.0,0.0,0.0,0.0,0.0,0.0,0.0,0.0,0.0,0.0,0.0,0.0,0.0,0.0,0.0,0.0,0.0,0.0,7.6914,7.6959,7.7281,7.8552,7.9441,7.9779,8.1313,8.2194,8.2194,8.2194,8.2194,8.2194,8.2194,8.2194,8.2194,8.2194,8.2194,8.2194,8.2194,8.2194,8.2194,8.2194,8.2194,8.2194,8.2194,8.2194,8.2194,8.2194,8.2194,8.2194,8.2194,8.2194,8.2194,4.8875,4.8943,4.9221,4.9973,5.0109,5.0083,4.9973,4.9906,4.9357,4.7954,4.7293,4.709,0.0,0.0,0.0,0.0,0.0,0.0,4.6556,0.0,4.6041,4.5459,4.4797,4.4797,4.5568,4.4939,4.4608,4.4608,4.5331,4.5696,4.573,4.6629,4.7719,4.8983,4.9714,0.0,0.0,0.0,5.0929,0.0,5.4,5.3863,0.0,5.6836,5.8626,5.9622,6.2293,6.3318,6.325,0.0,6.1951,6.1579,0.0,6.0283,0.0,0.0,0.0,0.0,0.0,0.0,0.0,0.0,5.8321,0.0,0.0,0.0,0.0,0.0,0.0,0.0,0.0,0.0,0.0,0.0,0.0,0.0,0.0,0.0,0.0,0.0,0.0,0.0,0.0,0.0,0.0,7.7171,7.7472,7.8214,7.9706,8.1313,8.2194,8.2194,8.2194,8.2194,8.2194,8.2194,8.2194,8.2194,8.2194,8.2194,8.2194,8.2194,8.2194,8.2194,8.2194,8.2194,8.2194,8.2194,8.2194,8.2194,8.2194,8.2194,8.2194,8.2194,8.2194,8.2194,4.9011,4.9011,4.9221,4.9973,5.0109,4.9973,4.9526,4.8755,4.7977,4.7327,4.7353,4.7556,0.0,0.0,0.0,0.0,0.0,0.0,0.0,0.0,4.7116,4.638,4.5635,4.5365,4.5696,4.4973,4.4608,4.4608,4.5785,4.6346,4.6346,4.7083,4.8655,5.0797,5.0336,0.0,5.2085,0.0,0.0,0.0,0.0,0.0,0.0,5.8798,6.096,6.182,6.3521,6.413,6.4096,0.0,6.2821,0.0,0.0,0.0,0.0,0.0,0.0,0.0,0.0,0.0,0.0,0.0,0.0,0.0,0.0,0.0,5.9183,0.0,0.0,0.0,0.0,0.0,0.0,0.0,0.0,0.0,0.0,0.0,0.0,0.0,0.0,0.0,0.0,0.0,0.0,0.0,0.0,7.8031,7.9706,8.1313,8.2194,8.2194,8.2194,8.2194,8.2194,8.2194,8.2194,8.2194,8.2194,8.2194,8.2194,8.2194,8.2194,8.2194,8.2194,8.2194,8.2194,8.2194,8.2194,8.2194,8.2194,8.2194,8.2194,8.2194,8.2194,8.2194,4.9011,4.9011,4.9187,4.9703,4.9804,4.9627,4.9086,4.8071,4.7394,0.0,0.0,0.0,4.8496,4.907,0.0,0.0,0.0,4.9773,0.0,0.0,4.8563,4.8037,0.0,0.0,0.0,4.5473,4.4804,4.4608,4.609,4.6887,4.7124,4.8063,4.9755,5.1953,5.1082,5.2037,5.4169,0.0,0.0,5.4126,5.378,5.5133,5.7688,6.0868,6.2821,6.3893,6.4647,6.4884,6.4884,6.4681,6.3531,0.0,6.3632,0.0,0.0,0.0,0.0,0.0,5.8084,0.0,0.0,0.0,0.0,0.0,0.0,0.0,0.0,0.0,0.0,0.0,0.0,0.0,0.0,0.0,0.0,0.0,0.0,0.0,0.0,0.0,0.0,0.0,0.0,0.0,0.0,0.0,0.0,0.0,7.9669,8.1313,8.2194,8.2194,8.2194,8.2194,8.2194,8.2194,8.2194,8.2194,8.2194,8.2194,8.2194,8.2194,8.2194,8.2194,8.2194,8.2194,8.2194,8.2194,8.2194,8.2194,8.2194,8.2194,8.2194,8.2194,8.2194,8.2194,4.9011,4.9011,4.9018,4.9044,4.9052,4.9018,4.9011,4.8943,0.0,0.0,0.0,0.0,0.0,0.0,0.0,0.0,0.0,5.4524,5.23,0.0,5.1066,0.0,0.0,0.0,0.0,4.6778,4.5331,4.4608,4.609,4.7158,4.7887,4.9357,5.0473,5.1269,5.1919,5.2706,5.3585,5.4194,5.6122,5.8844,5.9539,6.1603,6.4072,0.0,6.2685,6.4647,6.5402,0.0,0.0,6.485,6.4546,0.0,0.0,0.0,0.0,0.0,0.0,0.0,0.0,0.0,0.0,5.9182,0.0,0.0,0.0,0.0,6.0283,0.0,0.0,0.0,0.0,0.0,0.0,0.0,0.0,0.0,0.0,0.0,0.0,0.0,0.0,0.0,0.0,0.0,0.0,0.0,0.0,0.0,7.9596,8.1313,8.2194,8.2194,8.2194,8.2194,8.2194,8.2194,8.2194,8.2194,8.2194,8.2194,8.2194,8.2194,8.2194,8.2194,8.2194,8.2194,8.2194,8.2194,8.2194,8.2194,8.2194,8.2194,8.2194,8.2194,8.2194,8.2194,4.9635,4.9323,4.9154,4.9635,4.9323,4.8841,0.0,4.951,0.0,0.0,0.0,0.0,0.0,0.0,5.3687,0.0,0.0,5.4634,5.3864,5.3145,0.0,0.0,0.0,4.9466,0.0,0.0,4.7522,4.6778,4.8248,4.8857,4.8638,4.9635,5.0752,5.1953,5.2198,5.3822,0.0,0.0,0.0,0.0,0.0,6.2685,6.3236,0.0,0.0,6.5425,6.617,6.644,0.0,6.6125,6.5415,6.4681,6.5155,6.4309,6.3236,6.37,6.3541,0.0,0.0,0.0,6.2685,6.096,0.0,0.0,0.0,0.0,0.0,0.0,0.0,0.0,0.0,0.0,0.0,0.0,0.0,0.0,0.0,0.0,0.0,0.0,0.0,0.0,0.0,0.0,0.0,0.0,0.0,0.0,0.0,8.0836,8.1636,8.2194,8.2194,8.2194,8.2194,8.2194,8.2194,8.2194,8.2194,8.2194,8.2194,8.2194,8.2194,8.2194,8.2194,8.2194,8.2194,8.2194,8.2194,8.2194,8.2194,8.2194,8.2194,8.2194,8.2194,8.2194,5.0405,5.0101,4.9924,5.0405,4.9864,0.0,0.0,0.0,0.0,0.0,5.2697,0.0,5.4507,0.0,5.4456,0.0,5.5243,5.5285,5.5006,5.4558,0.0,5.4287,5.2367,0.0,0.0,0.0,0.0,4.8672,4.9627,5.0007,4.9789,5.0549,5.1522,5.2697,5.2156,5.4296,5.822,5.7205,5.8998,0.0,0.0,6.413,0.0,0.0,6.5595,6.5087,0.0,6.6802,6.6802,6.6802,6.6159,6.555,6.6497,6.5483,6.414,6.5111,6.4715,6.3903,6.3642,6.4285,0.0,6.3226,6.3396,0.0,6.111,0.0,0.0,0.0,0.0,0.0,0.0,0.0,0.0,0.0,0.0,0.0,0.0,0.0,0.0,0.0,0.0,0.0,0.0,0.0,0.0,0.0,0.0,0.0,0.0,0.0,8.1379,8.2158,8.2194,8.2194,8.2194,8.2194,8.2194,8.2194,8.2194,8.2194,8.2194,8.2194,8.2194,8.2194,8.2194,8.2194,8.2194,8.2194,8.2194,8.2194,8.2194,8.2194,8.2194,8.2194,8.2194,8.2194,5.1235,5.1302,5.1302,0.0,5.071,0.0,0.0,0.0,5.2401,0.0,5.4355,5.5505,5.4846,5.5369,5.58,5.58,5.6452,0.0,5.5834,5.5767,0.0,0.0,5.4456,5.4025,5.4812,0.0,0.0,0.0,5.0278,5.0574,5.1235,5.1987,5.2739,5.3374,5.1911,5.4143,5.8912,5.75,5.9945,6.4783,6.5469,6.6102,6.6667,6.6768,0.0,6.3781,6.6024,6.6802,6.6802,6.6802,6.6802,6.6802,6.6802,6.6836,6.6869,6.6869,6.6859,6.6768,6.6079,6.5876,6.5842,6.5774,0.0,0.0,0.0,0.0,6.3646,0.0,0.0,0.0,0.0,0.0,0.0,0.0,0.0,0.0,0.0,0.0,0.0,0.0,0.0,0.0,0.0,0.0,0.0,0.0,0.0,0.0,0.0,0.0,8.1195,8.2158,8.2194,8.2194,8.2194,8.2194,8.2194,8.2194,8.2194,8.2194,8.2194,8.2194,8.2194,8.2194,8.2194,8.2194,8.2194,8.2194,8.2194,8.2194,8.2194,8.2194,8.2194,8.2194,8.2194,8.2194,5.1919,5.2494,5.2731,0.0,5.2367,5.2063,0.0,0.0,0.0,0.0,5.5133,5.6664,5.7011,5.7214,5.7349,5.7349,5.7518,0.0,0.0,0.0,0.0,5.8109,5.6756,5.6553,5.7839,5.5708,0.0,5.3424,0.0,5.2122,5.1235,5.2562,5.2968,5.2604,5.219,5.4625,5.8979,5.8616,6.1458,6.6261,6.643,6.5652,0.0,0.0,6.5449,6.3781,6.6024,6.6802,6.6802,6.6802,6.6802,6.6802,6.6802,6.7174,6.7624,6.7624,6.803,6.847,6.8267,6.8233,6.7963,6.6802,6.6779,6.6576,0.0,0.0,0.0,0.0,0.0,0.0,0.0,0.0,0.0,0.0,0.0,0.0,0.0,0.0,0.0,0.0,0.0,0.0,0.0,0.0,0.0,0.0,0.0,0.0,0.0,0.0,0.0,8.2084,8.2194,8.2194,8.2194,8.2194,8.2194,8.2194,8.2194,8.2194,8.2194,8.2194,8.2194,8.2194,8.2194,8.2194,8.2194,8.2194,8.2194,8.2194,8.2194,8.2194,8.2194,8.2194,8.2194,8.2194,5.2731,0.0,0.0,5.3323,0.0,0.0,5.1826,0.0,0.0,5.4033,5.5919,0.0,5.7857,5.8466,5.8872,5.8872,5.8872,0.0,0.0,0.0,0.0,5.8979,5.8515,5.8626,5.9462,5.7931,0.0,5.5547,0.0,5.3678,5.2216,5.3103,5.3069,5.23,5.23,5.4253,5.7694,5.9994,6.2844,6.5889,6.6531,0.0,0.0,6.6328,6.6227,6.5584,6.6836,6.7072,6.6869,6.7174,6.7275,6.7343,6.7681,6.8098,6.8436,6.8436,6.8741,6.918,6.9485,6.9586,6.9451,6.8899,6.9068,6.8899,6.7015,6.7208,6.7692,0.0,0.0,0.0,0.0,0.0,0.0,0.0,0.0,0.0,0.0,0.0,0.0,0.0,0.0,0.0,0.0,0.0,0.0,0.0,0.0,0.0,0.0,0.0,0.0,8.2084,8.1534,8.1497,8.2194,8.1497,8.1497,8.2194,8.2194,8.2194,8.2194,8.2194,8.2194,8.2194,8.2194,8.2194,8.2194,8.2194,8.2194,8.2194,8.2194,8.2194,8.2194,8.2194,8.2194,8.2194,0.0,0.0,0.0,0.0,0.0,0.0,0.0,5.4575,0.0,5.4913,0.0,5.8195,5.8195,5.9336,6.0114,6.0114,0.0,5.9844,5.9191,5.9733,5.9877,5.9327,5.9902,6.0317,6.0385,5.9564,0.0,0.0,0.0,5.4964,5.3509,5.3509,5.3069,5.23,5.2401,5.3881,5.6578,6.1448,6.4028,6.5009,6.6294,6.6869,6.6937,6.6937,6.7421,6.8064,6.8064,6.7658,6.7208,6.7827,6.8064,6.8166,6.8876,6.918,6.9248,6.9248,6.9316,6.9519,7.0161,7.0342,7.0511,7.1131,7.13,7.0996,6.9789,6.9451,6.9417,6.9519,6.8392,0.0,0.0,0.0,0.0,0.0,0.0,0.0,0.0,0.0,0.0,0.0,0.0,0.0,0.0,0.0,0.0,0.0,0.0,0.0,0.0,0.0,0.0,8.2084,8.0836,0.0,8.1864,0.0,8.0689,8.1901,8.2084,8.2194,8.2194,8.2194,8.2194,8.2194,8.2194,8.2194,8.2194,8.2194,8.2194,8.2194,8.2194,8.2194,8.2194,8.2194,8.2194,8.2194,0.0,0.0,0.0,0.0,0.0,5.7079,5.6325,5.6842,5.7112,5.6494,5.8355,0.0,5.9708,5.9945,6.0114,6.0114,6.0114,0.0,0.0,0.0,0.0,6.0883,6.1028,6.1366,6.1985,6.0622,5.9462,0.0,0.0,5.4964,5.3509,5.3509,5.3069,5.2334,5.2976,5.5539,5.9496,6.2293,0.0,6.643,6.67,6.7174,6.7692,6.7692,6.8199,6.8876,6.8876,6.8808,6.8707,6.8842,6.8876,6.891,6.9045,6.9519,7.0003,7.0003,7.0432,7.0928,7.1064,7.1097,7.1131,7.1267,7.13,7.1402,7.1751,7.1334,7.1097,7.1718,7.1131,7.0117,6.873,0.0,0.0,0.0,0.0,0.0,0.0,0.0,0.0,0.0,0.0,0.0,0.0,0.0,0.0,0.0,0.0,0.0,0.0,0.0,0.0,0.0,8.1937,0.0,0.0,0.0,8.124,8.0257,8.157,8.2194,8.2194,8.2194,8.2194,8.2194,8.2194,8.2194,8.2194,8.2194,8.2194,8.2194,8.2194,8.2194,8.2194,8.2194,8.2194,8.2194,0.0,0.0,0.0,0.0,0.0,0.0,0.0,5.9167,0.0,5.8075,5.9191,6.0114,6.0114,6.0791,6.1308,6.1308,6.1308,6.1308,6.1308,6.1308,6.1467,6.1839,6.1873,0.0,6.2391,6.168,6.0554,5.9013,0.0,5.6443,5.4625,5.4262,5.3856,5.356,5.4702,5.6596,5.9176,0.0,0.0,6.6305,6.7039,6.7827,6.8504,6.8504,6.9011,6.9665,6.9665,6.9925,7.0184,6.9789,6.9665,6.9733,7.0117,7.0489,7.077,7.077,7.103,7.13,7.13,7.1571,7.1875,7.1875,7.2157,7.2529,7.2868,7.271,7.2529,7.2913,7.2699,7.165,6.9011,6.6992,0.0,0.0,0.0,0.0,0.0,0.0,0.0,0.0,0.0,0.0,0.0,0.0,0.0,0.0,0.0,0.0,0.0,0.0,0.0,0.0,0.0,0.0,0.0,0.0,0.0,8.1056,8.1827,8.2194,8.2194,8.2194,8.2194,8.2194,8.2194,8.2194,8.2194,8.2194,8.2194,8.2194,8.2194,8.2194,8.2194,8.2194,8.2194,8.2194,0.0,5.5886,0.0,0.0,5.8398,0.0,5.9945,6.0926,6.1028,5.9665,6.0139,6.0588,6.0588,6.168,6.2391,6.2391,6.2391,6.2391,6.2391,6.256,6.2618,6.2618,6.2797,6.2864,6.2864,6.2864,6.1907,0.0,0.0,0.0,5.6375,5.5344,5.5015,5.5353,5.6697,0.0,0.0,0.0,6.4681,6.6282,6.7624,6.8639,6.9316,6.9316,6.9789,7.0432,7.0432,7.0804,7.1199,7.0635,7.0432,7.0545,7.1131,7.13,7.13,7.13,7.1402,7.1537,7.1537,7.209,7.2631,7.2631,7.3082,7.3556,7.3691,7.3624,7.3556,7.3691,7.3624,7.2609,6.9654,6.803,0.0,0.0,0.0,0.0,0.0,0.0,0.0,0.0,0.0,0.0,0.0,0.0,0.0,0.0,0.0,0.0,0.0,0.0,0.0,0.0,0.0,7.9992,8.0901,0.0,8.0763,0.0,8.2048,8.2194,8.2194,8.2194,8.2194,8.2194,8.2194,8.2194,8.2194,8.2194,8.2194,8.2194,8.2194,8.2194,8.2194,8.2194,8.2194,8.2194,0.0,0.0,0.0,0.0,0.0,0.0,0.0,6.1332,6.2018,6.1187,6.1738,6.2188,6.2188,6.2323,6.2391,6.2391,6.2391,6.2391,6.2391,6.3024,6.3386,6.3386,6.4038,6.4377,6.4377,6.4377,6.3961,0.0,0.0,0.0,5.8641,5.6578,5.6325,5.7629,0.0,0.0,0.0,6.4062,6.573,6.776,6.8639,6.9417,7.0105,7.0105,7.0534,7.1199,7.1199,7.1233,7.13,7.1233,7.1199,7.1199,7.13,7.13,7.13,7.13,7.1774,7.2293,7.2293,7.2845,7.3387,7.3387,7.3454,7.3691,7.4345,7.3984,7.3691,7.4345,7.395,7.2609,6.9654,7.0567,7.0195,0.0,0.0,0.0,0.0,0.0,0.0,0.0,0.0,0.0,0.0,0.0,0.0,0.0,6.9318,0.0,0.0,0.0,0.0,7.7538,0.0,7.8038,7.668,8.0204,0.0,8.0036,8.1497,8.2194,8.2194,8.2194,8.2194,8.2194,8.2194,8.2194,8.2194,8.2194,8.2194,8.2194,8.2194,8.2194,8.2194,8.2194,8.2194,8.2194,0.0,0.0,0.0,0.0,0.0,0.0,0.0,6.2675,6.3115,6.326,6.3159,6.3226,6.3666,6.37,6.37,6.37,6.37,6.37,6.37,6.4005,6.4164,6.4164,6.4444,6.4613,6.4613,6.4613,6.4241,0.0,0.0,0.0,0.0,5.8989,5.866,0.0,0.0,6.3463,6.4299,6.6406,6.8064,6.9327,6.9631,7.0195,7.0872,7.0872,7.103,7.13,7.13,7.13,7.13,7.13,7.13,7.13,7.13,7.1605,7.1943,7.1943,7.2462,7.3048,7.3048,7.3578,7.4153,7.4153,7.4492,7.4897,7.5202,7.5033,7.4897,7.5202,7.4661,7.3815,7.2631,7.1312,7.0161,0.0,0.0,0.0,0.0,0.0,0.0,0.0,0.0,0.0,0.0,0.0,0.0,0.0,0.0,0.0,0.0,0.0,0.0,7.4397,0.0,7.9735,7.7635,8.0653,8.1864,8.124,8.1901,8.2194,8.2194,8.2194,8.2194,8.2194,8.2194,8.2194,8.2194,8.2194,8.2194,8.2194,8.2194,8.2194,8.2194,8.2194,8.2194,8.2194,5.9098,0.0,6.0429,0.0,6.1794,6.2371,6.3622,6.3825,6.4096,6.4816,6.4478,6.4265,6.458,6.4613,6.4613,6.4613,6.4613,6.4613,6.4613,6.4783,6.4918,6.4918,6.5121,0.0,6.5256,6.5256,6.4975,6.4458,6.3497,0.0,0.0,6.1467,6.1332,0.0,6.4749,6.6,6.6068,6.8436,6.9733,7.0206,7.0443,7.0838,7.13,7.13,7.13,7.13,7.13,7.1436,7.1605,7.1605,7.1774,7.1921,7.1672,7.2124,7.2732,7.2732,7.324,7.3815,7.3815,7.4356,7.492,7.492,7.5303,7.5709,7.5709,7.5709,7.5709,7.5709,7.5303,7.4852,7.4649,7.245,7.0939,7.165,0.0,0.0,0.0,0.0,0.0,0.0,0.0,0.0,0.0,0.0,0.0,0.0,0.0,0.0,0.0,0.0,0.0,0.0,0.0,0.0,0.0,8.0983,8.2194,8.2194,8.2194,8.2194,8.2194,8.2194,8.2194,8.2194,8.2194,8.2194,8.2194,8.2194,8.2194,8.2194,8.2194,8.2194,8.2194,8.2194,8.2194,8.2194,6.0437,6.0739,6.1381,6.2916,6.3347,6.3724,6.4478,6.458,6.485,6.5571,6.5672,6.5402,6.4681,6.4613,6.4613,6.4613,6.4613,6.4613,6.4613,6.5266,6.5683,0.0,0.0,6.6768,6.6768,6.6768,6.6768,6.6768,0.0,0.0,6.4546,6.3792,6.4241,6.5672,6.644,6.7614,6.9113,6.9868,7.0206,7.0274,7.0996,7.13,7.13,7.13,7.13,7.13,7.13,7.1774,7.2394,7.2394,7.2868,7.3353,7.2631,7.2868,7.3488,7.3488,7.4018,7.4581,7.4581,7.5122,7.5676,7.5676,7.5676,7.5709,7.5709,7.5709,7.5709,7.5709,7.5676,7.5473,7.4717,7.4547,7.3612,7.0714,0.0,0.0,0.0,0.0,0.0,0.0,6.458,6.3125,6.7489,0.0,0.0,0.0,0.0,0.0,0.0,0.0,0.0,7.7171,7.8141,0.0,7.8589,8.0983,8.2194,8.2194,8.2194,8.2194,8.2194,8.2194,8.2194,8.2194,8.2194,8.2194,8.2194,8.2194,8.2194,8.2194,8.2194,8.2194,8.2194,8.2194,8.2194,8.2194,6.1652,6.207,6.2514,6.3487,6.3997,6.4512,6.5233,6.5368,6.5595,6.6328,6.643,6.6362,6.6125,6.6092,6.6092,0.0,6.6092,6.6092,0.0,6.6328,6.643,6.643,6.6667,6.6802,6.6802,6.6802,6.6802,6.6802,0.0,0.0,0.0,6.5855,6.6565,6.803,6.8774,6.9113,6.9147,6.9902,7.0206,7.0206,7.0477,7.1142,7.2056,7.2056,7.236,7.28,7.28,7.2947,7.315,7.315,7.3646,7.4221,7.3972,7.4052,7.4255,7.4255,7.4762,7.5337,7.5337,7.5506,7.5709,7.5709,7.5709,7.5709,7.5709,7.5709,7.5709,7.5709,7.5709,7.5642,7.5405,7.4931,7.4277,7.3341,7.3387,0.0,0.0,0.0,0.0,0.0,0.0,6.9417,0.0,0.0,0.0,0.0,0.0,0.0,0.0,0.0,0.0,0.0,7.8736,0.0,7.8626,8.0983,8.2194,8.2194,8.2194,8.2194,8.2194,8.2194,8.2194,8.2194,8.2194,8.2194,8.2194,8.2194,8.2194,8.2194,8.2194,8.2194,8.2194,8.2194,8.2121,8.203,6.2567,6.2978,6.3357,6.4166,6.4541,6.506,6.598,6.6039,6.6177,6.6724,6.6802,6.6802,6.6802,6.6802,0.0,6.6802,6.6802,6.6802,6.6802,6.6802,6.6802,6.6802,6.6802,6.6802,6.6802,0.0,0.0,6.6802,6.6609,6.6745,6.7208,6.7512,6.8189,6.9113,6.9586,6.9688,6.9553,7.0003,7.0375,7.0635,7.0906,7.1594,7.2428,7.2699,7.3116,7.3488,7.3488,7.3691,7.3916,7.3916,7.439,7.5021,7.5021,7.5021,7.5021,7.5021,7.5337,7.5709,7.5709,7.5709,7.5709,7.5709,7.5709,7.5709,7.5709,7.5709,7.5709,7.5709,7.5709,7.5709,7.5709,7.5337,7.5021,7.5021,7.4627,7.4503,7.4965,0.0,0.0,0.0,0.0,0.0,0.0,7.0526,0.0,0.0,0.0,0.0,0.0,0.0,0.0,7.6764,8.0178,0.0,7.9984,8.146,8.2194,8.2194,8.2194,8.2194,8.2194,8.2194,8.2194,8.2194,8.2194,8.2194,8.2194,8.2194,8.2194,8.2186,8.2121,8.2096,8.2088,8.1985,8.1885,8.181,6.3227,6.3532,0.0,0.0,6.508,0.0,6.6584,6.6635,6.6592,6.6749,6.6791,6.6802,6.6802,6.6802,6.6802,6.6802,0.0,0.0,0.0,6.6802,6.6802,6.6802,6.6802,6.6802,6.6802,6.6802,6.6836,6.6869,6.7624,6.7996,6.8064,6.8774,6.9113,6.918,6.918,6.953,7.0139,7.024,7.0669,7.1357,7.209,7.2462,7.2631,7.3319,7.3624,7.3657,7.3657,7.4086,7.4683,7.4683,7.5122,7.5709,7.5709,7.5709,7.5709,7.5709,7.5709,7.5709,7.5709,7.5709,7.5709,7.5709,7.5709,7.5709,7.5709,7.5709,7.5709,7.5709,7.5709,7.5709,7.5709,7.5709,7.5709,7.5709,7.5709,7.5709,7.5709,0.0,0.0,0.0,0.0,0.0,0.0,6.9957,7.135,0.0,0.0,0.0,0.0,0.0,7.695,8.1722,8.2055,8.2154,8.217,8.217,8.2178,8.2194,8.2194,8.2194,8.2194,8.2178,8.217,8.217,8.2162,8.2154,8.2154,8.2154,8.2154,8.2137,8.1935,8.1877,8.1852,8.1683,8.1579,8.157,0.0,0.0,6.468,6.5456,6.5916,6.6154,6.6235,6.6537,6.6675,6.6592,6.6686,6.6802,6.6802,6.6802,6.6802,6.6802,6.6802,6.6802,6.6802,6.6802,6.6802,6.6802,6.6802,6.6802,6.6802,6.6802,6.7072,6.7658,6.8436,6.9113,6.9665,6.9282,6.9383,6.9936,6.9936,6.9733,6.9417,7.0567,7.1131,7.1357,7.209,7.3071,7.4108,7.4277,7.4695,7.518,7.518,7.527,7.5439,7.5439,7.5574,7.5709,7.5709,7.5709,7.5709,7.5709,7.5709,7.5709,7.5709,7.5709,7.5709,7.5709,7.5709,7.5709,7.5709,7.5709,7.5709,7.5709,7.5709,7.5709,7.5709,7.5709,7.5709,7.5709,7.5709,7.5709,7.5709,7.5067,0.0,0.0,7.3668,7.3578,7.3578,7.4002,7.4223,0.0,0.0,0.0,0.0,7.7076,7.8453,8.1574,8.1598,8.172,8.1952,8.196,8.2063,8.2194,8.2194,8.2194,8.2186,8.2055,8.196,8.1952,8.181,8.1751,8.1751,8.1751,8.1751,8.1751,8.17,8.1655,8.1683,8.1604,8.1538,8.1443,6.473,6.4939,6.5193,6.5702,6.59,6.6053,6.6259,6.6312,6.6409,6.6624,6.6667,6.6686,6.6791,6.6802,6.6802,6.6802,6.6802,6.6802,6.6802,6.6802,6.6802,6.6802,6.7106,6.7309,6.7309,6.7647,6.8064,6.8436,6.8876,6.9316,6.9699,6.962,6.9631,6.9733,7.0398,7.05,7.0184,7.1334,7.1988,7.236,7.3105,7.3871,7.4649,7.4953,7.5337,7.5709,7.5709,7.5709,7.5709,7.5709,7.5709,7.5709,7.5709,7.5709,7.5709,7.5709,7.5709,7.5709,7.5709,7.5709,7.5709,7.5709,7.5709,7.5709,7.5709,7.5709,7.5709,7.5709,7.5709,7.5709,7.5709,7.5709,7.5709,7.5709,7.5709,7.5709,7.5709,7.5371,0.0,7.51,7.51,7.51,7.51,7.5229,7.5252,7.5171,0.0,0.0,7.7782,7.8774,7.9996,8.1459,8.1486,8.1572,8.1768,8.1768,8.1818,8.1919,8.1919,8.1919,8.191,8.1818,8.1768,8.1768,8.1666,8.1587,8.1587,8.1587,8.1587,8.1579,8.1529,8.1504,8.1495,8.14,8.134,8.127,6.5282,6.5414,6.5481,6.5692,6.5581,6.5658,6.6249,6.6108,6.6096,6.6633,6.6624,6.6613,6.6781,6.6802,6.6802,6.6802,6.6802,6.6802,6.6802,6.6903,6.6903,6.6802,6.7512,6.7895,6.7895,6.8808,6.9214,6.9113,6.9214,6.9282,6.9282,6.98,6.9823,6.9485,7.0725,7.1368,7.1537,7.2383,7.3071,7.3725,7.448,7.4784,7.4818,7.5473,7.5709,7.5709,7.5709,7.5709,7.5709,7.5709,7.5709,7.5709,7.5709,7.5709,7.5709,7.5709,7.5709,7.5709,7.5709,7.5709,7.5709,7.5709,7.5709,7.5709,7.5709,7.5709,7.5709,7.5709,7.5709,7.5709,7.5709,7.5709,7.5574,7.527,7.5473,7.5574,7.5236,0.0,7.5709,7.5709,7.5709,7.5709,7.5709,7.5122,7.5351,7.677,7.7141,7.7947,0.0,8.0417,8.1047,8.134,8.146,8.1555,8.1581,8.157,8.1587,8.1587,8.1587,8.1587,8.1587,8.1598,8.1581,8.1581,8.1555,8.1538,8.1538,8.1538,8.1538,8.1521,8.141,8.1349,8.1322,8.1146,8.1119,8.1119,6.5381,6.5414,6.5425,6.5459,6.5614,6.5692,6.5592,6.602,6.6368,6.6214,6.6537,6.676,6.6791,6.6802,6.6802,6.6802,6.6802,6.6802,6.6802,6.7377,6.7444,6.6836,6.7512,6.7895,6.7895,6.9293,6.9733,6.9113,6.9733,7.0037,7.0003,6.9519,6.9891,7.0962,7.1199,7.1639,7.2326,7.3668,7.4311,7.448,7.5236,7.554,7.554,7.5676,7.5709,7.5709,7.5709,7.5709,7.5709,7.5709,7.5709,7.5709,7.5709,7.5709,7.5709,7.5709,7.5709,7.5709,7.5709,7.5709,7.5709,7.5709,7.5709,7.5709,7.5709,7.5709,7.5709,7.5709,7.5709,7.5709,7.5709,7.5709,7.51,7.3206,7.4492,7.5033,7.3172,0.0,7.5709,7.5709,7.5709,7.5709,7.5709,7.5608,7.5633,7.5901,7.6656,7.7585,7.8565,7.9513,8.0352,8.111,8.1155,8.1261,8.1436,8.1547,8.1587,8.1587,8.1587,8.1587,8.1587,8.1469,8.1436,8.1427,8.1252,8.1172,8.1172,8.1172,8.1172,8.1172,8.1137,8.1164,8.1128,8.1092,8.1119,8.1119,6.5414,6.5414,6.5414,6.5414,6.5503,6.5592,6.5614,6.5889,6.6184,6.6291,6.6495,6.6665,6.6791,6.6802,6.6802,6.6802,6.6802,6.6802,6.6802,6.7106,6.7343,6.7377,6.8132,6.891,6.9711,7.0432,7.0432,6.9699,7.0037,7.0206,7.0206,7.0263,7.0861,7.1921,7.2721,7.3262,7.368,7.4728,7.5202,7.5236,7.5574,7.5709,7.5709,7.5709,7.5709,7.5709,7.5709,7.5709,7.5709,7.5709,7.5709,7.5709,7.5709,7.5709,7.5709,7.5709,7.5709,7.5709,7.5709,7.5709,7.5709,7.5709,7.5709,7.5709,7.5709,7.5709,7.5709,7.5709,7.5709,7.5709,7.5709,7.5709,7.5371,7.4356,7.5033,0.0,7.4322,7.5067,7.5709,7.5709,7.5709,7.5709,7.5709,7.5709,7.5709,7.5709,7.6576,7.7471,7.8367,7.9279,8.0211,8.1056,8.1119,8.1128,8.1226,8.1305,8.1312,8.1312,8.1312,8.1312,8.1349,8.127,8.1226,8.1226,8.1128,8.1119,8.1119,8.1119,8.1119,8.1119,8.1119,8.1119,8.1119,8.1119,8.1119,8.1119,6.5414,6.5414,6.5414,6.5414,6.5414,6.547,6.567,6.5747,6.5911,6.6292,6.6389,6.6507,6.6696,6.6717,6.6739,6.6791,6.6749,6.6717,6.6717,6.6717,6.702,6.7624,6.8571,6.962,7.0759,7.112,7.0861,6.9936,7.0308,7.0477,7.0477,7.1199,7.2045,7.2969,7.4074,7.4683,7.4886,7.5473,7.5709,7.5709,7.5709,7.5709,7.5709,7.5709,7.5709,7.5709,7.5709,7.5709,7.5709,7.5709,7.5709,7.5709,7.5709,7.5709,7.5709,7.5709,7.5709,7.5709,7.5709,7.5709,7.5709,7.5709,7.5709,7.5709,7.5709,7.5709,7.5709,7.5709,7.5709,7.5709,7.5709,7.5709,7.554,7.5033,0.0,7.5506,7.4999,7.5371,7.5709,7.5709,7.5709,7.5709,7.5709,7.5709,7.5709,7.5709,7.6358,7.724,7.8357,7.9089,7.9975,8.1056,8.1119,8.1119,8.1119,8.1119,8.1119,8.1119,8.1119,8.1119,8.1119,8.1119,8.1119,8.1119,8.1119,8.1119,8.1119,8.1119,8.1119,8.1119,8.1119,8.1119,8.1119,8.1119,8.1119,8.1119,6.5414,6.5414,6.5414,6.5414,6.5414,6.5414,6.5437,6.5636,6.5802,6.5835,6.5998,6.6248,6.6496,6.6518,6.6603,6.6781,6.6645,6.6518,6.6518,6.6518,6.6613,6.6859,6.8301,6.9147,6.9248,7.059,7.059,6.918,7.0556,7.1233,7.1233,7.1977,7.3071,7.4446,7.4547,7.4987,7.5608,7.5676,7.5709,7.5709,7.5709,7.5709,7.5709,7.5709,7.5709,7.5709,7.5709,7.5709,7.5709,7.5709,7.5709,7.5709,7.5709,7.5709,7.5709,7.5709,7.5709,7.5709,7.5709,7.5709,7.5709,7.5709,7.5709,7.5709,7.5709,7.5709,7.5709,7.5709,7.5709,7.5709,7.5709,7.5709,7.5033,7.2969,0.0,0.0,7.2935,7.4424,7.5709,7.5709,7.5709,7.5709,7.5709,7.5709,7.5709,7.5709,7.5747,7.6565,7.8325,7.8482,7.9309,8.1029,8.1119,8.1119,8.1119,8.1119,8.1119,8.1119,8.1119,8.1119,8.1119,8.1119,8.1119,8.1119,8.1119,8.1119,8.1119,8.1119,8.1119,8.1119,8.1119,8.1119,8.1119,8.1119,8.1119,8.1119,6.5414,6.5414,6.5414,6.5414,6.5414,6.5414,6.5414,6.5625,6.5791,6.5791,6.5999,6.6139,6.6248,6.6259,6.6291,6.6343,6.6312,6.6259,6.6259,6.6259,6.6568,6.7265,6.8167,6.8864,6.9334,6.9906,7.013,6.9973,7.1141,7.1963,7.2457,7.3328,7.4311,7.527,7.527,7.5439,7.5709,7.5709,7.5709,7.5709,7.5709,7.5709,7.5709,7.5709,7.5709,7.5709,7.5709,7.5709,7.5709,7.5709,7.5709,7.5709,7.5709,7.5709,7.5709,7.5709,7.5709,7.5709,7.5709,7.5709,7.5709,7.5709,7.5709,7.5709,7.5709,7.5709,7.5709,7.5709,7.5709,7.5709,7.5709,7.5709,7.5405,7.4593,0.0,7.5405,7.4559,7.5168,7.5709,7.5709,7.5709,7.5709,7.5709,7.5709,7.5709,7.5709,7.5709,7.6253,7.7526,7.8662,7.9815,8.1047,8.1119,8.1119,8.1119,8.1119,8.1119,8.1119,8.1119,8.1119,8.1119,8.1119,8.1119,8.1119,8.1119,8.1119,8.1119,8.1119,8.1119,8.1119,8.1119,8.1119,8.1119,8.1119,8.1119,8.1119,6.5414,6.5414,6.5414,6.5414,6.5414,6.5414,6.5414,6.5559,6.567,6.567,6.5779,6.5911,6.5987,6.5998,6.602,6.6095,6.603,6.5998,6.5998,6.6155,6.6588,6.7431,6.8037,6.8629,6.912,6.979,7.0281,7.0492,7.1978,7.2935,7.3474,7.4464,7.5236,7.5709,7.5709,7.5709,7.5709,7.5709,7.5709,7.5709,7.5709,7.5709,7.5709,7.5709,7.5709,7.5709,7.5709,7.5709,7.5709,7.5709,7.5709,7.5709,7.5709,7.5709,7.5709,7.5709,7.5709,7.5709,7.5709,7.5709,7.5709,7.5709,7.5709,7.5709,7.5709,7.5709,7.5709,7.5709,7.5709,7.5709,7.5709,7.5709,7.5709,7.5709,7.5709,7.5709,7.5709,7.5709,7.5709,7.5709,7.5709,7.5709,7.5709,7.5709,7.5709,7.5709,7.5709,7.6219,7.7427,7.8948,8.0211,8.1056,8.1119,8.1119,8.1119,8.1119,8.1119,8.1119,8.1119,8.1119,8.1119,8.1119,8.1119,8.1119,8.1119,8.1119,8.1119,8.1119,8.1119,8.1119,8.1119,8.1119,8.1119,8.1119,8.1119,8.1119,6.5414,6.5414,6.5414,6.5414,6.5414,6.5414,6.5414,6.5414,6.5414,6.5414,6.5414,6.5503,6.5758,6.5791,6.5878,6.6085,6.5922,6.578,6.5824,6.6245,6.6711,6.7201,6.7904,6.8305,6.8305,7.0481,7.125,7.0526,7.2974,7.4214,7.4226,7.5218,7.5709,7.5709,7.5709,7.5709,7.5709,7.5709,7.5709,7.5709,7.5709,7.5709,7.5709,7.5709,7.5709,7.5709,7.5709,7.5709,7.5709,7.5709,7.5709,7.5709,7.5709,7.5709,7.5709,7.5709,7.5709,7.5709,7.5709,7.5709,7.5709,7.5709,7.5709,7.5709,7.5709,7.5709,7.5709,7.5709,7.5709,7.5709,7.5709,7.5709,7.5709,7.5709,7.5709,7.5709,7.5709,7.5709,7.5709,7.5709,7.5709,7.5709,7.5709,7.5709,7.5709,7.5709,7.5709,7.6485,7.8315,7.9269,8.0201,8.1056,8.1119,8.1119,8.1119,8.1119,8.1119,8.1119,8.1119,8.1119,8.1119,8.1119,8.1119,8.1119,8.1119,8.1119,8.1119,8.1119,8.1119,8.1119,8.1119,8.1119,8.1119,8.1119,8.1119,8.1119,6.5414,6.5414,6.5414,6.5414,6.5414,6.5414,6.5414,6.5414,6.5414,6.5414,6.5414,6.5437,6.5514,6.5526,6.5548,6.5592,6.557,6.5758,6.6255,6.6409,6.7028,6.8184,6.8461,6.8827,6.9347,7.051,7.1507,7.2325,7.342,7.4253,7.478,7.5417,7.5709,7.5709,7.5709,7.5709,7.5709,7.5709,7.5709,7.5709,7.5709,7.5709,7.5709,7.5709,7.5709,7.5709,7.5709,7.5709,7.5709,7.5709,7.5709,7.5709,7.5709,7.5709,7.5709,7.5709,7.5709,7.5709,7.5709,7.5709,7.5709,7.5709,7.5709,7.5709,7.5709,7.5709,7.5709,7.5709,7.5709,7.5709,7.5709,7.5709,7.5709,7.5709,7.5709,7.5709,7.5709,7.5709,7.5709,7.5709,7.5709,7.5709,7.5709,7.5709,7.5709,7.5709,7.5709,7.6485,7.8315,7.8668,7.9507,8.1038,8.1119,8.1119,8.1119,8.1119,8.1119,8.1119,8.1119,8.1119,8.1119,8.1119,8.1119,8.1119,8.1119,8.1119,8.1119,8.1119,8.1119,8.1119,8.1119,8.1119,8.1119,8.1119,8.1119,8.1119,6.5414,6.5414,6.5414,6.5414,6.5414,6.5414,6.5414,6.5414,6.5414,6.5414,6.5414,6.5414,6.5414,6.5414,6.5414,6.5414,6.5679,6.6132,6.6893,6.7468,6.8196,6.9114,6.9964,7.0361,7.0229,7.1256,7.2216,7.3098,7.3942,7.4545,7.5005,7.5482,7.5709,7.5709,7.5709,7.5709,7.5709,7.5709,7.5709,7.5709,7.5709,7.5709,7.5709,7.5709,7.5709,7.5709,7.5709,7.5709,7.5709,7.5709,7.5709,7.5709,7.5709,7.5709,7.5709,7.5709,7.5709,7.5709,7.5709,7.5709,7.5709,7.5709,7.5709,7.5709,7.5709,7.5709,7.5709,7.5709,7.5709,7.5709,7.5709,7.5709,7.5709,7.5709,7.5709,7.5709,7.5709,7.5709,7.5709,7.5709,7.5709,7.5709,7.5709,7.5709,7.5709,7.5709,7.6042,7.6725,7.784,7.8554,7.9438,8.052,8.0921,8.1119,8.1119,8.1119,8.1119,8.1119,8.1119,8.1119,8.1119,8.1119,8.1119,8.1119,8.1119,8.1119,8.1119,8.1119,8.1119,8.1119,8.1119,8.1119,8.1119,8.1119,8.1119,8.1119,6.5414,6.5414,6.5414,6.5414,6.5414,6.5414,6.5414,6.5414,6.5414,6.5414,6.5414,6.5414,6.5414,6.5481,6.5514,6.5514,6.6242,6.6993,6.7754,6.9136,6.9976,7.0108,7.2051,7.2502,7.1223,7.2515,7.321,7.321,7.44,7.4993,7.5005,7.5482,7.5709,7.5709,7.5709,7.5709,7.5709,7.5709,7.5709,7.5709,7.5709,7.5709,7.5709,7.5709,7.5709,7.5709,7.5709,7.5709,7.5709,7.5709,7.5709,7.5709,7.5709,7.5709,7.5709,7.5709,7.5709,7.5709,7.5709,7.5709,7.5709,7.5709,7.5709,7.5709,7.5709,7.5709,7.5709,7.5709,7.5709,7.5709,7.5709,7.5709,7.5709,7.5709,7.5709,7.5709,7.5709,7.5709,7.5709,7.5709,7.5709,7.5709,7.5709,7.5709,7.5709,7.5709,7.6576,7.7085,7.7085,7.8795,7.9766,7.9721,8.0675,8.1228,8.1228,8.1264,8.1228,8.1119,8.1119,8.1119,8.1119,8.1156,8.1228,8.1228,8.1228,8.1228,8.1192,8.1119,8.1119,8.1119,8.1119,8.1119,8.1119,8.1119,8.1119,8.1119,6.5414,6.5414,6.5414,6.5414,6.5414,6.5414,6.5414,6.5414,6.5414,6.5414,6.5414,6.5414,6.5414,6.59,6.6264,6.6264,6.7468,6.8539,6.9268,7.0163,7.1189,7.2349,7.2833,7.321,7.3467,7.3799,7.3964,7.3964,7.4667,7.4993,7.5005,7.5482,7.5709,7.5709,7.5709,7.5709,7.5709,7.5709,7.5709,7.5709,7.5709,7.5709,7.5709,7.5709,7.5709,7.5709,7.5709,7.5709,7.5709,7.5709,7.5709,7.5709,7.5709,7.5709,7.5709,7.5709,7.5709,7.5709,7.5709,7.5709,7.5709,7.5709,7.5709,7.5709,7.5709,7.5709,7.5709,7.5709,7.5709,7.5709,7.5709,7.5709,7.5709,7.5709,7.5709,7.5709,7.5709,7.5709,7.5709,7.5709,7.5709,7.5709,7.5709,7.5709,7.5709,7.5709,7.6576,7.7085,7.7085,7.876,7.9757,7.9766,8.1243,8.2043,8.2043,8.2659,8.236,8.1119,8.1119,8.1119,8.1119,8.1744,8.2043,8.2043,8.2043,8.2043,8.2007,8.1373,8.1119,8.1119,8.1119,8.1119,8.1119,8.1119,8.1119,8.1119,6.5414,6.5414,6.5414,6.5414,6.5414,6.5414,6.5414,6.5414,6.5414,6.5414,6.5414,6.5536,6.5911,6.6264,6.6926,6.7965,6.9103,7.0063,7.0792,7.1554,7.227,7.3065,7.3442,7.3819,7.4196,7.4196,7.4196,7.4196,7.461,7.4796,7.4808,7.5289,7.5518,7.553,7.565,7.5709,7.5709,7.5709,7.5709,7.5709,7.5709,7.5709,7.5709,7.5709,7.5709,7.5709,7.5709,7.5709,7.5709,7.5709,7.5709,7.5709,7.5709,7.5709,7.5709,7.5709,7.5709,7.5709,7.5709,7.5709,7.5709,7.5709,7.5709,7.5709,7.5709,7.5709,7.5709,7.5709,7.5709,7.5709,7.5709,7.5709,7.5709,7.5709,7.5709,7.5709,7.5709,7.5709,7.5709,7.5709,7.5709,7.5709,7.5709,7.5709,7.5709,7.5709,7.6576,7.7055,7.6997,7.8325,7.9235,7.9564,8.0908,8.1804,8.2191,8.3081,8.3093,8.2251,8.2251,8.2251,8.2251,8.2695,8.2885,8.2885,8.2885,8.2885,8.2849,8.2432,8.2034,8.1672,8.1672,8.1454,8.1119,8.1119,8.1119,8.1119,6.5414,6.5414,6.5414,6.5414,6.5414,6.5414,6.5414,6.5414,6.5414,6.5414,6.5414,6.5745,6.6595,6.7037,6.8031,6.9997,7.0858,7.1554,7.215,7.2879,7.3276,7.3276,7.3852,7.4196,7.4196,7.4196,7.4196,7.4196,7.446,7.4618,7.4618,7.5067,7.5252,7.5252,7.5482,7.559,7.559,7.5626,7.5638,7.565,7.5697,7.5709,7.5709,7.5709,7.5709,7.5709,7.5709,7.5709,7.5709,7.5709,7.5709,7.5709,7.5709,7.5709,7.5709,7.5709,7.5709,7.5709,7.5709,7.5709,7.5709,7.5709,7.5709,7.5709,7.5709,7.5709,7.5709,7.5709,7.5709,7.5709,7.5709,7.5709,7.5709,7.5709,7.5709,7.5709,7.5709,7.5709,7.5709,7.5709,7.5709,7.5709,7.5709,7.5709,7.5709,7.5709,7.6576,7.7034,7.6908,7.7982,7.8804,7.927,8.0615,8.1602,8.227,8.3379,8.389,8.389,8.389,8.3782,8.3492,8.3637,8.3709,8.3709,8.3709,8.3709,8.3673,8.3573,8.3093,8.2487,8.2342,8.1898,8.1301,8.1156,8.1119,8.1119,6.5414,6.5414,6.5414,6.5414,6.5414,6.5414,6.5414,6.5414,6.5414,6.5414,6.5414,6.59,6.7291,6.9157,7.0693,7.162,7.2382,7.2833,7.2933,7.3653,7.4064,7.4064,7.413,7.4196,7.4196,7.4196,7.4196,7.4196,7.446,7.4618,7.4618,7.4895,7.5042,7.5042,7.5079,7.5103,7.5115,7.5277,7.5361,7.5385,7.5614,7.5709,7.5709,7.5709,7.5709,7.5709,7.5709,7.5709,7.5709,7.5709,7.5709,7.5709,7.5709,7.5709,7.5709,7.5709,7.5709,7.5709,7.5709,7.5709,7.5709,7.5709,7.5709,7.5709,7.5709,7.5709,7.5709,7.5709,7.5709,7.5709,7.5709,7.5709,7.5709,7.5709,7.5709,7.5709,7.5709,7.5709,7.5709,7.5709,7.5709,7.5709,7.5709,7.5709,7.5709,7.5709,7.6576,7.7034,7.6908,7.8445,7.933,7.9304,8.1627,8.2948,8.3055,8.4739,8.5593,8.5593,8.5593,8.4868,8.3528,8.4216,8.4542,8.4542,8.4542,8.4542,8.447,8.3782,8.3428,8.3284,8.2559,8.2233,8.2043,8.1373,8.1119,8.1119,6.5414,6.5414,6.5414,6.5414,6.5414,6.5414,6.5414,6.5414,6.5414,6.5414,6.5414,6.611,6.8009,7.056,7.227,7.2581,7.3276,7.372,7.372,7.403,7.4196,7.4196,7.4196,7.4196,7.4196,7.4196,7.4196,7.4196,7.431,7.4372,7.4372,7.4647,7.4771,7.4771,7.4919,7.4993,7.5005,7.5103,7.5192,7.5313,7.5434,7.5578,7.5709,7.5709,7.5709,7.5709,7.5709,7.5709,7.5709,7.5709,7.5709,7.5709,7.5709,7.5709,7.5709,7.5709,7.5709,7.5709,7.5709,7.5709,7.5709,7.5709,7.5709,7.5709,7.5709,7.5709,7.5709,7.5709,7.5709,7.5709,7.5709,7.5709,7.5709,7.5709,7.5709,7.5709,7.5709,7.5709,7.5709,7.5709,7.5709,7.5709,7.5709,7.5709,7.5879,7.6352,7.6769,7.7327,7.809,7.8479,7.9024,7.9768,8.1042,8.191,8.2319,8.414,8.5067,8.5077,8.5618,8.552,8.4868,8.523,8.5366,8.5366,8.5366,8.5366,8.533,8.4977,8.4578,8.4108,8.3274,8.2405,8.1599,8.1228,8.1119,8.1119]},{"header":{"parameterUnit":"m.s-1","parameterCategory":1,"la1":30.6,"la2":28.766,"lo1":-90.7593,"lo2":-88.6598,"dx":0.0162,"dy":0.0183,"nx":116,"ny":114,"refTime":"2022-11-12T06:00:00:Z","depth":0,"parameterNumber":3,"parameterNumberName":"V-component_of_WINDS"},"data":[0.0,0.0,0.0,0.0,0.0,0.0,0.0,0.0,0.0,0.0,0.0,0.0,0.0,0.0,0.0,0.0,0.0,0.0,0.0,0.0,0.0,0.0,0.0,0.0,0.0,0.0,0.0,0.0,0.0,0.0,0.0,0.0,0.0,0.0,0.0,0.0,0.0,0.0,0.0,0.0,0.0,0.0,0.0,0.0,0.0,0.0,0.0,0.0,0.0,0.0,0.0,0.0,0.0,0.0,0.0,0.0,0.0,0.0,0.0,0.0,0.0,0.0,0.0,0.0,0.0,0.0,0.0,0.0,0.0,0.0,0.0,0.0,0.0,0.0,0.0,0.0,0.0,0.0,0.0,0.0,0.0,0.0,0.0,0.0,0.0,0.0,0.0,0.0,0.0,0.0,0.0,0.0,0.0,0.0,0.0,0.0,0.0,0.0,0.0,0.0,0.0,0.0,0.0,0.0,0.0,0.0,0.0,0.0,0.0,0.0,0.0,0.0,0.0,0.0,0.0,0.0,0.0,0.0,0.0,0.0,0.0,0.0,0.0,0.0,0.0,0.0,0.0,0.0,0.0,0.0,0.0,0.0,0.0,0.0,0.0,0.0,0.0,0.0,0.0,0.0,0.0,0.0,0.0,0.0,0.0,0.0,0.0,0.0,0.0,0.0,0.0,0.0,0.0,0.0,0.0,0.0,0.0,0.0,0.0,0.0,0.0,0.0,0.0,0.0,0.0,0.0,0.0,0.0,0.0,0.0,0.0,0.0,0.0,0.0,0.0,0.0,0.0,0.0,0.0,0.0,0.0,0.0,0.0,0.0,0.0,0.0,0.0,0.0,0.0,0.0,0.0,0.0,0.0,0.0,0.0,0.0,0.0,0.0,0.0,0.0,0.0,0.0,0.0,0.0,0.0,0.0,0.0,0.0,0.0,0.0,0.0,0.0,0.0,0.0,0.0,0.0,0.0,0.0,0.0,0.0,0.0,0.0,0.0,0.0,0.0,0.0,0.0,0.0,0.0,0.0,0.0,0.0,0.0,0.0,0.0,0.0,0.0,0.0,0.0,0.0,0.0,0.0,0.0,0.0,0.0,0.0,0.0,0.0,0.0,0.0,0.0,0.0,0.0,0.0,0.0,0.0,0.0,0.0,0.0,0.0,0.0,0.0,0.0,0.0,0.0,0.0,0.0,0.0,0.0,0.0,0.0,0.0,0.0,0.0,0.0,0.0,0.0,0.0,0.0,0.0,0.0,0.0,0.0,0.0,0.0,0.0,0.0,0.0,0.0,0.0,0.0,0.0,0.0,0.0,0.0,0.0,0.0,0.0,0.0,0.0,0.0,0.0,0.0,0.0,0.0,0.0,0.0,0.0,0.0,0.0,0.0,0.0,0.0,0.0,0.0,0.0,0.0,0.0,0.0,0.0,0.0,0.0,0.0,0.0,0.0,0.0,0.0,0.0,0.0,0.0,0.0,0.0,0.0,0.0,0.0,0.0,0.0,0.0,0.0,0.0,0.0,0.0,0.0,0.0,0.0,0.0,0.0,0.0,0.0,0.0,0.0,0.0,0.0,0.0,0.0,0.0,0.0,0.0,0.0,0.0,0.0,0.0,0.0,0.0,0.0,0.0,0.0,0.0,0.0,0.0,0.0,0.0,0.0,0.0,0.0,0.0,0.0,0.0,0.0,0.0,0.0,0.0,0.0,0.0,0.0,0.0,0.0,0.0,0.0,0.0,0.0,0.0,0.0,0.0,0.0,0.0,0.0,0.0,0.0,0.0,0.0,0.0,0.0,0.0,0.0,0.0,0.0,0.0,0.0,0.0,0.0,0.0,0.0,0.0,0.0,0.0,0.0,0.0,0.0,0.0,0.0,0.0,0.0,0.0,0.0,0.0,0.0,0.0,0.0,0.0,0.0,0.0,0.0,0.0,0.0,0.0,0.0,0.0,0.0,0.0,0.0,0.0,0.0,0.0,0.0,0.0,0.0,0.0,0.0,0.0,0.0,0.0,0.0,0.0,0.0,0.0,0.0,0.0,0.0,0.0,0.0,0.0,0.0,0.0,0.0,0.0,0.0,0.0,0.0,0.0,0.0,0.0,0.0,0.0,0.0,0.0,0.0,0.0,0.0,0.0,0.0,0.0,0.0,0.0,0.0,0.0,0.0,0.0,0.0,0.0,0.0,0.0,0.0,0.0,0.0,0.0,0.0,0.0,0.0,0.0,0.0,0.0,0.0,0.0,0.0,0.0,0.0,0.0,0.0,0.0,0.0,0.0,0.0,0.0,0.0,0.0,0.0,0.0,0.0,0.0,0.0,0.0,0.0,0.0,0.0,0.0,0.0,0.0,0.0,0.0,0.0,0.0,0.0,0.0,0.0,0.0,0.0,0.0,0.0,0.0,0.0,0.0,0.0,0.0,0.0,0.0,0.0,0.0,0.0,0.0,0.0,0.0,0.0,0.0,0.0,0.0,0.0,0.0,0.0,0.0,0.0,0.0,0.0,0.0,0.0,0.0,0.0,0.0,0.0,0.0,0.0,0.0,0.0,0.0,0.0,0.0,0.0,0.0,0.0,0.0,0.0,0.0,0.0,0.0,0.0,0.0,0.0,0.0,0.0,0.0,0.0,0.0,0.0,0.0,0.0,0.0,0.0,0.0,0.0,0.0,0.0,0.0,0.0,0.0,0.0,0.0,0.0,0.0,0.0,0.0,0.0,0.0,0.0,0.0,0.0,0.0,0.0,0.0,0.0,0.0,0.0,0.0,0.0,0.0,0.0,0.0,0.0,0.0,0.0,0.0,0.0,0.0,0.0,0.0,0.0,0.0,0.0,0.0,0.0,0.0,0.0,0.0,0.0,0.0,0.0,0.0,0.0,0.0,0.0,0.0,0.0,0.0,0.0,0.0,0.0,0.0,0.0,0.0,0.0,0.0,0.0,0.0,0.0,0.0,0.0,0.0,0.0,0.0,0.0,0.0,0.0,0.0,0.0,0.0,0.0,0.0,0.0,0.0,0.0,0.0,0.0,0.0,0.0,0.0,0.0,0.0,0.0,0.0,0.0,0.0,0.0,0.0,0.0,0.0,0.0,0.0,0.0,0.0,0.0,0.0,0.0,0.0,0.0,0.0,0.0,0.0,0.0,0.0,0.0,0.0,0.0,0.0,0.0,0.0,0.0,0.0,0.0,0.0,0.0,0.0,0.0,0.0,0.0,0.0,0.0,0.0,0.0,0.0,0.0,0.0,0.0,0.0,0.0,0.0,0.0,0.0,0.0,0.0,0.0,0.0,0.0,0.0,0.0,0.0,0.0,0.0,0.0,0.0,0.0,0.0,0.0,0.0,0.0,0.0,0.0,0.0,0.0,0.0,0.0,0.0,0.0,0.0,0.0,0.0,0.0,0.0,0.0,0.0,0.0,0.0,0.0,0.0,0.0,0.0,0.0,0.0,0.0,0.0,0.0,0.0,0.0,0.0,0.0,0.0,0.0,0.0,0.0,0.0,0.0,0.0,0.0,0.0,0.0,0.0,0.0,0.0,0.0,0.0,0.0,0.0,0.0,0.0,0.0,0.0,0.0,0.0,0.0,0.0,0.0,0.0,0.0,0.0,0.0,0.0,0.0,0.0,0.0,0.0,0.0,0.0,0.0,0.0,0.0,0.0,0.0,0.0,0.0,0.0,0.0,0.0,0.0,0.0,0.0,0.0,0.0,0.0,0.0,0.0,0.0,0.0,0.0,0.0,0.0,0.0,0.0,0.0,0.0,0.0,0.0,0.0,0.0,0.0,0.0,0.0,0.0,0.0,0.0,0.0,0.0,0.0,0.0,0.0,0.0,0.0,0.0,0.0,0.0,0.0,0.0,0.0,0.0,0.0,0.0,0.0,0.0,0.0,0.0,0.0,0.0,0.0,0.0,0.0,0.0,0.0,0.0,0.0,0.0,0.0,0.0,0.0,0.0,0.0,0.0,0.0,0.0,0.0,0.0,0.0,0.0,0.0,0.0,0.0,0.0,0.0,0.0,0.0,0.0,0.0,0.0,0.0,0.0,0.0,0.0,0.0,0.0,0.0,0.0,0.0,0.0,0.0,0.0,0.0,0.0,0.0,0.0,0.0,0.0,0.0,0.0,0.0,0.0,0.0,0.0,0.0,0.0,0.0,0.0,0.0,0.0,0.0,0.0,0.0,0.0,0.0,0.0,0.0,0.0,0.0,0.0,0.0,0.0,0.0,0.0,0.0,0.0,0.0,0.0,0.0,0.0,0.0,0.0,0.0,0.0,0.0,0.0,0.0,0.0,0.0,0.0,0.0,0.0,0.0,0.0,0.0,0.0,0.0,0.0,0.0,0.0,0.0,0.0,0.0,0.0,0.0,0.0,0.0,0.0,0.0,0.0,0.0,0.0,0.0,0.0,0.0,0.0,0.0,0.0,0.0,0.0,0.0,0.0,0.0,0.0,0.0,0.0,0.0,0.0,0.0,0.0,0.0,0.0,0.0,0.0,0.0,0.0,0.0,0.0,0.0,0.0,0.0,0.0,0.0,0.0,0.0,0.0,0.0,0.0,0.0,0.0,0.0,0.0,0.0,0.0,0.0,0.0,0.0,0.0,0.0,0.0,0.0,0.0,0.0,0.0,0.0,0.0,0.0,0.0,0.0,0.0,0.0,0.0,0.0,0.0,0.0,0.0,0.0,0.0,0.0,0.0,0.0,0.0,0.0,0.0,0.0,0.0,0.0,0.0,0.0,0.0,0.0,0.0,0.0,0.0,0.0,0.0,0.0,0.0,0.0,0.0,0.0,0.0,0.0,0.0,0.0,0.0,0.0,0.0,0.0,0.0,0.0,0.0,0.0,0.0,0.0,0.0,0.0,0.0,0.0,0.0,0.0,0.0,0.0,0.0,0.0,0.0,0.0,0.0,0.0,0.0,0.0,0.0,0.0,0.0,0.0,0.0,0.0,0.0,0.0,0.0,0.0,0.0,0.0,0.0,0.0,0.0,0.0,0.0,0.0,0.0,0.0,0.0,0.0,0.0,0.0,0.0,0.0,0.0,0.0,0.0,0.0,0.0,0.0,0.0,0.0,0.0,0.0,0.0,0.0,0.0,0.0,0.0,0.0,0.0,0.0,0.0,0.0,0.0,0.0,0.0,0.0,0.0,0.0,0.0,0.0,0.0,0.0,0.0,0.0,0.0,0.0,0.0,0.0,0.0,0.0,0.0,0.0,0.0,0.0,0.0,0.0,0.0,0.0,0.0,0.0,0.0,0.0,0.0,0.0,0.0,0.0,0.0,0.0,0.0,0.0,0.0,0.0,0.0,0.0,0.0,0.0,0.0,0.0,0.0,0.0,0.0,0.0,0.0,0.0,0.0,0.0,0.0,0.0,0.0,0.0,0.0,0.0,0.0,0.0,0.0,0.0,0.0,0.0,0.0,0.0,0.0,0.0,0.0,0.0,0.0,0.0,0.0,0.0,0.0,0.0,0.0,0.0,0.0,0.0,0.0,0.0,0.0,0.0,0.0,0.0,0.0,0.0,0.0,0.0,0.0,0.0,0.0,0.0,0.0,0.0,0.0,0.0,0.0,0.0,0.0,0.0,0.0,0.0,0.0,0.0,0.0,0.0,0.0,0.0,0.0,0.0,0.0,0.0,0.0,0.0,0.0,0.0,0.0,0.0,0.0,0.0,0.0,0.0,0.0,0.0,0.0,0.0,0.0,0.0,0.0,0.0,0.0,0.0,0.0,0.0,0.0,0.0,0.0,0.0,0.0,0.0,0.0,0.0,0.0,0.0,0.0,0.0,0.0,0.0,0.0,0.0,0.0,0.0,0.0,0.0,0.0,0.0,0.0,0.0,0.0,0.0,0.0,0.0,0.0,0.0,0.0,0.0,0.0,0.0,0.0,0.0,0.0,0.0,0.0,0.0,0.0,0.0,0.0,0.0,0.0,0.0,0.0,0.0,0.0,0.0,0.0,0.0,0.0,0.0,0.0,0.0,0.0,0.0,0.0,0.0,0.0,0.0,0.0,0.0,0.0,0.0,0.0,0.0,0.0,0.0,0.0,0.0,0.0,0.0,0.0,0.0,0.0,0.0,0.0,0.0,0.0,0.0,0.0,0.0,0.0,0.0,0.8926,0.0,0.0,0.0,0.0,0.0,0.0,0.0,0.0,0.0,0.0,0.0,0.0,0.0,0.0,0.0,0.0,0.0,0.0,0.0,0.0,0.0,0.0,0.0,0.0,1.2814,1.3049,1.319,1.3313,0.0,0.0,0.0,0.0,0.0,0.0,0.0,1.3002,1.3035,1.3167,1.3443,1.3747,1.4111,1.4531,1.4349,1.4282,1.4282,0.0,0.0,0.0,0.0,0.0,0.0,0.0,0.0,0.0,0.0,0.0,0.0,0.0,0.0,0.0,0.0,0.0,0.0,0.0,0.0,0.0,0.0,0.0,0.0,0.0,0.0,0.0,0.0,0.0,0.0,0.0,0.0,0.0,0.0,0.0,0.0,0.0,0.0,0.0,0.0,0.0,0.0,0.0,0.0,0.0,0.0,0.0,0.0,0.0,0.0,0.0,0.0,0.0,0.0,0.0,0.0,0.0,0.0,0.0,0.0,0.0,0.0,0.0,0.0,0.0,0.0,0.0,0.0,0.0,0.0,0.0,0.9279,0.0,0.0,0.0,0.0,0.0,0.0,0.0,0.0,0.0,0.0,0.0,0.0,0.0,0.0,0.0,0.0,0.0,0.0,0.0,0.0,0.0,1.1895,1.277,1.3156,1.34,1.3497,1.3724,1.3727,1.3433,1.343,0.0,0.0,0.0,0.0,1.336,1.3376,1.3562,1.393,1.4196,1.4611,1.5133,1.5091,1.4921,1.4645,1.4386,0.0,0.0,0.0,0.0,0.0,0.0,0.0,0.0,0.0,0.0,0.0,0.0,0.0,0.0,0.0,0.0,0.0,0.0,0.0,0.0,0.0,0.0,0.0,0.0,0.0,0.0,0.0,0.0,0.0,0.0,0.0,0.0,0.0,0.0,0.0,0.0,0.0,0.0,0.0,0.0,0.0,0.0,0.0,0.0,0.0,0.0,0.0,0.0,0.0,0.0,0.0,0.0,0.0,0.0,0.0,0.0,0.0,0.0,0.0,0.0,0.0,0.0,0.0,0.9538,0.962,0.9727,0.9727,0.9847,1.0035,0.97,0.9627,0.9734,0.0,0.0,0.0,0.0,0.0,0.0,0.0,0.0,0.0,0.0,0.0,0.0,0.0,0.0,0.0,0.0,0.0,0.0,0.0,0.0,1.2438,1.308,1.3651,1.4186,1.4729,1.4796,1.4691,1.4341,1.4327,0.0,0.0,0.0,1.4218,1.3985,1.4043,1.4318,1.4821,1.5097,1.5391,1.5688,1.5458,1.5324,1.5271,1.4999,1.4863,1.4772,0.0,0.0,0.0,0.0,0.0,0.0,0.0,0.0,0.0,0.0,0.0,0.0,0.0,0.0,0.0,0.0,0.0,0.0,0.0,0.0,0.0,0.0,0.0,0.0,0.0,0.0,0.0,0.0,0.0,0.0,0.0,0.0,0.0,0.0,0.0,0.0,0.0,0.0,0.0,0.0,0.0,0.8267,0.8267,0.0,0.0,0.0,0.0,0.0,0.0,0.0,0.0,0.0,0.0,0.0,0.0,0.0,0.0,0.9578,0.9685,0.9798,0.9918,1.01,1.019,1.0211,1.0211,1.0231,1.0265,1.0204,0.0,1.0211,1.0224,0.0,0.0,0.0,0.0,0.0,0.0,0.0,0.0,0.0,0.0,0.0,0.0,0.0,0.0,0.0,0.0,0.0,0.0,0.0,0.0,0.0,1.3871,1.4429,1.4707,1.5028,1.5106,1.4801,1.4774,0.0,0.0,1.464,1.4732,1.4611,1.4641,1.4839,1.5215,1.5382,1.5569,1.5808,1.5675,1.562,1.562,1.5499,1.5282,1.4984,1.4729,0.0,0.0,0.0,0.0,0.0,0.0,0.0,0.0,0.0,0.0,0.0,0.0,0.0,0.0,0.0,0.0,0.0,0.0,0.0,0.0,0.0,0.0,0.0,0.0,0.0,0.0,0.0,0.0,0.0,0.0,0.0,0.0,0.0,0.0,0.0,0.0,0.0,0.0,0.0,0.8241,0.8328,0.8403,0.8417,0.8437,0.0,0.0,0.0,0.0,0.0,0.0,0.0,0.0,0.0,0.9618,0.9632,0.9741,0.9985,1.0046,1.0051,0.9999,1.0089,1.0195,1.0299,1.0299,1.0387,1.0511,1.0511,1.0511,1.0521,1.0432,1.0415,1.0415,0.0,0.0,0.0,0.0,1.0367,1.0313,0.0,0.0,0.0,0.0,0.0,0.0,0.0,0.0,0.0,0.0,0.0,0.0,1.347,1.4258,1.4765,1.4821,1.5246,1.5391,1.512,1.5093,1.5066,1.4997,1.5064,1.5093,1.5093,1.5173,1.5301,1.5536,1.5654,1.5823,1.6021,1.6021,1.6021,1.6021,1.5967,1.5658,1.52,1.5133,1.4852,1.4426,0.0,0.0,0.0,0.0,0.0,0.0,0.0,0.0,0.0,0.0,0.0,0.0,0.0,0.0,0.0,0.0,0.0,0.0,0.0,0.0,0.0,0.0,0.0,0.0,0.0,0.0,0.0,0.0,0.0,0.0,0.0,0.0,0.0,0.0,0.0,0.0,0.0,0.8362,0.8438,0.854,0.8574,0.8628,0.0,0.0,0.0,0.0,0.0,0.0,0.9504,0.9511,0.9632,0.9915,0.9888,0.999,1.0292,1.0299,1.0243,1.013,1.0154,1.0267,1.0392,1.0392,1.0514,1.0701,1.0701,1.0701,1.0694,1.0595,1.0548,1.0548,1.0548,1.0487,1.0405,1.0514,1.048,1.0426,0.0,0.0,0.0,0.0,0.0,0.0,0.0,0.0,0.0,0.0,0.0,1.376,1.4367,1.499,1.5471,1.5715,1.5768,1.5673,1.5402,1.5378,1.528,1.501,1.5242,1.5378,1.5378,1.5633,1.5794,1.5878,1.6123,1.6405,1.6648,1.6648,1.6648,1.6634,1.6392,1.6072,1.5741,1.5484,1.5351,1.5284,1.4712,0.0,0.0,0.0,0.0,0.0,0.0,0.0,0.0,0.0,0.0,0.0,0.0,0.0,0.0,0.0,0.0,0.0,0.0,0.0,0.0,0.0,0.0,0.0,0.0,0.0,0.0,0.0,0.0,0.0,0.0,0.0,0.0,0.0,0.0,0.0,0.0,0.0,0.0,0.8683,0.8798,0.0,0.0,0.0,0.0,0.9362,0.9389,0.9518,0.9766,0.978,0.9937,1.0265,1.0082,1.0082,1.0292,1.0299,1.036,1.0489,1.0599,1.0674,1.068,1.068,1.0687,1.0701,1.0701,1.0701,1.0701,1.0694,1.0694,1.0694,1.0694,1.0687,1.068,1.0687,1.0687,1.0687,0.0,0.0,0.0,1.1119,1.1134,1.1268,1.1268,1.1516,1.1935,1.2533,1.319,1.376,1.4202,1.4937,1.5444,1.5526,1.5701,1.5768,1.5661,1.5498,1.5362,1.5255,1.5349,1.5484,1.5648,1.5965,1.6129,1.6163,1.6435,1.6607,1.67,1.67,1.67,1.67,1.6593,1.6405,1.6099,1.5793,1.5553,1.5378,1.5164,1.4921,0.0,0.0,0.0,0.0,0.0,0.0,0.0,0.0,0.0,0.0,0.0,0.0,0.0,0.0,0.0,0.0,0.0,0.0,0.0,0.0,0.0,0.0,0.0,0.0,0.0,0.0,0.0,0.0,0.0,0.0,0.0,0.0,0.0,0.0,0.0,0.0,0.0,0.9015,0.9144,0.0,0.0,0.9402,0.951,0.9652,0.9739,0.9888,1.0107,1.0003,1.0035,1.0292,1.0229,1.027,1.0428,1.0514,1.0541,1.051,1.0548,1.0575,1.0575,1.0575,1.0629,1.0701,1.0701,1.0701,1.0701,1.0701,1.0701,1.0701,1.0701,1.0701,1.0701,1.0701,1.0745,1.0833,0.0,1.1801,0.0,1.1092,1.1076,1.1187,1.1371,1.1597,1.2046,1.2952,1.348,1.3978,1.4469,1.5137,1.5526,1.5526,1.57,1.5808,1.5808,1.5553,1.5391,1.5391,1.5391,1.5578,1.5953,1.6191,1.6391,1.6604,1.6779,1.6913,1.7007,1.7007,1.7007,1.6994,1.6913,1.6779,1.6577,1.6152,1.5793,1.5526,1.5526,1.5364,1.5133,0.0,0.0,0.0,0.0,0.0,0.0,0.0,0.0,0.0,0.0,0.0,0.0,0.0,0.0,0.0,0.0,0.0,0.0,0.0,0.0,0.0,0.0,0.0,0.0,0.0,0.0,0.0,0.0,0.0,0.0,0.0,0.0,0.0,0.0,0.0,0.9062,0.924,0.9382,0.947,0.947,0.9624,0.9759,0.98,0.9918,1.0062,1.0195,1.0139,1.0179,1.036,1.0367,1.0415,1.0503,1.0595,1.0595,1.051,1.0548,1.0568,1.0568,1.0568,1.0622,1.0701,1.0701,1.0701,1.0701,1.0701,1.0701,1.0701,1.0701,1.0701,1.0701,1.0701,1.0752,1.084,0.0,1.1623,1.1312,1.1057,1.0792,1.0792,1.1326,1.1419,1.1957,1.3413,1.3897,1.444,1.5309,1.5646,1.5808,1.5808,1.5808,1.5808,1.5795,1.5551,1.5389,1.5389,1.5404,1.5697,1.6284,1.631,1.6604,1.7192,1.7192,1.7313,1.7568,1.7568,1.7568,1.7582,1.7313,1.7206,1.7166,1.6577,1.6126,1.5809,1.5796,1.5635,1.5404,0.0,0.0,0.0,0.0,0.0,0.0,0.0,0.0,0.0,0.0,0.0,0.0,0.0,0.0,0.0,0.0,0.0,0.0,0.0,0.0,0.0,0.0,0.0,0.0,0.0,0.0,0.0,0.0,0.0,0.0,0.0,0.0,0.0,0.8899,0.9083,0.9261,0.9375,0.9523,0.9604,0.9604,0.9846,0.9938,0.982,0.9934,1.0006,1.0019,1.0202,1.036,1.0503,1.051,1.051,1.051,1.0493,1.0517,1.0517,1.0633,1.0701,1.0701,1.0701,1.0701,1.0701,1.0701,1.0701,1.0701,1.0701,1.0701,1.0701,1.0701,1.0701,1.0701,1.0701,1.0708,1.0708,1.1583,1.1459,1.1312,1.1057,1.0937,1.1004,1.1352,1.1766,1.242,1.3467,1.406,1.4645,1.5336,1.5646,1.5808,1.5808,1.5808,1.5715,1.5513,1.5255,1.5106,1.5106,1.5473,1.5873,1.6284,1.6485,1.666,1.6846,1.6846,1.6886,1.6941,1.6941,1.7074,1.73,1.722,1.7206,1.7192,1.7019,1.6657,1.6138,1.59,1.5755,1.5688,0.0,0.0,0.0,0.0,0.0,0.0,0.0,0.0,0.0,0.0,0.0,0.0,0.0,0.0,0.0,0.0,0.0,0.0,0.0,0.0,0.0,0.0,0.0,0.0,0.0,0.0,0.0,0.0,0.0,0.0,0.0,0.0,0.8784,0.8878,0.9238,0.947,0.9402,0.9692,0.9852,0.9759,0.9907,0.9986,0.9945,0.9979,1.0109,1.0342,1.031,1.036,1.0503,1.051,1.051,1.051,1.0602,1.0656,1.064,1.0687,1.0701,1.0701,1.0701,1.0701,1.0701,1.0701,1.0701,1.0701,1.0701,1.0701,1.0701,1.0701,1.0701,1.0701,1.0701,1.0759,1.0867,1.1446,1.1397,1.1312,1.1057,1.1004,1.1089,1.1357,1.1913,1.2656,1.3684,1.4207,1.4767,1.5486,1.5701,1.5755,1.5635,1.5621,1.5513,1.5242,1.5091,1.5093,1.5336,1.5621,1.6007,1.6459,1.662,1.67,1.67,1.67,1.67,1.67,1.67,1.6794,1.6993,1.6993,1.7072,1.7192,1.7059,1.6872,1.6644,1.6191,1.5927,1.5808,1.5808,1.5701,1.5555,1.5473,1.5322,1.5126,1.4865,0.0,0.0,0.0,0.0,0.0,0.0,0.0,0.0,0.0,0.0,0.0,0.0,0.0,0.0,0.0,0.0,0.0,0.0,0.0,0.0,0.0,0.0,0.0,0.0,0.8967,0.9062,0.9035,0.9353,0.9598,0.9571,0.9819,0.9945,0.982,0.9927,0.9999,0.9999,1.0076,1.0206,1.0408,1.0394,1.0421,1.0503,1.0555,1.0588,1.0588,1.066,1.0701,1.0701,1.0701,1.0735,1.0779,1.0779,1.0829,0.0,1.0907,1.0907,1.0907,1.0907,1.0857,0.0,0.0,0.0,0.0,0.0,1.089,1.1033,1.1468,1.1459,1.1379,1.1142,1.107,1.1156,1.1451,1.1988,1.2795,1.3985,1.4389,1.4874,1.5715,1.5808,1.5701,1.5471,1.5418,1.5282,1.501,1.5064,1.5309,1.5781,1.5861,1.6142,1.67,1.67,1.67,1.67,1.67,1.67,1.67,1.67,1.67,1.67,1.67,1.6873,1.7139,1.6873,1.6913,1.7099,1.6604,1.6178,1.5848,1.5809,1.5808,1.5784,1.5606,1.5494,1.541,1.5142,0.0,0.0,0.0,0.0,0.0,0.0,0.0,0.0,0.0,0.0,0.0,0.0,0.0,0.0,0.0,0.0,0.0,0.0,0.0,0.0,0.0,0.0,0.0,0.0,0.9218,0.9483,0.9288,0.9477,0.9658,0.9766,0.9913,0.9945,0.982,0.9947,1.0019,1.0006,1.0195,1.0306,1.0319,0.0,0.0,0.0,0.0,1.0701,1.0701,1.0701,1.0714,1.0711,1.0711,1.0792,1.0924,1.0924,1.1026,1.12,1.12,1.12,1.12,1.12,1.109,1.0921,1.0789,1.0741,1.0775,1.0907,1.1077,1.1227,1.1925,1.1801,1.1797,1.1721,1.1503,1.1499,1.2042,1.2457,1.3122,1.4271,1.4707,1.5135,1.573,1.5808,1.5781,1.5728,1.5513,1.5282,1.501,1.5416,1.5688,1.5808,1.6274,1.6581,1.67,1.67,1.67,1.67,1.67,1.67,1.67,1.67,1.67,1.67,1.67,1.674,1.682,1.7019,1.6979,1.682,1.6953,1.6698,1.6178,1.5901,1.5808,1.5796,1.5761,1.5732,1.5693,1.5479,1.5368,1.5329,1.5329,1.5141,0.0,0.0,0.0,0.0,0.0,0.0,0.0,0.0,0.0,0.0,0.0,0.0,0.0,0.0,0.0,0.0,0.0,0.0,0.0,0.9233,0.9274,0.9376,0.9646,0.9725,0.9732,0.9644,0.9852,0.9945,0.982,1.0073,1.0166,1.0013,1.0195,1.0347,1.0462,1.0496,0.0,1.0653,1.0687,1.0701,1.0701,1.0701,1.0745,1.0857,0.0,0.0,1.1142,1.1142,1.1155,1.12,1.12,1.12,1.12,1.12,1.1179,1.1121,1.0928,1.0958,1.1114,1.1246,1.1321,1.1379,1.296,1.2362,1.185,1.1686,1.1761,1.1948,1.2242,1.2812,1.3454,1.4202,1.4563,1.4921,1.5351,1.5246,1.5101,1.4952,1.483,1.4881,1.5186,1.558,1.5941,1.6247,1.6541,1.67,1.67,1.67,1.67,1.67,1.67,1.67,1.67,1.67,1.6633,1.6499,1.6499,1.6499,1.6512,1.6684,1.6831,1.6953,1.6953,1.6872,1.6698,1.6231,1.5953,1.5808,1.5808,1.5808,1.5784,1.5689,1.5582,1.5511,1.5511,1.5404,1.5321,0.0,0.0,0.0,0.0,0.0,0.0,0.0,0.0,0.0,0.0,0.0,0.0,0.0,0.0,1.0145,0.0,0.0,1.0586,0.9481,0.9954,1.0274,0.9768,0.9759,0.978,0.9712,0.9969,1.0076,0.992,1.0141,1.0292,1.0254,1.0344,1.0469,1.0586,1.0609,1.0626,1.0701,1.0701,1.0725,1.0799,1.0799,1.0874,1.1056,1.1056,1.1131,1.1291,1.1291,1.1339,1.1406,1.1406,1.1406,1.1389,1.1325,1.1339,1.1375,1.1226,1.1212,1.1305,1.1379,1.1443,1.1518,1.3962,1.2982,1.2069,1.1793,1.2149,1.2482,1.2536,1.3143,1.3743,1.4122,1.4365,1.4629,1.497,1.4814,1.4576,1.4293,1.4319,1.4654,1.5351,1.5766,1.6182,1.6687,1.67,1.67,1.67,1.67,1.674,1.6806,1.6847,1.6861,1.6861,1.6861,1.6699,1.6377,1.6377,1.6312,1.6217,1.627,1.659,1.7005,1.686,1.6913,1.7059,1.6644,1.6231,1.59,1.59,1.586,1.5809,1.5827,1.5673,1.5507,1.5559,1.5585,1.5584,1.5645,1.5368,0.0,0.0,0.0,0.0,0.0,0.0,0.0,0.0,0.0,1.0865,1.1866,1.2048,1.1859,1.1296,1.1987,1.2063,1.0302,1.0935,1.1273,1.0167,1.013,1.0137,0.9863,1.0086,1.0186,1.0069,1.0229,1.0387,1.048,1.0521,1.0588,1.0694,1.0701,1.0701,1.0701,1.0735,1.0792,1.0897,1.0941,1.1046,1.124,1.124,1.1305,1.1436,1.1436,1.1504,1.1602,1.1602,1.1602,1.1595,1.1484,1.1511,1.1588,1.1484,1.1436,1.1436,1.1463,1.1552,1.1649,1.4268,1.3571,1.3043,1.3003,1.3056,1.318,1.3423,1.3533,1.381,1.4381,1.4474,1.4629,1.497,1.5175,1.5188,1.493,1.512,1.5309,1.5391,1.6152,1.6621,1.67,1.67,1.67,1.67,1.67,1.6846,1.7139,1.7381,1.7502,1.7502,1.7502,1.7207,1.666,1.666,1.6354,1.5887,1.6178,1.6337,1.6444,1.6939,1.6993,1.678,1.7019,1.6751,1.6231,1.6231,1.6059,1.5812,1.5872,1.572,1.5539,1.5781,1.5858,1.5908,1.6133,1.5557,1.4791,1.4511,0.0,0.0,0.9735,1.0288,1.1021,0.0,0.0,1.3165,1.2492,1.263,1.281,1.2613,1.1887,1.1675,1.2756,1.2135,1.1512,1.1463,1.163,1.131,1.0112,1.0006,1.0089,1.0243,1.0385,1.0473,1.0503,1.0616,1.0687,1.0701,1.0701,1.0701,1.0701,1.0819,1.0877,1.0897,1.1077,1.123,1.1379,1.1379,1.1443,1.1574,1.1574,1.1588,1.1602,1.1602,1.1602,1.1602,1.1581,1.1588,1.1602,1.1581,1.1574,1.1588,1.1717,1.1753,1.1811,1.5358,1.5047,1.4634,1.4015,1.3645,1.3477,1.3586,1.3903,1.4154,1.4245,1.4563,1.4774,1.4721,1.4667,1.46,1.4491,1.4723,1.5086,1.5606,1.6165,1.6539,1.6688,1.6552,1.6539,1.67,1.67,1.694,1.7421,1.7555,1.7595,1.7595,1.7595,1.7288,1.67,1.67,1.6355,1.5808,1.5953,1.6206,1.654,1.6806,1.7034,1.7247,1.7381,1.718,1.6778,1.643,1.6217,0.0,1.6123,1.5845,1.5553,1.5821,1.5695,1.5519,1.5934,1.5557,1.4796,1.399,0.0,0.0,0.0,1.0387,1.0888,1.1726,1.2352,1.3065,1.4199,1.4568,1.4558,1.4158,1.4362,1.4333,0.0,1.305,1.2848,1.3074,1.25,1.2224,1.2674,1.2747,1.2115,1.0575,1.0534,1.0622,1.0622,1.0667,1.0701,1.0701,1.1625,1.1743,1.0836,1.182,1.1986,1.1206,1.1267,1.1369,1.1525,1.1525,1.1558,1.1602,1.1602,1.1602,1.1602,1.1602,1.1602,1.1608,1.1671,1.1723,1.173,1.1843,1.1896,1.187,1.1825,1.1793,1.1832,1.6149,1.6156,1.5981,1.5323,1.4679,1.4138,1.3782,1.4422,1.4747,1.4164,1.4477,1.4691,1.4525,1.4255,1.417,1.433,1.4442,1.4874,1.573,1.6112,1.6419,1.6687,1.6512,1.6499,1.67,1.67,1.6994,1.7595,1.7595,1.7555,1.7488,1.7488,1.718,1.658,1.658,1.6299,1.5808,1.59,1.6192,1.6607,1.678,1.71,1.7501,1.7568,1.7421,1.7139,1.6605,1.6364,1.6285,1.6212,1.5882,1.5528,1.5733,1.5332,1.4872,1.5315,1.5214,1.4711,1.3549,0.0,0.0,1.1482,1.1212,1.1525,1.2783,1.3121,1.3739,1.5706,1.6176,1.6138,1.5781,1.6192,1.6169,1.4878,1.4484,1.44,1.4603,1.3886,1.3673,1.4585,1.4728,1.3952,1.1908,1.1456,1.128,1.128,1.0916,1.0904,1.1354,1.2149,1.2266,1.1614,1.2418,1.2388,1.1406,1.1436,1.1493,1.1602,1.1602,1.1622,1.1662,1.1703,1.1742,1.1742,1.1742,1.1742,1.1748,1.1832,1.1879,1.1904,1.2038,1.2098,1.2091,1.1986,1.1913,1.1893,1.6266,1.6457,1.6786,1.7147,1.6498,1.5499,1.4268,1.5202,1.5586,1.427,1.4129,1.4215,1.4474,1.4255,1.4344,1.4917,1.4683,1.4874,1.573,1.6112,1.6419,1.6687,1.6688,1.6688,1.67,1.67,1.6994,1.7595,1.7595,1.7461,1.7219,1.7219,1.6885,1.631,1.631,1.6112,1.5821,1.6151,1.6297,1.6364,1.6952,1.7192,1.7246,1.7501,1.7421,1.7166,1.682,1.6525,1.626,1.5991,1.5735,1.5504,1.5507,1.4824,1.4058,1.4212,1.442,1.4357,1.315,0.0,1.383,1.3714,1.3543,1.3819,1.5413,1.5981,1.6266,1.6604,1.6877,1.7163,1.7462,1.6279,1.5823,1.7589,1.6776,1.5929,1.5929,1.6235,1.6028,1.4846,1.4803,1.487,0.0,1.353,1.2734,1.2734,1.1472,1.1411,1.3043,1.1745,1.1689,1.3267,1.2104,1.1435,1.1406,1.1538,1.1595,1.1602,1.1602,1.1676,1.1793,1.1998,1.2084,1.2084,1.2084,1.2084,1.2084,1.2091,1.2091,1.2091,1.2098,1.2098,1.2118,1.2242,1.2201,1.2091,1.7342,1.7693,1.7885,1.761,1.8391,1.8181,1.5566,1.5237,1.4935,1.3896,1.4309,0.0,0.0,0.0,0.0,0.0,1.4696,1.4712,1.5229,1.5712,1.6007,1.6102,1.6313,1.6525,1.67,1.67,1.6913,1.7327,1.7327,1.7167,1.6873,1.6873,1.6659,1.631,1.6485,1.6393,1.6151,1.6433,1.6686,1.6912,1.7125,1.73,1.7448,1.7367,1.717,1.687,0.0,1.623,1.6151,1.517,1.4654,1.4318,1.3654,1.2964,1.2418,1.2461,1.2847,1.3273,1.3273,1.3673,1.4081,1.4068,1.4145,1.4419,1.514,1.5374,1.569,1.6535,1.6916,1.7202,1.7546,1.7124,1.7005,1.7872,1.6877,1.6358,1.7387,1.7066,1.6954,1.755,1.6824,0.0,0.0,0.0,0.0,1.2799,1.2531,1.2157,1.1695,1.4257,1.5076,1.3644,1.5182,1.507,1.309,1.3187,1.2754,1.1726,1.1864,1.1957,1.2004,1.2077,1.2098,1.2098,1.2098,1.2098,1.2104,1.2207,1.2228,1.2242,1.2337,1.2371,1.2378,1.2413,1.24,1.2371,1.8285,1.8658,1.8832,1.875,1.9501,0.0,0.0,0.0,0.0,0.0,0.0,0.0,0.0,0.0,0.0,0.0,0.0,1.4576,1.5106,1.5389,1.5606,1.5795,1.5912,1.6058,1.6233,1.6233,1.6445,1.6884,1.6884,1.6765,1.6553,1.666,1.6566,1.631,1.658,1.6607,1.6459,1.6753,1.6927,1.7033,1.7139,1.722,1.7248,1.6971,1.6711,0.0,1.5926,1.5817,1.5665,1.4314,1.3764,1.3417,1.2312,1.1829,1.1624,1.1358,1.2242,1.3416,1.3895,1.4561,1.5083,1.5083,1.5227,1.5421,1.5731,1.5852,1.6131,1.6835,1.7218,1.7521,1.7839,1.7664,1.7662,1.8199,1.7466,1.7208,1.8288,1.7975,1.7978,1.8968,1.8307,1.8102,0.0,0.0,0.0,1.4441,1.3628,1.3234,1.3484,1.5481,1.6231,1.5409,1.6344,1.6201,1.4837,1.4446,1.4026,1.3623,1.3831,1.3917,1.3917,1.396,1.3991,1.3991,1.3991,1.3991,1.3999,1.4097,1.4125,1.4132,1.4214,1.426,1.426,1.426,1.426,1.4087,1.8994,1.9315,1.9608,0.0,0.0,0.0,0.0,0.0,0.0,0.0,0.0,0.0,0.0,0.0,0.0,0.0,0.0,0.0,1.5297,1.5133,1.5229,1.5755,1.5551,1.5416,1.5418,1.5416,1.5683,1.6257,1.627,1.627,1.6284,1.6526,1.6513,1.6284,1.6553,1.6661,1.6687,1.7006,1.6979,1.6727,1.7032,1.6966,1.6663,1.6387,1.6104,1.5844,1.5563,1.53,1.4856,1.3497,1.3003,1.2748,1.1585,1.1504,1.1685,1.0979,1.2585,1.4663,1.489,1.5835,1.6736,1.6736,1.6749,1.6855,1.7172,1.7447,1.7613,1.7539,1.7789,1.8084,0.0,0.0,1.7809,1.8635,1.8513,1.8412,1.8665,1.8931,1.9104,0.0,0.0,0.0,0.0,0.0,0.0,1.7538,0.0,1.4678,1.7921,1.5526,1.5401,1.8335,1.5839,1.5162,1.6616,1.5308,1.5403,1.6931,1.7121,1.7207,1.7216,1.7341,1.7398,1.7398,1.7398,1.7398,1.7398,1.7398,1.7398,1.7398,1.7398,1.7398,1.7398,1.7398,1.7341,1.6827,0.0,0.0,0.0,0.0,0.0,0.0,0.0,0.0,0.0,0.0,0.0,0.0,0.0,0.0,0.0,0.0,0.0,0.0,1.4698,1.4905,1.5146,1.5484,1.5431,1.5486,1.5688,1.5499,1.5483,1.563,1.5832,1.5927,1.5927,1.5995,1.5981,1.594,1.6258,1.6259,1.6048,1.6391,1.6605,1.67,1.6578,1.6605,1.6662,1.6176,1.5849,1.5538,1.508,1.4738,1.4268,1.2671,1.1596,1.1007,1.1377,1.1833,1.2163,1.1785,1.3129,1.4721,1.459,1.5782,1.7067,1.7067,1.7369,1.7687,1.7781,1.8034,1.819,1.7924,1.7931,1.8019,0.0,0.0,0.0,1.8431,1.8551,0.0,1.8689,1.8931,0.0,1.9104,0.0,1.8026,1.9285,1.8184,0.0,0.0,1.789,1.6762,1.6503,1.8027,1.8843,1.8695,1.9098,1.9057,1.8526,1.7183,1.6768,1.7265,1.7312,1.736,1.736,1.7369,1.7398,1.7398,1.7398,1.7398,1.7398,1.7398,1.7398,1.7398,1.7398,1.7398,1.7398,1.7398,1.6617,1.5439,0.0,0.0,0.0,0.0,0.0,0.0,0.0,0.0,0.0,0.0,0.0,0.0,0.0,0.0,0.0,0.0,0.0,0.0,0.0,1.4669,1.4908,1.5202,1.5084,1.5072,1.5234,1.4977,1.5028,1.5391,1.5431,1.5633,1.6019,1.6019,1.6019,1.6032,1.6338,1.6366,1.6207,1.6393,1.6499,0.0,0.0,1.6139,1.6104,1.5582,1.5275,1.5093,1.4665,1.4183,1.3633,1.3091,0.0,1.1077,1.1613,1.2443,1.3254,1.3375,0.0,1.5841,1.5815,1.657,1.7397,1.7529,1.7768,1.8009,1.8009,1.8263,1.8407,1.8062,1.8002,0.0,0.0,0.0,0.0,0.0,0.0,0.0,1.8859,1.9019,1.9136,0.0,1.8582,0.0,1.9578,1.9067,1.9187,0.0,1.9016,1.8071,1.8006,1.9186,1.9857,1.9818,2.0159,2.0061,1.9468,1.9449,1.9476,1.9547,1.9547,1.9547,1.9547,1.9547,1.9547,1.9547,0.0,1.9547,1.9547,1.9547,1.963,1.9734,1.9734,1.9302,1.8713,1.8713,1.7653,1.619,0.0,0.0,0.0,0.0,0.0,0.0,0.0,0.0,0.0,1.3667,1.3951,1.4146,0.0,0.0,0.0,0.0,0.0,0.0,0.0,0.0,1.471,1.5037,1.4696,1.4514,1.4565,1.4255,1.4466,1.5229,1.5026,1.5334,1.6135,1.6135,1.615,1.619,1.642,1.6526,1.6526,1.6489,1.6369,1.6169,1.585,1.561,1.5392,0.0,1.47,1.4664,1.44,1.3841,1.3357,1.4134,1.3458,1.2302,1.2431,1.3492,1.4779,1.526,1.6284,1.7305,1.7543,1.7622,1.7716,1.7996,1.8089,1.8116,1.8076,1.8356,1.8514,1.8196,0.0,1.8121,1.8362,1.8126,1.8052,1.8563,0.0,1.8786,1.9052,1.914,1.9249,1.9467,1.9527,1.966,1.9934,2.0197,2.0525,2.0893,1.9398,1.9163,2.0736,1.9739,1.9751,2.116,2.0283,1.9916,2.0207,2.1648,2.2408,2.2446,2.2408,2.2371,2.2371,2.2315,2.2296,2.2296,0.0,0.0,2.2357,2.2381,2.2538,2.2744,2.2744,2.1943,2.0756,2.0756,1.9651,1.817,0.0,0.0,0.0,0.0,0.0,0.0,0.0,0.0,0.0,0.0,1.4269,1.4349,0.0,0.0,0.0,0.0,0.0,0.0,0.0,0.0,0.0,1.5322,1.4792,1.4629,1.4905,1.4384,1.4172,1.433,1.4509,1.4814,1.5236,1.5236,1.5347,1.5563,1.5605,1.563,1.5606,1.5395,1.543,1.5599,1.5045,1.4965,1.5143,1.4819,0.0,0.0,1.44,1.4352,1.4468,1.4839,1.4451,1.3937,1.4664,1.572,1.6664,1.6484,1.6964,1.753,1.7594,1.7754,1.8009,1.833,1.8583,1.869,1.845,1.8839,0.0,0.0,1.852,1.8349,1.84,1.8126,1.7992,1.8328,1.8563,1.8786,1.9052,1.9298,1.9443,0.0,1.9709,0.0,0.0,0.0,0.0,0.0,0.0,2.1112,2.1437,2.0975,2.1025,2.1734,2.1789,2.1975,2.2359,2.2651,2.2949,2.3209,2.293,2.28,2.2781,2.2446,2.2296,2.2308,2.2526,0.0,2.2654,2.2872,2.2993,2.3029,2.3029,2.286,2.2625,2.2625,2.1566,2.0124,0.0,0.0,0.0,0.0,0.0,0.0,0.0,1.5321,1.446,1.4563,1.479,1.487,1.4598,1.4946,1.5133,0.0,0.0,0.0,0.0,0.0,0.0,1.5186,1.475,1.4578,1.4747,1.4319,0.0,0.0,0.0,1.4819,1.5404,1.5133,1.5146,1.5391,1.5391,1.5484,1.5583,1.536,1.5357,1.545,1.4883,1.4754,1.4868,0.0,0.0,0.0,1.4556,1.4678,1.4947,1.5219,1.5308,1.5405,1.5985,1.6648,1.7207,1.7159,1.7477,1.7809,1.7807,1.8034,1.833,1.8623,1.881,1.8837,1.8557,0.0,0.0,0.0,1.8625,1.8447,1.8624,1.8389,1.8185,1.8282,1.8532,1.8834,1.9249,1.9418,1.96,1.9873,2.003,2.0279,0.0,0.0,0.0,0.0,0.0,2.204,2.1863,2.1635,2.1704,2.2103,2.2441,2.2688,2.2893,2.3079,2.3154,2.3135,2.2986,2.2855,2.2784,2.2596,2.2574,2.2707,2.2859,0.0,2.292,2.3053,2.3167,2.328,2.3522,2.3145,2.2504,2.2721,2.1701,2.0242,0.0,0.0,0.0,0.0,0.0,0.0,1.7787,1.6193,1.5012,1.5073,1.5322,1.5416,1.52,1.5173,1.5173,0.0,0.0,0.0,0.0,0.0,0.0,0.0,0.0,0.0,0.0,0.0,0.0,0.0,0.0,0.0,0.0,0.0,0.0,0.0,1.5391,1.5553,1.5796,1.5594,1.5475,0.0,0.0,1.4664,0.0,0.0,0.0,0.0,0.0,1.4928,1.5158,1.5551,1.5943,1.6377,1.6767,1.7066,1.7313,1.7461,1.7742,1.8022,1.8089,1.8343,1.8651,1.893,1.9011,1.8931,1.8584,1.8771,0.0,0.0,1.8727,1.8622,1.9003,1.8699,1.8405,1.8385,1.8631,1.8978,1.9418,1.9617,1.9835,0.0,2.0413,0.0,2.1252,0.0,0.0,0.0,0.0,0.0,2.231,2.2257,2.2319,2.2527,2.2837,2.3067,2.3242,2.341,2.3435,2.3329,2.3142,2.299,2.2882,2.2825,2.2908,2.3101,2.3143,0.0,0.0,2.3324,2.3482,2.3677,2.4138,2.3615,2.2622,2.2932,2.2178,2.1009,0.0,0.0,0.0,0.0,0.0,0.0,1.7787,1.6354,1.5289,1.5359,1.5593,1.5755,1.5728,1.5728,1.5728,0.0,0.0,0.0,0.0,0.0,0.0,0.0,0.0,0.0,0.0,0.0,0.0,0.0,0.0,0.0,0.0,0.0,0.0,0.0,0.0,0.0,1.5796,1.5594,0.0,0.0,0.0,0.0,0.0,0.0,0.0,0.0,0.0,1.5083,1.522,1.5967,0.0,1.6403,1.6984,1.7341,1.7528,1.73,0.0,0.0,1.837,1.865,1.8944,1.9266,1.9361,1.92,1.8638,0.0,0.0,1.9361,1.9101,1.9001,1.9525,1.895,1.8452,1.8627,1.8943,1.9234,1.9479,1.9968,2.0309,2.0294,0.0,0.0,2.1625,2.2289,0.0,0.0,0.0,0.0,2.2933,2.315,2.3264,2.329,2.3327,2.3677,2.436,2.3952,2.408,2.4699,2.3901,2.3529,2.3516,2.32,2.3077,2.3114,2.3289,0.0,0.0,2.41,2.437,2.4435,2.4853,2.4925,2.4798,2.4851,2.4759,2.4619,0.0,0.0,0.0,0.0,0.0,0.0,1.8085,1.7238,1.6414,1.5677,1.5703,1.5808,1.5808,1.5808,1.5808,1.5808,0.0,0.0,0.0,0.0,0.0,0.0,0.0,0.0,0.0,0.0,0.0,0.0,0.0,0.0,0.0,0.0,0.0,0.0,0.0,0.0,0.0,1.5362,0.0,0.0,0.0,0.0,0.0,0.0,0.0,0.0,0.0,0.0,0.0,0.0,0.0,1.6853,1.6888,1.7113,1.7367,0.0,1.7849,1.837,1.865,1.8971,1.924,1.9361,1.9253,1.8998,1.8584,0.0,1.9158,1.9361,1.9286,1.9361,1.9892,1.9414,1.895,1.8994,1.9284,1.9628,1.9994,2.0257,2.0609,2.1146,2.1381,0.0,0.0,0.0,0.0,0.0,0.0,0.0,2.4247,2.3718,2.3477,2.3693,2.3655,2.3889,2.436,2.4437,2.4488,2.4547,2.4431,2.4347,2.4267,2.4111,2.4153,2.4307,2.44,0.0,0.0,2.4741,2.4851,2.4911,2.5349,2.5514,2.5554,2.5792,2.5885,2.5885,0.0,0.0,0.0,0.0,0.0,1.9391,1.8404,1.7768,1.7026,1.5973,1.5829,1.5808,1.5808,1.5808,1.5808,1.5808,1.5808,0.0,0.0,0.0,0.0,0.0,0.0,0.0,0.0,0.0,1.5242,1.5524,1.5336,0.0,0.0,0.0,0.0,0.0,0.0,0.0,0.0,0.0,0.0,0.0,0.0,0.0,0.0,0.0,0.0,0.0,0.0,0.0,0.0,0.0,0.0,1.7139,1.6806,1.698,1.7327,1.7328,1.7822,1.841,1.8704,1.9078,1.9401,1.9401,1.9145,1.8837,0.0,0.0,1.9118,1.9348,1.9468,1.9671,2.0221,1.9833,1.9428,1.9462,1.9754,2.0087,2.0484,2.0634,2.1007,2.1828,0.0,2.2278,0.0,0.0,0.0,0.0,0.0,0.0,0.0,2.4414,2.412,2.4365,2.4327,2.4456,2.481,2.4945,2.4926,2.4752,2.4881,2.4907,2.4825,2.4825,2.4919,2.509,0.0,0.0,0.0,2.5249,2.5309,2.5349,2.5792,2.599,2.601,2.6307,2.6406,2.6406,0.0,0.0,0.0,0.0,0.0,0.0,1.8682,1.7633,1.6736,1.6272,1.5962,1.5808,1.5808,1.5808,1.5808,1.5808,1.5808,0.0,0.0,0.0,0.0,0.0,0.0,0.0,0.0,0.0,1.5538,1.5808,1.5783,1.5783,1.5808,1.5783,0.0,0.0,0.0,0.0,0.0,0.0,0.0,0.0,0.0,0.0,1.5119,0.0,0.0,0.0,0.0,0.0,0.0,0.0,0.0,0.0,0.0,1.7101,1.7475,1.6887,1.7329,1.8076,1.841,1.8932,1.9401,1.9401,1.9145,1.8837,0.0,0.0,1.9388,1.9401,1.9614,1.9962,2.0493,2.0102,1.9783,2.0049,2.0364,2.0653,2.0873,2.1181,2.1591,0.0,0.0,2.2998,0.0,0.0,0.0,0.0,0.0,0.0,0.0,2.5344,2.5485,2.5485,2.5485,2.5632,2.5984,2.5537,2.5453,2.5779,2.5316,2.511,2.511,2.511,2.511,0.0,0.0,0.0,0.0,2.5594,2.5792,2.5832,2.6248,2.6386,2.6386,2.6406,2.6406,2.6406,0.0,0.0,0.0,0.0,0.0,0.0,1.8786,1.8606,1.8057,1.6359,1.5933,1.5808,1.5808,1.5808,1.5808,1.5808,1.5808,0.0,0.0,0.0,0.0,0.0,0.0,0.0,0.0,1.5675,1.5832,1.6138,1.5901,1.5927,1.6138,1.5913,1.5808,1.5783,0.0,0.0,0.0,0.0,0.0,0.0,0.0,1.5393,1.5143,0.0,0.0,0.0,0.0,0.0,0.0,0.0,0.0,0.0,0.0,0.0,0.0,1.7153,1.7662,1.8396,1.869,1.9079,1.9401,1.9401,1.9145,1.8944,1.9079,1.9267,1.9494,1.988,1.988,2.0022,2.0807,2.0442,2.0187,2.0644,2.1031,2.1357,2.1554,2.1835,2.2253,2.2876,2.3426,2.3894,0.0,0.0,0.0,0.0,0.0,0.0,0.0,2.581,2.5831,2.5831,2.5541,2.5517,2.5859,2.5721,2.5701,2.5792,2.5931,2.6004,2.6004,2.6004,0.0,0.0,0.0,0.0,0.0,2.6149,2.6208,2.6228,2.6347,2.6406,2.6406,2.6406,2.6406,2.6406,0.0,0.0,0.0,0.0,0.0,0.0,1.949,1.9219,1.8607,1.6823,1.6122,1.5808,1.5808,1.5808,1.5848,1.598,1.5992,0.0,0.0,0.0,0.0,0.0,0.0,0.0,1.5808,1.5808,1.5967,1.6297,1.6086,1.6098,1.6297,1.6086,1.5927,1.5783,1.5633,1.5635,0.0,0.0,0.0,0.0,1.5749,1.5618,1.5392,0.0,0.0,0.0,0.0,0.0,0.0,0.0,0.0,0.0,0.0,0.0,0.0,0.0,1.8063,1.8677,1.873,1.8971,1.924,1.9361,1.9145,1.8984,1.932,1.9481,1.9666,2.0104,2.0079,2.0185,2.0962,2.0613,2.0374,2.0953,2.1354,2.1691,2.1908,2.2283,2.28,2.3559,0.0,0.0,0.0,0.0,0.0,0.0,0.0,0.0,0.0,2.6105,2.6158,2.6158,2.5871,2.5826,2.603,2.603,2.603,2.603,2.6287,2.6406,2.6406,2.6406,0.0,0.0,0.0,0.0,0.0,2.6406,2.6406,2.6406,2.6406,2.6406,2.6406,2.6406,2.6406,2.6406,0.0,0.0,0.0,0.0,0.0,0.0,0.0,1.944,1.8452,1.7451,1.6437,1.5808,1.5808,1.5808,1.5927,1.6244,0.0,0.0,0.0,0.0,0.0,0.0,0.0,0.0,1.5808,1.5809,1.5992,1.6297,1.6297,1.6297,1.6297,1.627,1.6099,1.5808,1.5808,1.5808,0.0,0.0,0.0,0.0,1.5808,1.5808,0.0,0.0,0.0,0.0,0.0,0.0,0.0,0.0,0.0,0.0,0.0,0.0,0.0,0.0,0.0,0.0,0.0,1.8731,1.9011,1.9321,1.9172,1.9051,1.9373,1.9667,0.0,2.0197,2.025,2.041,2.0986,2.0653,2.0466,2.1042,2.1419,2.1743,2.2021,2.2612,2.3291,0.0,2.4471,0.0,0.0,0.0,0.0,0.0,0.0,0.0,0.0,2.6259,2.6406,2.6406,2.6406,2.6406,2.6406,2.6406,2.6406,2.6406,2.6406,2.6406,2.6406,2.6406,0.0,0.0,0.0,0.0,0.0,2.6406,2.6406,2.6406,2.6406,2.6406,2.6406,2.6406,2.6406,2.6406,0.0,0.0,0.0,0.0,0.0,0.0,0.0,0.0,0.0,0.0,1.6054,1.5808,1.5808,1.5808,1.5835,0.0,0.0,0.0,0.0,0.0,0.0,0.0,0.0,0.0,1.5808,1.6046,1.6218,1.6297,1.6297,1.6297,1.6297,1.6046,1.5887,1.5808,1.5808,1.5808,0.0,0.0,0.0,0.0,1.5808,1.5808,0.0,0.0,0.0,0.0,1.5808,1.6194,0.0,0.0,0.0,0.0,0.0,0.0,0.0,0.0,1.8623,1.889,1.8824,0.0,1.9293,1.9374,1.9494,1.9651,0.0,2.0254,2.0563,2.0826,2.0735,2.0697,2.1042,2.0973,2.1029,2.1422,2.19,2.2325,2.2653,2.3384,2.4048,2.4471,2.4796,0.0,0.0,0.0,0.0,0.0,0.0,0.0,0.0,2.6379,2.6406,2.6406,2.6406,2.6406,2.6406,2.6406,2.6406,2.6406,2.6406,2.6406,2.6406,2.6406,0.0,0.0,0.0,0.0,2.6406,2.6406,2.6406,2.6406,2.6406,2.6406,2.6406,2.6406,2.6406,2.6406,0.0,0.0,0.0,0.0,0.0,0.0,0.0,0.0,0.0,0.0,1.6016,1.5808,1.5808,1.5808,0.0,0.0,0.0,0.0,0.0,0.0,0.0,0.0,0.0,1.5808,1.5808,1.598,1.6151,1.6297,1.6297,1.6297,1.6297,1.6112,1.5953,1.5808,1.5808,1.5808,0.0,0.0,0.0,1.5808,1.5808,0.0,0.0,0.0,0.0,0.0,1.5967,1.6326,0.0,1.6873,1.7234,1.7675,0.0,0.0,0.0,0.0,1.9026,1.9158,1.9278,1.936,1.9428,1.9547,1.9786,2.0065,2.0359,2.0577,2.0777,2.1042,2.0898,2.0777,2.1056,2.1093,2.1203,2.1558,2.2184,2.2819,2.3411,2.3901,2.4369,2.4783,2.5002,0.0,0.0,0.0,0.0,0.0,0.0,0.0,0.0,2.6406,2.6406,2.6406,2.6406,2.6406,2.6406,2.6406,2.6406,2.6406,2.6406,2.6406,2.6406,2.6406,2.6406,0.0,0.0,0.0,2.6406,2.6406,2.6406,2.6406,2.6406,2.6406,2.6406,2.6406,2.6406,2.6406,0.0,0.0,0.0,0.0,0.0,0.0,0.0,0.0,0.0,0.0,0.0,0.0,0.0,0.0,0.0,0.0,0.0,0.0,0.0,0.0,0.0,0.0,1.5835,1.5808,1.5808,1.5848,1.6019,1.6297,1.6297,1.6297,1.6297,1.6244,1.6072,1.5808,1.5808,1.5808,1.5808,0.0,0.0,1.5808,1.5808,0.0,0.0,0.0,0.0,0.0,0.0,0.0,0.0,1.7086,1.738,1.7689,1.825,0.0,0.0,0.0,0.0,0.0,1.9734,1.9641,1.9535,1.9786,2.0065,2.0346,2.063,2.0724,2.0831,2.104,2.0909,2.0844,2.1122,2.1216,2.1336,2.1676,2.2465,2.3322,2.4088,2.4275,2.4516,2.5042,2.5176,0.0,0.0,0.0,0.0,0.0,0.0,0.0,0.0,2.6406,2.6406,2.6406,2.6406,2.6406,2.6406,2.6406,2.6406,2.6406,2.6406,2.6406,2.6406,2.6406,2.6406,0.0,0.0,0.0,2.6406,2.6406,2.6406,2.6406,2.6406,2.6406,2.6406,2.6406,2.6406,2.6406,0.0,0.0,0.0,0.0,0.0,0.0,0.0,0.0,0.0,0.0,0.0,0.0,0.0,0.0,0.0,0.0,0.0,0.0,0.0,0.0,0.0,1.623,1.5953,1.5808,1.5808,1.6072,1.6257,1.6297,1.6297,1.6297,1.6297,1.6019,1.5848,1.5808,1.5808,1.5808,1.5808,1.5808,0.0,1.5808,0.0,0.0,0.0,0.0,0.0,0.0,0.0,0.0,0.0,1.7086,1.738,1.7662,1.7969,0.0,0.0,0.0,0.0,0.0,1.9734,1.9773,1.98,2.0079,2.0372,2.063,2.0699,2.0884,2.1056,2.108,2.1069,2.1136,2.1462,2.1716,2.1951,0.0,0.0,2.3785,0.0,0.0,2.5002,0.0,0.0,0.0,0.0,0.0,0.0,0.0,0.0,0.0,0.0,2.6406,2.6406,2.6406,2.6406,2.6406,2.6406,2.6406,2.6406,2.6406,2.6406,2.6406,2.6406,2.6406,2.6406,0.0,0.0,2.6406,2.6406,2.6406,2.6406,2.6406,2.6406,2.6406,2.6406,2.6406,2.6406,2.6406,0.0,0.0,0.0,0.0,0.0,0.0,0.0,0.0,0.0,0.0,0.0,0.0,0.0,0.0,0.0,0.0,0.0,0.0,0.0,0.0,1.6445,1.631,1.6151,1.5992,1.5796,1.6138,1.6205,1.6032,1.6205,1.6217,1.6032,1.5861,1.5808,1.5808,1.5808,1.5808,1.5808,1.5808,1.5808,1.5808,0.0,0.0,0.0,0.0,0.0,0.0,0.0,0.0,0.0,0.0,1.738,1.7649,1.7929,0.0,0.0,0.0,0.0,0.0,1.9852,2.0025,2.0117,2.0557,2.0695,2.0753,2.0869,2.1015,2.1149,2.1325,2.1232,2.1243,2.1729,2.2047,2.2472,2.326,0.0,2.4155,0.0,0.0,0.0,0.0,0.0,0.0,0.0,0.0,0.0,0.0,0.0,0.0,0.0,0.0,2.6406,2.6406,2.6406,2.6406,2.6406,2.6406,2.6406,2.6406,2.6406,2.6406,2.6406,2.6406,2.6406,2.6406,0.0,2.6406,2.6406,2.6406,2.6406,2.6406,2.6406,2.6406,2.6406,2.6406,2.6406,2.6406,0.0,0.0,0.0,0.0,0.0,0.0,0.0,0.0,0.0,0.0,0.0,0.0,0.0,0.0,0.0,0.0,0.0,0.0,0.0,1.6525,1.6512,1.631,1.6218,1.6099,1.5927,1.6086,1.6126,1.6008,1.6126,1.6086,1.5927,1.5927,1.5927,1.5901,1.5835,1.5808,1.5808,1.5808,1.5848,1.5913,0.0,0.0,0.0,0.0,0.0,0.0,0.0,0.0,0.0,0.0,0.0,0.0,0.0,0.0,0.0,1.8677,1.8904,1.9184,1.9983,2.0157,2.0279,2.0933,2.0949,2.0857,2.104,0.0,2.1299,2.1558,2.1446,2.147,2.1991,2.2445,0.0,2.4048,2.4315,0.0,0.0,0.0,0.0,0.0,0.0,0.0,0.0,0.0,0.0,0.0,0.0,0.0,0.0,0.0,2.6406,2.6406,2.6406,2.6406,2.6406,2.6406,2.6406,2.6406,2.6406,2.6406,2.6406,2.6406,2.6406,2.6406,2.6406,2.6406,2.6406,2.6406,2.6406,2.6406,2.6406,2.6406,2.6406,2.6406,2.6406,2.6419,0.0,0.0,0.0,0.0,0.0,0.0,0.0,0.0,0.0,0.0,0.0,0.0,0.0,0.0,0.0,0.0,0.0,0.0,0.0,1.6459,1.6324,1.6297,1.5993,1.5967,1.6257,1.598,1.61,1.6647,1.61,1.598,1.627,1.627,1.627,1.6257,1.594,1.5808,1.5808,1.5808,1.598,1.6244,1.5927,0.0,0.0,0.0,0.0,0.0,0.0,0.0,0.0,0.0,0.0,0.0,0.0,0.0,1.8464,1.8518,1.8933,1.9495,2.0052,2.0025,2.004,2.0895,2.1096,2.1082,2.1109,2.1339,0.0,2.1598,0.0,0.0,0.0,2.3086,2.3812,2.4142,2.4681,0.0,0.0,0.0,0.0,0.0,0.0,0.0,0.0,0.0,0.0,0.0,0.0,0.0,0.0,0.0,0.0,2.6406,2.6406,2.6406,2.6406,2.6406,2.6406,2.6406,2.6406,2.6406,2.6406,2.6406,2.6406,2.6406,2.6406,2.6406,2.6406,2.6406,2.6406,2.6406,2.6406,2.6406,2.6406,2.6406,2.6406,2.6446,0.0,0.0,0.0,0.0,0.0,0.0,0.0,0.0,0.0,0.0,0.0,0.0,0.0,0.0,0.0,0.0,0.0,0.0,0.0,1.6693,1.6297,1.6297,1.6178,1.6165,1.6297,1.6339,1.6287,1.6142,1.6126,1.6178,1.6297,1.6297,1.6297,1.6296,1.5953,1.5808,1.5809,1.6019,1.6178,1.6284,1.6165,1.6191,0.0,0.0,0.0,0.0,0.0,0.0,0.0,0.0,1.714,1.7501,1.7756,1.8009,1.8263,1.8637,1.8904,1.9212,1.9785,1.9998,2.0185,2.0724,2.0975,2.1162,2.1352,2.1502,2.1689,2.2034,2.2047,0.0,0.0,0.0,2.4409,2.4721,0.0,0.0,0.0,0.0,0.0,0.0,0.0,0.0,0.0,0.0,0.0,0.0,0.0,0.0,0.0,0.0,0.0,2.6406,2.6406,2.6406,2.6406,2.6406,2.6406,2.6406,2.6406,2.6406,2.6406,2.6406,2.6406,2.6406,2.6406,2.6406,2.6406,2.6406,2.6406,2.6406,2.6406,2.6406,2.6413,2.6587,2.6653,2.6694,0.0,0.0,0.0,0.0,0.0,0.0,0.0,0.0,0.0,0.0,0.0,0.0,0.0,0.0,0.0,0.0,0.0,0.0,1.812,1.7469,1.7086,1.7086,1.6788,1.662,1.662,1.6592,1.6407,1.6088,1.6419,1.6524,1.6431,1.6431,1.6431,1.6405,1.5993,1.5861,1.5967,1.6086,1.6205,1.6297,1.6297,1.6297,0.0,0.0,0.0,0.0,0.0,0.0,0.0,0.0,1.7127,1.7541,1.7889,1.8062,1.8263,1.8743,1.9023,1.9291,1.9785,2.0132,2.0468,2.0886,2.1111,2.1365,2.1753,2.1783,2.1847,2.2311,2.2338,2.2529,2.3313,0.0,0.0,0.0,0.0,0.0,0.0,0.0,0.0,0.0,0.0,0.0,0.0,0.0,0.0,0.0,0.0,0.0,0.0,0.0,0.0,0.0,2.6406,2.6406,2.6406,2.6406,2.6406,2.6406,2.6406,2.6406,2.6406,2.6406,2.6406,2.6406,2.6406,2.6406,2.6406,2.6406,2.6406,2.6406,2.6406,2.6453,2.6547,2.6727,2.686,2.7001,0.0,0.0,0.0,0.0,0.0,0.0,0.0,0.0,0.0,0.0,0.0,0.0,0.0,0.0,0.0,0.0,0.0,0.0,1.8888,1.8819,1.8807,1.8796,1.7824,1.729,1.7293,1.6656,1.6444,1.67,1.7032,1.702,1.67,1.67,1.67,1.6661,1.6061,1.5992,1.627,1.594,1.6005,1.6297,1.6297,1.6297,1.6297,0.0,0.0,0.0,0.0,0.0,0.0,0.0,1.7206,1.73,1.7836,1.8237,1.8557,1.8824,1.9331,1.9867,2.0117,2.0439,2.0846,2.1451,2.1598,2.1743,2.2268,2.2205,2.2071,2.2348,2.2689,2.3094,2.371,0.0,0.0,0.0,0.0,0.0,0.0,0.0,0.0,0.0,0.0,0.0,0.0,0.0,0.0,0.0,0.0,0.0,0.0,0.0,0.0,0.0,2.6406,2.6406,2.6406,2.6406,2.6406,2.6406,2.6406,2.6406,2.6406,2.6406,2.6406,2.6406,2.6406,2.6406,2.6406,2.6406,2.6406,2.6386,2.6386,2.6573,2.6807,2.6807,2.7014,2.7329,0.0,0.0,0.0,0.0,0.0,0.0,0.0,0.0,0.0,0.0,0.0,0.0,0.0,0.0,0.0,0.0,0.0,0.0,1.9883,1.9198,1.8484,1.7781,1.7454,1.7089,1.661,1.682,1.6859,1.67,1.6618,1.6606,1.67,1.67,1.6593,1.6405,1.6231,1.6084,1.5953,1.6086,1.6217,1.631,1.6512,1.658,1.658,0.0,0.0,0.0,0.0,0.0,0.0,0.0,0.0,0.0,1.8237,1.8718,1.9093,1.8944,1.945,2.0065,1.9945,2.0441,2.1029,2.1203,2.1566,2.2034,2.2609,2.2498,2.2415,2.2936,2.346,2.3928,2.4284,0.0,0.0,0.0,0.0,0.0,0.0,0.0,0.0,0.0,0.0,0.0,0.0,0.0,0.0,0.0,0.0,0.0,0.0,0.0,0.0,0.0,2.6406,2.6406,2.6406,2.6406,2.6406,2.6406,2.6406,2.6406,2.6406,2.6406,2.6406,2.6406,2.6406,2.6406,2.6406,2.6406,2.6507,2.6674,2.6674,2.6881,2.7181,2.7362,2.7495,2.7642,0.0,0.0,0.0,0.0,0.0,0.0,0.0,0.0,0.0,0.0,2.3354,2.3054,0.0,0.0,0.0,0.0,0.0,0.0,2.0303,1.937,1.8778,1.8734,1.7941,1.7174,1.647,1.6819,1.6966,1.69,1.6751,1.6672,1.67,1.67,1.6607,1.6459,1.6459,1.6353,1.6155,1.6258,1.6297,1.6324,1.6593,1.67,1.6701,0.0,0.0,0.0,0.0,0.0,0.0,0.0,0.0,0.0,1.8718,1.9107,1.9401,1.9411,1.9877,2.0401,2.0319,2.0788,2.1352,2.156,2.1991,2.2519,2.3121,2.3104,0.0,0.0,2.3955,2.4329,2.4724,0.0,0.0,0.0,0.0,0.0,0.0,0.0,0.0,0.0,0.0,0.0,0.0,0.0,0.0,0.0,0.0,0.0,0.0,0.0,0.0,0.0,2.6406,2.6406,2.6406,2.6406,2.6406,2.6406,2.6507,2.656,2.656,2.644,2.6406,2.6419,2.6507,2.6627,2.6754,2.6754,2.6841,2.7001,2.7001,2.7195,2.7489,2.7783,2.797,2.8123,0.0,0.0,0.0,0.0,0.0,0.0,0.0,0.0,0.0,2.3983,2.3454,2.2949,0.0,0.0,0.0,2.1776,2.0952,2.0393,2.0314,1.953,1.9579,2.0718,1.8919,1.7542,1.6765,1.6767,1.6927,1.7246,1.7166,1.6966,1.67,1.67,1.6687,1.666,1.67,1.6687,1.6647,1.6365,1.6245,1.6284,1.658,1.67,1.674,1.7099,0.0,0.0,0.0,0.0,0.0,0.0,0.0,0.0,1.9267,1.9468,1.9601,2.0039,2.0468,2.0817,2.1042,2.1379,2.1796,2.2325,2.2726,2.3161,2.3705,2.3884,2.3973,2.4195,0.0,2.4462,0.0,0.0,0.0,0.0,0.0,0.0,0.0,0.0,0.0,0.0,0.0,0.0,0.0,0.0,0.0,0.0,0.0,0.0,0.0,0.0,0.0,2.6406,2.6413,2.6446,2.6446,2.6473,2.6486,0.0,2.6734,2.6847,2.6834,2.6587,2.6486,2.65,2.6747,2.7014,2.7309,2.7309,2.7302,2.7349,2.7349,2.7516,2.7816,2.8125,2.8398,2.8684,0.0,0.0,0.0,0.0,0.0,0.0,0.0,0.0,2.3682,2.3567,2.341,2.3182,2.2823,2.2365,0.0,2.2242,2.1731,2.1087,2.0348,2.0794,2.0668,1.976,1.899,1.8119,1.7111,1.7301,1.7435,1.7515,1.6831,1.6552,1.67,1.67,1.6592,1.6404,1.6607,1.658,1.6377,1.6033,1.5913,1.5941,1.65,1.67,1.6767,1.7301,1.7474,0.0,0.0,0.0,0.0,0.0,0.0,0.0,1.9614,2.0042,2.0349,1.9987,2.0603,2.1355,2.1149,2.1641,2.2325,2.2689,2.3358,2.3955,2.4075,2.4481,2.4756,2.4564,2.473,0.0,0.0,0.0,0.0,0.0,0.0,0.0,0.0,0.0,0.0,0.0,0.0,0.0,0.0,0.0,0.0,0.0,0.0,0.0,0.0,0.0,0.0,2.6406,2.6613,2.6714,2.6714,2.6961,2.7122,0.0,2.7155,2.7195,2.7195,2.7128,2.7122,2.7101,2.7168,2.7222,2.7309,2.7309,2.7422,2.7602,2.7602,2.7936,2.8417,2.8484,2.8676,2.897,0.0,0.0,0.0,0.0,0.0,0.0,0.0,0.0,2.3978,2.364,2.3412,2.3202,2.3102,2.2707,0.0,0.0,2.159,2.0923,2.0348,2.0314,1.9865,1.887,1.9457,1.9043,1.7433,1.7528,1.7541,1.7421,1.6793,1.6553,1.67,1.6567,1.6432,1.631,1.658,1.6552,1.6284,1.6112,1.6114,1.626,1.6567,1.6874,1.7167,1.7475,1.7675,1.7836,1.8129,0.0,0.0,0.0,0.0,0.0,0.0,0.0,2.063,2.0323,2.0764,2.1352,2.1339,2.175,2.2378,2.313,2.3772,2.4275,2.4574,2.4882,2.5136,2.5237,2.5417,0.0,0.0,0.0,0.0,0.0,0.0,0.0,0.0,0.0,0.0,0.0,0.0,0.0,0.0,0.0,0.0,0.0,0.0,0.0,0.0,2.6834,2.6834,2.6834,2.6981,2.7028,2.7028,2.7208,2.7309,2.7309,2.7422,2.7569,2.771,2.7429,2.7369,2.7489,2.7489,2.7569,2.7724,2.7724,2.7817,2.7944,2.807,2.8323,2.8644,2.8925,2.9125,2.9277,0.0,0.0,0.0,0.0,0.0,0.0,0.0,0.0,0.0,2.373,2.3304,2.3127,2.3331,2.2983,2.2563,0.0,0.0,0.0,2.0325,1.9657,1.9012,1.8484,2.0033,1.9862,1.7648,1.7595,1.7461,1.7206,1.686,1.6687,1.662,1.6392,1.6324,1.6377,1.654,1.6526,1.6364,1.627,1.6378,1.6633,1.6687,1.7021,1.7541,1.7635,1.7782,1.7996,1.8424,1.8677,1.889,1.932,0.0,0.0,0.0,0.0,2.063,2.067,2.0898,2.1162,2.1435,2.186,2.2502,2.3585,2.4062,2.4422,2.4975,2.5136,2.5323,2.5891,0.0,0.0,0.0,0.0,0.0,0.0,0.0,0.0,0.0,0.0,0.0,0.0,0.0,0.0,0.0,0.0,0.0,0.0,0.0,0.0,2.7296,2.7309,2.7309,2.7309,2.7329,2.7369,2.7369,2.7429,2.7456,2.7456,2.7676,2.793,2.8186,2.7684,2.7569,2.7797,2.7797,2.793,2.8213,2.8245,2.8259,2.8299,2.8564,2.8689,2.8818,2.9321,2.9535,2.9593,0.0,0.0,0.0,0.0,0.0,0.0,0.0,0.0,0.0,0.0,2.2997,2.2912,2.3124,2.2725,2.243,2.2375,2.2076,2.1445,2.0371,0.0,0.0,1.9549,2.0398,1.9862,1.7648,1.7595,1.7461,1.7206,1.686,1.658,0.0,0.0,1.6419,1.6633,1.6432,1.6459,1.662,1.6087,1.6059,1.6365,1.6607,1.6927,1.73,1.7769,1.7809,1.7769,1.8557,1.8717,1.8691,1.9479,1.9773,0.0,0.0,0.0,2.0317,2.0617,2.0898,2.1122,2.1162,2.2121,2.3296,2.3981,2.4351,2.4644,2.5016,2.5277,2.5545,0.0,0.0,0.0,0.0,0.0,0.0,0.0,0.0,0.0,0.0,0.0,0.0,0.0,0.0,0.0,0.0,0.0,0.0,0.0,0.0,0.0,2.7309,2.7309,2.7309,2.7309,2.7529,2.7642,2.7642,2.7938,2.8093,2.8093,2.8133,2.8173,2.82,2.8119,2.8106,2.8125,2.8125,2.8173,2.8226,2.8452,2.8551,2.8577,2.885,2.9117,2.9401,2.9481,2.9646,2.9838,0.0,0.0,0.0,0.0,0.0,0.0,0.0,0.0,0.0,0.0,0.0,2.3002,2.309,2.2827,2.2563,2.2419,2.2209,2.1809,2.1132,2.1119,2.0726,1.9743,1.9722,1.9065,1.7635,1.7448,1.7233,1.6913,1.6619,1.6313,0.0,1.6019,1.6087,0.0,1.6074,1.6099,1.6182,1.6112,1.6246,1.6552,1.6859,1.7247,1.7662,1.7742,1.7916,1.813,1.8329,1.8529,1.877,1.9171,1.9533,1.984,2.0107,0.0,0.0,0.0,2.0523,2.0975,2.147,2.2428,2.3439,2.4062,2.4543,2.4957,2.5251,2.5564,2.5858,2.6165,0.0,0.0,0.0,0.0,0.0,0.0,0.0,0.0,0.0,0.0,0.0,0.0,0.0,0.0,0.0,0.0,0.0,0.0,0.0,2.7596,2.7791,2.7791,2.7791,2.7791,2.7924,2.7991,2.7991,2.8146,2.82,2.82,2.82,2.8272,2.8425,2.8425,2.8353,2.8213,2.8345,2.8425,2.8452,2.8703,2.8823,2.885,2.9157,2.9366,2.9521,2.9673,2.9806,2.9891,0.0,0.0,0.0,0.0,0.0,0.0,0.0,0.0,0.0,0.0,0.0,2.3101,2.3101,0.0,0.0,0.0,2.2059,2.1839,2.1574,2.143,2.0931,1.9998,1.9719,1.9008,1.7783,1.7915,1.7663,1.6978,1.6784,0.0,1.6187,1.5927,1.5808,0.0,1.5808,1.5888,0.0,0.0,0.0,1.6847,1.7167,1.7662,1.8222,1.8183,1.8491,1.8891,1.8569,1.8743,1.9104,1.8943,1.9265,1.9706,1.9773,2.0109,0.0,0.0,0.0,2.1356,2.2145,2.2707,2.3256,2.4022,2.4596,2.5077,2.5531,2.5818,2.6078,0.0,0.0,0.0,0.0,0.0,0.0,0.0,0.0,0.0,0.0,0.0,0.0,0.0,0.0,0.0,0.0,0.0,0.0,0.0,0.0,2.793,2.82,2.82,2.82,2.82,2.82,2.82,2.82,2.82,2.8219,2.8299,2.8299,2.8438,2.8689,2.8689,2.8591,2.8398,2.8617,2.8689,2.8716,2.901,2.913,2.9157,2.9472,2.9593,2.9619,2.9833,2.9891,2.9891,0.0,0.0,0.0,0.0,0.0,0.0,0.0,0.0,0.0,0.0,0.0,2.3101,2.3101,2.2915,2.2542,2.1881,2.166,2.1415,2.1155,2.2046,2.202,2.0723,2.1349,0.0,1.8226,1.9461,1.9355,1.7741,0.0,0.0,1.7197,1.6244,1.5808,1.5808,1.5808,1.6115,1.6647,0.0,0.0,1.7206,1.7461,1.809,1.8903,1.9464,1.9865,2.0077,1.9798,0.0,1.9666,1.9091,1.9132,1.9468,1.972,1.9826,2.0146,0.0,0.0,0.0,2.3176,2.2894,2.2735,2.3915,2.4417,2.4858,2.5784,2.5984,2.6078,0.0,0.0,0.0,0.0,0.0,0.0,0.0,0.0,0.0,0.0,0.0,0.0,0.0,0.0,0.0,0.0,0.0,0.0,0.0,0.0,2.8186,2.82,2.82,2.82,2.82,2.82,2.82,2.82,2.82,2.8326,2.8577,2.8577,2.8716,2.8975,2.8975,2.8961,2.8948,2.8961,2.8975,2.9001,2.9339,2.9459,2.9486,2.978,2.9878,2.9878,2.9891,2.9891,2.9891,0.0,0.0,0.0,0.0,0.0,0.0,0.0,0.0,0.0,0.0,0.0,0.0,0.0,2.2693,2.233,2.208,2.1677,0.0,0.0,2.1376,2.1024,2.0707,2.0604,2.0126,1.9186,1.9695,1.9562,1.8703,0.0,1.805,1.729,1.6927,1.6532,1.6124,1.6124,1.6245,1.6459,1.6751,0.0,0.0,1.8796,1.9209,1.9042,2.0299,2.0957,2.1213,0.0,0.0,0.0,2.1965,2.2026,2.1959,2.1189,2.1846,2.2991,2.3562,2.3806,2.3825,2.3541,2.346,2.3465,2.359,2.4124,2.4733,2.5296,2.5844,2.6286,0.0,0.0,0.0,0.0,0.0,0.0,0.0,0.0,0.0,0.0,0.0,0.0,0.0,0.0,0.0,0.0,0.0,0.0,0.0,0.0,0.0,2.82,2.82,2.82,2.82,2.8379,2.8524,2.8711,2.8537,2.8591,2.8863,2.8863,2.9023,2.9325,2.9325,2.9397,2.9584,2.9584,2.9477,2.9352,2.9646,2.9766,2.9766,2.9851,2.9891,2.9891,2.9891,2.9891,2.9891,0.0,0.0,0.0,0.0,0.0,0.0,0.0,0.0,0.0,2.3591,0.0,0.0,0.0,0.0,2.211,2.1882,2.1741,2.1765,2.1992,2.1462,2.1182,2.1272,2.1179,2.0824,2.0218,2.0588,2.0431,1.978,1.9315,1.8662,1.7804,1.7572,1.7044,1.631,1.651,1.6604,0.0,0.0,0.0,1.7485,0.0,0.0,1.9127,0.0,2.2024,0.0,0.0,0.0,0.0,0.0,0.0,2.4181,2.316,2.3973,2.5267,2.522,2.5303,2.527,2.4641,2.4495,2.442,2.4059,2.4398,2.4943,2.5329,2.5764,2.6146,0.0,0.0,0.0,0.0,0.0,0.0,0.0,0.0,0.0,0.0,0.0,0.0,0.0,0.0,0.0,0.0,0.0,0.0,0.0,0.0,0.0,2.82,2.8286,2.8379,2.8465,2.8644,2.8823,2.8988,2.8823,2.8876,2.917,2.917,2.9317,2.9633,2.9633,2.9726,2.9891,2.9891,2.9806,2.9646,2.9833,2.9891,2.9891,2.9891,2.9891,2.9891,2.9891,2.9891,2.9891,0.0,0.0,0.0,0.0,0.0,0.0,0.0,0.0,2.4422,2.4402,0.0,0.0,0.0,0.0,0.0,2.13,2.1852,2.2112,2.1854,2.2441,2.2662,2.2408,2.3237,2.2931,2.1275,2.2233,2.2171,2.0985,2.0199,1.9474,1.8839,1.8177,1.7319,1.6363,1.6951,1.7206,1.7219,0.0,1.7367,1.7715,0.0,1.9258,1.9322,0.0,0.0,0.0,2.4997,2.5481,0.0,0.0,0.0,0.0,0.0,2.5982,2.6621,2.653,2.6773,2.6981,0.0,0.0,0.0,2.536,2.5324,2.5447,2.5878,2.5755,2.569,0.0,0.0,0.0,0.0,0.0,0.0,0.0,0.0,0.0,0.0,0.0,0.0,0.0,0.0,0.0,0.0,0.0,0.0,0.0,0.0,2.82,2.82,2.8465,2.8729,2.9001,2.9001,2.9001,2.9028,2.9015,2.9183,2.9521,2.9521,2.9646,2.9891,2.9891,2.9891,2.9891,2.9891,2.9891,2.9891,2.9891,2.9891,2.9891,2.9891,2.9891,2.9891,2.9891,2.9891,2.9891,0.0,0.0,0.0,0.0,0.0,2.5449,2.5141,2.4984,2.4777,0.0,0.0,0.0,0.0,0.0,2.3152,2.2607,2.2598,2.2588,2.2522,2.2528,2.2408,2.2187,2.3157,2.3263,2.2307,2.3315,2.3554,2.2933,2.2508,2.1544,2.008,1.9517,1.8533,1.7244,1.7202,1.73,1.7488,1.7488,0.0,0.0,1.9437,2.0652,0.0,0.0,0.0,0.0,0.0,2.8826,0.0,0.0,2.9203,2.8489,0.0,0.0,2.775,2.8433,2.8717,2.8591,2.7544,0.0,0.0,0.0,0.0,0.0,0.0,0.0,0.0,0.0,0.0,0.0,0.0,0.0,0.0,0.0,0.0,0.0,0.0,0.0,0.0,0.0,0.0,0.0,0.0,0.0,0.0,0.0,2.82,2.82,2.82,2.8465,2.8845,2.9339,2.913,2.9202,2.9651,2.9472,2.9513,2.9793,2.9793,2.9833,2.9891,2.9891,2.9891,2.9891,2.9891,2.9891,2.9891,2.9891,2.9891,2.9891,2.9891,2.9891,2.9891,2.9891,2.9891,2.9891,0.0,0.0,2.6245,2.6245,2.6245,2.6147,2.593,2.5754,2.5598,0.0,0.0,0.0,0.0,0.0,2.3856,2.3426,2.3285,2.3219,2.3219,2.289,2.2727,2.2818,2.3572,2.3851,2.355,2.3982,2.4138,2.3956,2.3469,2.2553,2.1304,2.0794,1.9731,1.8255,1.8157,1.8163,1.8265,0.0,0.0,0.0,2.0589,0.0,0.0,2.5985,2.7832,0.0,0.0,0.0,3.0808,3.2175,3.1665,0.0,0.0,0.0,0.0,0.0,2.9671,2.9539,2.8995,2.8683,2.8369,2.7896,0.0,0.0,0.0,0.0,0.0,0.0,0.0,0.0,0.0,0.0,0.0,0.0,0.0,0.0,0.0,0.0,0.0,0.0,0.0,0.0,0.0,0.0,0.0,2.82,2.82,2.8299,2.8532,2.8804,2.9179,2.9646,2.9477,2.9544,2.9891,2.9753,2.9753,2.9891,2.9891,2.9891,2.9891,2.9891,2.9891,2.9891,2.9891,2.9891,2.9891,2.9891,2.9891,2.9891,2.9891,2.9891,2.9891,2.9891,2.9891,2.9891,0.0,0.0,2.7018,2.7077,2.7077,2.7077,2.7077,2.6777,2.6634,0.0,2.595,2.4926,2.4102,0.0,0.0,0.0,2.3937,2.3917,2.3878,2.3474,2.3424,2.3825,2.4246,2.4559,2.4698,2.4418,2.4343,2.4452,2.3723,2.3052,2.2494,2.2006,2.0924,1.94,1.9622,1.9588,1.934,1.9303,0.0,2.0044,2.2009,2.3186,0.0,0.0,2.9425,0.0,3.2084,3.2166,3.1417,3.3779,3.341,0.0,0.0,0.0,0.0,0.0,3.0084,3.0236,3.0573,3.0668,3.0614,0.0,0.0,0.0,0.0,0.0,0.0,0.0,0.0,0.0,0.0,0.0,0.0,0.0,0.0,0.0,0.0,0.0,0.0,0.0,0.0,0.0,0.0,2.82,2.82,2.82,2.824,2.8465,2.8961,2.9325,2.9619,2.9878,2.9891,2.9891,2.9891,2.9891,2.9891,2.9891,2.9891,2.9891,2.9891,2.9891,2.9891,2.9891,2.9891,2.9891,2.9891,2.9891,2.9891,2.9891,2.9891,2.9891,2.9891,2.9891,2.9891,2.9891,2.6882,2.694,2.7116,2.7506,2.7565,2.7565,2.7565,2.7487,2.7233,2.6595,2.6301,2.5937,2.5386,0.0,0.0,2.4906,2.4859,2.4691,2.4305,2.4207,2.4108,2.4032,2.4625,2.4886,2.4703,2.514,2.5407,2.5424,2.5044,2.4491,2.3736,2.3201,2.2097,2.0598,2.1388,2.1178,2.0321,0.0,0.0,2.3928,2.2677,0.0,2.7576,2.9334,3.1446,3.3547,3.4125,3.4138,3.3889,0.0,3.3743,3.3483,0.0,0.0,0.0,0.0,0.0,0.0,0.0,0.0,0.0,0.0,0.0,0.0,0.0,0.0,0.0,0.0,0.0,0.0,0.0,0.0,0.0,0.0,0.0,0.0,0.0,0.0,0.0,0.0,0.0,0.0,0.0,2.82,2.82,2.82,2.8398,2.8671,2.8975,2.9325,2.9619,2.9878,2.9891,2.9891,2.9891,2.9891,2.9891,2.9891,2.9891,2.9891,2.9891,2.9891,2.9891,2.9891,2.9891,2.9891,2.9891,2.9891,2.9891,2.9891,2.9891,2.9891,2.9891,2.9891,2.9891,2.9891,2.7357,2.75,2.7793,2.8223,2.8314,2.8236,2.8034,2.7839,2.7467,2.6777,2.6907,2.6699,2.5803,0.0,0.0,0.0,2.5219,2.5004,2.4758,2.4531,2.4454,2.4594,2.4926,2.514,2.5198,2.5528,2.5706,2.5706,2.581,2.5641,2.5244,2.4805,2.4241,2.358,2.3328,2.3068,2.2838,0.0,2.3817,2.5671,2.5263,0.0,3.0264,3.181,3.3498,3.5039,3.5039,3.5176,3.5181,3.4177,3.3797,0.0,0.0,3.3175,3.2645,0.0,3.192,3.2165,0.0,0.0,0.0,3.2446,0.0,0.0,0.0,0.0,0.0,0.0,0.0,0.0,0.0,0.0,0.0,0.0,0.0,0.0,0.0,0.0,0.0,0.0,0.0,0.0,0.0,2.82,2.82,2.82,2.8564,2.8863,2.8988,2.9437,2.9766,2.9891,2.9891,2.9891,2.9891,2.9891,2.9891,2.9891,2.9891,2.9891,2.9891,2.9891,2.9891,2.9891,2.9891,2.9891,2.9891,2.9891,2.9891,2.9891,2.9891,2.9891,2.9891,2.9891,2.9891,2.9891,2.7819,2.8093,2.8418,2.8834,2.8912,2.8795,2.8457,2.8138,2.7728,2.7194,2.7396,2.7181,2.6186,0.0,0.0,0.0,0.0,2.5727,2.5473,2.5117,2.5039,2.5348,2.5258,2.541,2.5835,2.5757,2.5706,2.5706,2.6172,2.6399,2.6406,2.6194,2.6161,2.6191,2.5383,0.0,0.0,0.0,0.0,2.7203,0.0,2.9869,3.1625,3.3674,3.4746,3.5192,3.5544,3.5859,3.5959,3.4841,0.0,3.3988,3.4434,3.3824,0.0,0.0,0.0,0.0,0.0,0.0,0.0,0.0,0.0,3.3434,0.0,0.0,0.0,0.0,0.0,0.0,0.0,0.0,0.0,0.0,0.0,0.0,0.0,0.0,0.0,0.0,0.0,0.0,0.0,2.8066,2.8058,2.82,2.8591,2.889,2.8988,2.9571,2.9891,2.9891,2.9891,2.9891,2.9891,2.9891,2.9891,2.9891,2.9891,2.9891,2.9891,2.9891,2.9891,2.9891,2.9891,2.9891,2.9891,2.9891,2.9891,2.9891,2.9891,2.9891,2.9891,2.9891,2.9891,2.9891,2.8236,2.8275,2.8418,2.8834,2.8912,2.8879,2.8834,2.8795,2.8496,2.7721,2.7305,2.7187,0.0,0.0,0.0,0.0,0.0,0.0,2.6862,0.0,2.6582,2.6262,2.5847,2.5847,2.6309,2.5913,2.5706,2.5706,2.6172,2.6399,2.6419,2.6735,2.6553,2.6028,2.7628,0.0,0.0,0.0,2.9053,0.0,3.0922,3.0688,0.0,3.2649,3.3848,3.4466,3.601,3.658,3.6541,0.0,3.5745,3.553,0.0,3.4805,0.0,0.0,0.0,0.0,0.0,0.0,0.0,0.0,3.3672,0.0,0.0,0.0,0.0,0.0,0.0,0.0,0.0,0.0,0.0,0.0,0.0,0.0,0.0,0.0,0.0,0.0,0.0,0.0,0.0,0.0,0.0,2.816,2.8245,2.8492,2.8961,2.9571,2.9891,2.9891,2.9891,2.9891,2.9891,2.9891,2.9891,2.9891,2.9891,2.9891,2.9891,2.9891,2.9891,2.9891,2.9891,2.9891,2.9891,2.9891,2.9891,2.9891,2.9891,2.9891,2.9891,2.9891,2.9891,2.9891,2.8314,2.8314,2.8418,2.8834,2.8912,2.8834,2.8594,2.8131,2.7682,2.7324,2.7357,2.7474,0.0,0.0,0.0,0.0,0.0,0.0,0.0,0.0,2.722,2.6777,2.6348,2.6191,2.6399,2.5932,2.5706,2.5706,2.6401,2.6758,2.6758,2.72,2.7756,2.8412,2.8751,0.0,2.915,0.0,0.0,0.0,0.0,0.0,0.0,3.3862,3.5195,3.5737,3.6697,3.7049,3.7029,0.0,3.6269,0.0,0.0,0.0,0.0,0.0,0.0,0.0,0.0,0.0,0.0,0.0,0.0,0.0,0.0,0.0,3.3976,0.0,0.0,0.0,0.0,0.0,0.0,0.0,0.0,0.0,0.0,0.0,0.0,0.0,0.0,0.0,0.0,0.0,0.0,0.0,0.0,2.8425,2.8961,2.9571,2.9891,2.9891,2.9891,2.9891,2.9891,2.9891,2.9891,2.9891,2.9891,2.9891,2.9891,2.9891,2.9891,2.9891,2.9891,2.9891,2.9891,2.9891,2.9891,2.9891,2.9891,2.9891,2.9891,2.9891,2.9891,2.9891,2.8314,2.8314,2.8398,2.8678,2.8736,2.8652,2.834,2.7754,2.7363,0.0,0.0,0.0,2.8034,2.8367,0.0,0.0,0.0,2.8791,0.0,0.0,2.8073,2.7734,0.0,0.0,0.0,2.6238,2.5835,2.5706,2.6576,2.707,2.7207,2.7767,2.8744,3.0014,2.9492,3.0025,3.1255,0.0,0.0,3.125,3.1069,3.1851,3.3285,3.512,3.6269,3.6912,3.7324,3.7461,3.7461,3.7344,3.668,0.0,3.6738,0.0,0.0,0.0,0.0,0.0,3.3535,0.0,0.0,0.0,0.0,0.0,0.0,0.0,0.0,0.0,0.0,0.0,0.0,0.0,0.0,0.0,0.0,0.0,0.0,0.0,0.0,0.0,0.0,0.0,0.0,0.0,0.0,0.0,0.0,0.0,2.8948,2.9571,2.9891,2.9891,2.9891,2.9891,2.9891,2.9891,2.9891,2.9891,2.9891,2.9891,2.9891,2.9891,2.9891,2.9891,2.9891,2.9891,2.9891,2.9891,2.9891,2.9891,2.9891,2.9891,2.9891,2.9891,2.9891,2.9891,2.8314,2.8314,2.8301,2.8334,2.832,2.8301,2.8314,2.8275,0.0,0.0,0.0,0.0,0.0,0.0,0.0,0.0,0.0,3.1499,3.0195,0.0,2.952,0.0,0.0,0.0,0.0,2.7024,2.6172,2.5706,2.6576,2.7226,2.7682,2.8496,2.9141,2.9637,2.9995,3.043,3.0937,3.1289,3.2402,3.4016,3.4375,3.5566,3.6992,0.0,3.6191,3.7324,3.7736,0.0,0.0,3.7441,3.7266,0.0,0.0,0.0,0.0,0.0,0.0,0.0,0.0,0.0,0.0,3.4212,0.0,0.0,0.0,0.0,3.4805,0.0,0.0,0.0,0.0,0.0,0.0,0.0,0.0,0.0,0.0,0.0,0.0,0.0,0.0,0.0,0.0,0.0,0.0,0.0,0.0,0.0,2.8921,2.9571,2.9891,2.9891,2.9891,2.9891,2.9891,2.9891,2.9891,2.9891,2.9891,2.9891,2.9891,2.9891,2.9891,2.9891,2.9891,2.9891,2.9891,2.9891,2.9891,2.9891,2.9891,2.9891,2.9891,2.9891,2.9891,2.9891,2.8639,2.8476,2.8379,2.8639,2.8476,2.8216,0.0,2.8621,0.0,0.0,0.0,0.0,0.0,0.0,3.0996,0.0,0.0,3.1543,3.1079,3.0684,0.0,0.0,0.0,2.8541,0.0,0.0,2.7454,2.7024,2.7838,2.819,2.8099,2.8639,2.9283,3.0014,3.0137,3.1074,0.0,0.0,0.0,0.0,0.0,3.6191,3.6487,0.0,0.0,3.7773,3.8203,3.8359,0.0,3.8202,3.7791,3.7344,3.7617,3.7129,3.6487,3.6777,3.6662,0.0,0.0,0.0,3.6191,3.5195,0.0,0.0,0.0,0.0,0.0,0.0,0.0,0.0,0.0,0.0,0.0,0.0,0.0,0.0,0.0,0.0,0.0,0.0,0.0,0.0,0.0,0.0,0.0,0.0,0.0,0.0,0.0,2.9397,2.9713,2.9891,2.9891,2.9891,2.9891,2.9891,2.9891,2.9891,2.9891,2.9891,2.9891,2.9891,2.9891,2.9891,2.9891,2.9891,2.9891,2.9891,2.9891,2.9891,2.9891,2.9891,2.9891,2.9891,2.9891,2.9891,2.9101,2.8926,2.8842,2.9101,2.8789,0.0,0.0,0.0,0.0,0.0,3.0444,0.0,3.145,0.0,3.146,0.0,3.1894,3.1899,3.1758,3.1519,0.0,3.1362,3.0234,0.0,0.0,0.0,0.0,2.8119,2.8652,2.8853,2.8764,2.9166,2.9746,3.0444,3.0131,3.1348,3.3613,3.3027,3.4062,0.0,0.0,3.7049,0.0,0.0,3.7871,3.7578,0.0,3.8592,3.8592,3.8592,3.8221,3.7869,3.8416,3.783,3.7031,3.7615,3.7363,3.6894,3.6721,3.7092,0.0,3.6504,3.6601,0.0,3.5326,0.0,0.0,0.0,0.0,0.0,0.0,0.0,0.0,0.0,0.0,0.0,0.0,0.0,0.0,0.0,0.0,0.0,0.0,0.0,0.0,0.0,0.0,0.0,0.0,0.0,2.9619,2.9878,2.9891,2.9891,2.9891,2.9891,2.9891,2.9891,2.9891,2.9891,2.9891,2.9891,2.9891,2.9891,2.9891,2.9891,2.9891,2.9891,2.9891,2.9891,2.9891,2.9891,2.9891,2.9891,2.9891,2.9891,2.9618,2.9657,2.9657,0.0,2.9277,0.0,0.0,0.0,3.0254,0.0,3.1401,3.2066,3.1645,3.1988,3.2257,3.2257,3.2613,0.0,3.2276,3.2237,0.0,0.0,3.146,3.1191,3.1626,0.0,0.0,0.0,2.901,2.9199,2.9618,3.0034,3.0449,3.0835,3.0009,3.1299,3.4055,3.3219,3.4609,3.7402,3.7775,3.8164,3.8514,3.8573,0.0,3.6871,3.8143,3.8592,3.8592,3.8592,3.8592,3.8592,3.8592,3.8612,3.8631,3.8631,3.865,3.8573,3.8126,3.8009,3.799,3.7951,0.0,0.0,0.0,0.0,3.6792,0.0,0.0,0.0,0.0,0.0,0.0,0.0,0.0,0.0,0.0,0.0,0.0,0.0,0.0,0.0,0.0,0.0,0.0,0.0,0.0,0.0,0.0,0.0,2.9553,2.9878,2.9891,2.9891,2.9891,2.9891,2.9891,2.9891,2.9891,2.9891,2.9891,2.9891,2.9891,2.9891,2.9891,2.9891,2.9891,2.9891,2.9891,2.9891,2.9891,2.9891,2.9891,2.9891,2.9891,2.9891,2.9995,3.0327,3.0464,0.0,3.0234,3.0059,0.0,0.0,0.0,0.0,3.1851,3.2715,3.2895,3.3012,3.309,3.309,3.3187,0.0,0.0,0.0,0.0,3.357,3.2789,3.2672,3.3414,3.2183,0.0,3.0825,0.0,3.0112,2.9618,3.0366,3.06,3.0371,3.0151,3.1558,3.4095,3.3864,3.5505,3.828,3.8377,3.7928,0.0,0.0,3.7811,3.6871,3.8143,3.8592,3.8592,3.8592,3.8592,3.8592,3.8592,3.8807,3.9043,3.9043,3.9277,3.9531,3.9414,3.9394,3.9238,3.8592,3.8555,3.8437,0.0,0.0,0.0,0.0,0.0,0.0,0.0,0.0,0.0,0.0,0.0,0.0,0.0,0.0,0.0,0.0,0.0,0.0,0.0,0.0,0.0,0.0,0.0,0.0,0.0,0.0,0.0,2.9851,2.9891,2.9891,2.9891,2.9891,2.9891,2.9891,2.9891,2.9891,2.9891,2.9891,2.9891,2.9891,2.9891,2.9891,2.9891,2.9891,2.9891,2.9891,2.9891,2.9891,2.9891,2.9891,2.9891,2.9891,3.0464,0.0,0.0,3.0767,0.0,0.0,2.9922,0.0,0.0,3.1177,3.2285,0.0,3.3383,3.3734,3.3968,3.3968,3.3968,0.0,0.0,0.0,0.0,3.4095,3.3805,3.3848,3.4352,3.3489,0.0,3.207,0.0,3.1011,3.0185,3.0678,3.0659,3.0195,3.0195,3.1343,3.3352,3.4681,3.6306,3.8065,3.8436,0.0,0.0,3.8319,3.826,3.7889,3.8612,3.8749,3.8631,3.8807,3.8866,3.8905,3.91,3.9316,3.9512,3.9512,3.9687,3.9941,4.0117,4.0176,4.0098,3.9804,3.9902,3.9804,3.8691,3.8827,3.9082,0.0,0.0,0.0,0.0,0.0,0.0,0.0,0.0,0.0,0.0,0.0,0.0,0.0,0.0,0.0,0.0,0.0,0.0,0.0,0.0,0.0,0.0,0.0,0.0,2.9851,2.9651,2.9637,2.9891,2.9637,2.9637,2.9891,2.9891,2.9891,2.9891,2.9891,2.9891,2.9891,2.9891,2.9891,2.9891,2.9891,2.9891,2.9891,2.9891,2.9891,2.9891,2.9891,2.9891,2.9891,0.0,0.0,0.0,0.0,0.0,0.0,0.0,3.1489,0.0,3.1684,0.0,3.3578,3.3578,3.4258,3.4707,3.4707,0.0,3.4551,3.4196,3.4508,3.457,3.4274,3.4606,3.4824,3.4863,3.4411,0.0,0.0,0.0,3.1753,3.0913,3.0913,3.0659,3.0195,3.0254,3.1128,3.2707,3.5522,3.699,3.7557,3.8299,3.8631,3.8671,3.8671,3.8926,3.9297,3.9297,3.9062,3.8827,3.916,3.9297,3.9355,3.9766,3.9941,3.998,3.998,4.0019,4.0137,4.0508,4.0586,4.0684,4.1094,4.1191,4.1015,4.0293,4.0098,4.0078,4.0137,3.9511,0.0,0.0,0.0,0.0,0.0,0.0,0.0,0.0,0.0,0.0,0.0,0.0,0.0,0.0,0.0,0.0,0.0,0.0,0.0,0.0,0.0,0.0,2.9851,2.9397,0.0,2.9771,0.0,2.9344,2.9784,2.9851,2.9891,2.9891,2.9891,2.9891,2.9891,2.9891,2.9891,2.9891,2.9891,2.9891,2.9891,2.9891,2.9891,2.9891,2.9891,2.9891,2.9891,0.0,0.0,0.0,0.0,0.0,3.2934,3.2519,3.2797,3.2953,3.2617,3.3691,0.0,3.4473,3.4609,3.4707,3.4707,3.4707,0.0,0.0,0.0,0.0,3.5173,3.5234,3.543,3.5764,3.5,3.4352,0.0,0.0,3.1753,3.0913,3.0913,3.0659,3.0215,3.0586,3.2085,3.4372,3.601,0.0,3.8377,3.8534,3.8807,3.9082,3.9082,3.9375,3.9766,3.9766,3.9726,3.9668,3.9746,3.9766,3.9785,3.9863,4.0137,4.0391,4.0391,4.0664,4.0976,4.1054,4.1074,4.1094,4.1172,4.1191,4.125,4.1426,4.1211,4.1074,4.1406,4.1094,4.0507,3.9706,0.0,0.0,0.0,0.0,0.0,0.0,0.0,0.0,0.0,0.0,0.0,0.0,0.0,0.0,0.0,0.0,0.0,0.0,0.0,0.0,0.0,2.9797,0.0,0.0,0.0,2.9544,2.9161,2.9664,2.9891,2.9891,2.9891,2.9891,2.9891,2.9891,2.9891,2.9891,2.9891,2.9891,2.9891,2.9891,2.9891,2.9891,2.9891,2.9891,2.9891,0.0,0.0,0.0,0.0,0.0,0.0,0.0,3.416,0.0,3.3551,3.4196,3.4707,3.4707,3.5098,3.5374,3.5374,3.5374,3.5374,3.5374,3.5374,3.5488,3.5703,3.5723,0.0,3.5999,3.5589,3.4961,3.4114,0.0,3.2628,3.1558,3.1328,3.1094,3.0903,3.1582,3.2676,3.4144,0.0,0.0,3.8281,3.8729,3.916,3.9551,3.9551,3.9844,4.0196,4.0196,4.0371,4.0546,4.0293,4.0196,4.0235,4.0507,4.0722,4.0859,4.0859,4.1035,4.1191,4.1191,4.1348,4.1523,4.1523,4.166,4.1875,4.207,4.1953,4.1875,4.207,4.1973,4.1367,3.9844,3.8654,0.0,0.0,0.0,0.0,0.0,0.0,0.0,0.0,0.0,0.0,0.0,0.0,0.0,0.0,0.0,0.0,0.0,0.0,0.0,0.0,0.0,0.0,0.0,0.0,0.0,2.9477,2.9757,2.9891,2.9891,2.9891,2.9891,2.9891,2.9891,2.9891,2.9891,2.9891,2.9891,2.9891,2.9891,2.9891,2.9891,2.9891,2.9891,2.9891,0.0,3.2266,0.0,0.0,3.3695,0.0,3.4609,3.5176,3.5234,3.4469,3.4743,3.498,3.498,3.5589,3.5999,3.5999,3.5999,3.5999,3.5999,3.6096,3.6152,3.6152,3.6233,3.6272,3.6272,3.6272,3.5742,0.0,0.0,0.0,3.2589,3.1953,3.1743,3.1938,3.2734,0.0,0.0,0.0,3.7344,3.8244,3.9043,3.9629,4.0019,4.0019,4.0293,4.0664,4.0664,4.0879,4.1133,4.0781,4.0664,4.0703,4.1094,4.1191,4.1191,4.1191,4.125,4.1328,4.1328,4.1621,4.1933,4.1933,4.2167,4.2441,4.2519,4.248,4.2441,4.2519,4.248,4.1894,4.0215,3.9277,0.0,0.0,0.0,0.0,0.0,0.0,0.0,0.0,0.0,0.0,0.0,0.0,0.0,0.0,0.0,0.0,0.0,0.0,0.0,0.0,0.0,2.909,2.9446,0.0,2.937,0.0,2.9838,2.9891,2.9891,2.9891,2.9891,2.9891,2.9891,2.9891,2.9891,2.9891,2.9891,2.9891,2.9891,2.9891,2.9891,2.9891,2.9891,2.9891,0.0,0.0,0.0,0.0,0.0,0.0,0.0,3.541,3.5784,3.5349,3.5644,3.5881,3.5881,3.5959,3.5999,3.5999,3.5999,3.5999,3.5999,3.6387,3.6619,3.6619,3.6973,3.7168,3.7168,3.7168,3.6951,0.0,0.0,0.0,3.3899,3.2707,3.2519,3.323,0.0,0.0,0.0,3.701,3.7949,3.9121,3.9629,4.0078,4.045,4.045,4.0723,4.1133,4.1133,4.1152,4.1191,4.1152,4.1133,4.1133,4.1191,4.1191,4.1191,4.1191,4.1465,4.1738,4.1738,4.2031,4.2343,4.2343,4.2382,4.2519,4.295,4.2715,4.2519,4.295,4.2695,4.1894,4.0215,4.0742,4.0527,0.0,0.0,0.0,0.0,0.0,0.0,0.0,0.0,0.0,0.0,0.0,0.0,0.0,2.6522,0.0,0.0,0.0,0.0,2.8293,0.0,2.8404,2.7909,2.9192,0.0,2.9081,2.9637,2.9891,2.9891,2.9891,2.9891,2.9891,2.9891,2.9891,2.9891,2.9891,2.9891,2.9891,2.9891,2.9891,2.9891,2.9891,2.9891,2.9891,0.0,0.0,0.0,0.0,0.0,0.0,0.0,3.6208,3.6462,3.6523,3.6465,3.6504,3.6758,3.6777,3.6777,3.6777,3.6777,3.6777,3.6777,3.6953,3.7068,3.7068,3.7207,3.7305,3.7305,3.7305,3.709,0.0,0.0,0.0,0.0,3.4079,3.3867,0.0,0.0,3.6641,3.7146,3.834,3.9297,4.0001,4.0176,4.0527,4.0918,4.0918,4.1035,4.1191,4.1191,4.1191,4.1191,4.1191,4.1191,4.1191,4.1191,4.1367,4.1562,4.1562,4.1836,4.2148,4.2148,4.248,4.2812,4.2812,4.3008,4.3242,4.3418,4.332,4.3242,4.3418,4.3105,4.2617,4.1933,4.1172,4.0508,0.0,0.0,0.0,0.0,0.0,0.0,0.0,0.0,0.0,0.0,0.0,0.0,0.0,0.0,0.0,0.0,0.0,0.0,2.7101,0.0,2.8996,2.8257,2.933,2.9771,2.9544,2.9784,2.9891,2.9891,2.9891,2.9891,2.9891,2.9891,2.9891,2.9891,2.9891,2.9891,2.9891,2.9891,2.9891,2.9891,2.9891,2.9891,2.9891,3.5051,0.0,3.564,0.0,3.6015,3.6033,3.6756,3.6873,3.7029,3.7422,3.7226,3.7127,3.7285,3.7305,3.7305,3.7305,3.7305,3.7305,3.7305,3.7402,3.748,3.748,3.7598,0.0,3.7676,3.7676,3.7537,3.7262,3.666,0.0,0.0,3.5488,3.541,0.0,3.7383,3.8105,3.8144,3.9512,4.0235,4.0508,4.0645,4.0898,4.1191,4.1191,4.1191,4.1191,4.1191,4.1269,4.1367,4.1367,4.1465,4.1523,4.1406,4.1641,4.1992,4.1992,4.2285,4.2617,4.2617,4.293,4.3282,4.3282,4.3476,4.3711,4.3711,4.3711,4.3711,4.3711,4.3476,4.3243,4.3126,4.1856,4.0957,4.1367,0.0,0.0,0.0,0.0,0.0,0.0,0.0,0.0,0.0,0.0,0.0,0.0,0.0,0.0,0.0,0.0,0.0,0.0,0.0,0.0,0.0,2.945,2.9891,2.9891,2.9891,2.9891,2.9891,2.9891,2.9891,2.9891,2.9891,2.9891,2.9891,2.9891,2.9891,2.9891,2.9891,2.9891,2.9891,2.9891,2.9891,2.9891,3.6314,3.6113,3.6179,3.7037,3.692,3.6814,3.7226,3.7285,3.7441,3.7834,3.7892,3.7736,3.7344,3.7305,3.7305,3.7305,3.7305,3.7305,3.7305,3.7658,3.7874,0.0,0.0,3.8573,3.8573,3.8573,3.8573,3.8573,0.0,0.0,3.7266,3.6853,3.709,3.7892,3.8359,3.9061,3.9902,4.0313,4.0508,4.0547,4.1015,4.1191,4.1191,4.1191,4.1191,4.1191,4.1191,4.1465,4.1797,4.1797,4.207,4.2324,4.1933,4.207,4.2402,4.2402,4.2734,4.3087,4.3087,4.3399,4.3691,4.3691,4.3691,4.3711,4.3711,4.3711,4.3711,4.3711,4.3691,4.3574,4.3165,4.3067,4.25,4.0801,0.0,0.0,0.0,0.0,0.0,0.0,3.7285,3.6445,3.8965,0.0,0.0,0.0,0.0,0.0,0.0,0.0,0.0,2.816,2.8465,0.0,2.8604,2.945,2.9891,2.9891,2.9891,2.9891,2.9891,2.9891,2.9891,2.9891,2.9891,2.9891,2.9891,2.9891,2.9891,2.9891,2.9891,2.9891,2.9891,2.9891,2.9891,2.9891,3.755,3.7388,3.7331,3.7912,3.7509,3.7246,3.7638,3.7716,3.7871,3.8319,3.8377,3.8338,3.8202,3.8182,3.8182,0.0,3.8182,3.8182,0.0,3.8319,3.8377,3.8377,3.8514,3.8592,3.8592,3.8592,3.8592,3.8592,0.0,0.0,0.0,3.8045,3.8456,3.9277,3.9707,3.9902,3.9922,4.0332,4.0508,4.0508,4.0664,4.1074,4.1601,4.1601,4.1777,4.2031,4.2031,4.2089,4.2207,4.2207,4.2519,4.2851,4.2735,4.2754,4.2871,4.2871,4.3164,4.3496,4.3496,4.3594,4.3711,4.3711,4.3711,4.3711,4.3711,4.3711,4.3711,4.3711,4.3711,4.3672,4.3535,4.3262,4.2911,4.2344,4.2343,0.0,0.0,0.0,0.0,0.0,0.0,4.0078,0.0,0.0,0.0,0.0,0.0,0.0,0.0,0.0,0.0,0.0,2.8998,0.0,2.8617,2.945,2.9891,2.9891,2.9891,2.9891,2.9891,2.9891,2.9891,2.9891,2.9891,2.9891,2.9891,2.9891,2.9891,2.9891,2.9891,2.9891,2.9891,2.9891,3.0093,3.0339,3.86,3.8452,3.828,3.8602,3.8279,3.8013,3.8141,3.8272,3.8424,3.8571,3.8592,3.8592,3.8592,3.8592,0.0,3.8592,3.8592,3.8592,3.8592,3.8592,3.8592,3.8592,3.8592,3.8592,3.8592,0.0,0.0,3.8592,3.8457,3.8535,3.8827,3.9003,3.9394,3.9902,4.0176,4.0234,4.0156,4.0391,4.0606,4.0781,4.0937,4.1309,4.1816,4.1973,4.2187,4.2402,4.2402,4.2519,4.2676,4.2676,4.2949,4.3341,4.3341,4.3341,4.3341,4.3341,4.3496,4.3711,4.3711,4.3711,4.3711,4.3711,4.3711,4.3711,4.3711,4.3711,4.3711,4.3711,4.3711,4.3711,4.3711,4.3496,4.3341,4.3341,4.3086,4.2987,4.3281,0.0,0.0,0.0,0.0,0.0,0.0,3.9471,0.0,0.0,0.0,0.0,0.0,0.0,0.0,2.8248,2.9604,0.0,2.9112,2.9624,2.9891,2.9891,2.9891,2.9891,2.9891,2.9891,2.9891,2.9891,2.9891,2.9891,2.9891,2.9891,2.9891,2.9913,3.0093,3.016,3.0182,3.0348,3.0616,3.0817,3.9461,3.9267,0.0,0.0,3.9128,0.0,3.8734,3.8958,3.903,3.8683,3.8611,3.8592,3.8592,3.8592,3.8592,3.8592,0.0,0.0,0.0,3.8592,3.8592,3.8592,3.8592,3.8592,3.8592,3.8592,3.8612,3.8631,3.9043,3.9258,3.9297,3.9707,3.9902,3.9941,3.9941,4.0118,4.0469,4.0528,4.0801,4.125,4.1621,4.1836,4.1933,4.2304,4.248,4.2499,4.2499,4.2773,4.3145,4.3145,4.3399,4.3711,4.3711,4.3711,4.3711,4.3711,4.3711,4.3711,4.3711,4.3711,4.3711,4.3711,4.3711,4.3711,4.3711,4.3711,4.3711,4.3711,4.3711,4.3711,4.3711,4.3711,4.3711,4.3711,4.3711,4.3711,4.3711,0.0,0.0,0.0,0.0,0.0,0.0,4.0237,3.9194,0.0,0.0,0.0,0.0,0.0,2.9202,3.0606,3.0272,3.0003,2.9958,2.9958,2.9936,2.9891,2.9891,2.9891,2.9891,2.9936,2.9958,2.9958,2.9981,3.0003,3.0003,3.0003,3.0003,3.0048,3.0482,3.0638,3.0705,3.1151,3.1315,3.1337,0.0,0.0,3.9563,3.994,3.9558,3.9235,3.9405,3.9047,3.8811,3.903,3.8793,3.8592,3.8592,3.8592,3.8592,3.8592,3.8592,3.8592,3.8592,3.8592,3.8592,3.8592,3.8592,3.8592,3.8592,3.8592,3.8749,3.9062,3.9512,3.9902,4.0196,4.0,4.0059,4.0352,4.0352,4.0235,4.0078,4.0742,4.1094,4.125,4.1621,4.2187,4.2813,4.2911,4.3125,4.3378,4.3378,4.3457,4.3555,4.3555,4.3633,4.3711,4.3711,4.3711,4.3711,4.3711,4.3711,4.3711,4.3711,4.3711,4.3711,4.3711,4.3711,4.3711,4.3711,4.3711,4.3711,4.3711,4.3711,4.3711,4.3711,4.3711,4.3711,4.3711,4.3711,4.3711,4.3711,4.334,0.0,0.0,4.2559,4.248,4.248,4.1178,3.996,0.0,0.0,0.0,0.0,3.1337,3.041,3.1109,3.1374,3.1165,3.0437,3.0415,3.0249,2.9891,2.9891,2.9891,2.9913,3.0272,3.0415,3.0437,3.0817,3.0973,3.0973,3.0973,3.0973,3.0973,3.1106,3.1115,3.1151,3.1248,3.1529,3.1774,4.0448,4.0333,4.022,4.0287,4.0112,3.986,3.9518,3.9427,3.9264,3.8976,3.8903,3.8793,3.8611,3.8592,3.8592,3.8592,3.8592,3.8592,3.8592,3.8592,3.8592,3.8592,3.8768,3.8885,3.8885,3.9081,3.9297,3.9512,3.9766,4.0019,4.0215,4.0195,4.0176,4.0235,4.0644,4.0703,4.0546,4.1211,4.1562,4.1777,4.2207,4.2676,4.3126,4.3302,4.3496,4.3711,4.3711,4.3711,4.3711,4.3711,4.3711,4.3711,4.3711,4.3711,4.3711,4.3711,4.3711,4.3711,4.3711,4.3711,4.3711,4.3711,4.3711,4.3711,4.3711,4.3711,4.3711,4.3711,4.3711,4.3711,4.3711,4.3711,4.3711,4.3711,4.3711,4.3711,4.3711,4.3516,0.0,4.3359,4.3359,4.3359,4.3359,4.2346,4.1258,4.0259,0.0,0.0,3.4758,3.2755,3.1612,3.1626,3.1663,3.144,3.0928,3.0928,3.0794,3.0526,3.0526,3.0526,3.0549,3.0794,3.0928,3.0928,3.1196,3.1293,3.1293,3.1293,3.1293,3.1315,3.1552,3.1618,3.164,3.1885,3.2143,3.2321,4.0817,4.09,4.0793,4.0453,4.0632,4.0507,3.961,3.9845,3.9788,3.8883,3.8976,3.8994,3.8629,3.8592,3.8592,3.8592,3.8592,3.8592,3.8592,3.8651,3.8651,3.8592,3.9003,3.9199,3.9199,3.9726,3.9961,3.9902,3.9961,4.0,4.0,4.0274,4.0312,4.0117,4.0859,4.123,4.1328,4.1817,4.2187,4.2538,4.3028,4.3204,4.3223,4.3574,4.3711,4.3711,4.3711,4.3711,4.3711,4.3711,4.3711,4.3711,4.3711,4.3711,4.3711,4.3711,4.3711,4.3711,4.3711,4.3711,4.3711,4.3711,4.3711,4.3711,4.3711,4.3711,4.3711,4.3711,4.3711,4.3711,4.3711,4.3711,4.3633,4.3457,4.3574,4.3633,4.3437,0.0,4.3711,4.3711,4.3711,4.3711,4.3711,4.3399,4.2686,4.1493,3.9358,3.7466,0.0,3.4187,3.2874,3.2143,3.1729,3.1485,3.1418,3.1337,3.1293,3.1293,3.1293,3.1293,3.1293,3.1374,3.1418,3.1418,3.1485,3.1529,3.1529,3.1529,3.1529,3.1574,3.1966,3.2121,3.2188,3.2631,3.28,3.28,4.0879,4.09,4.0882,4.0829,4.0579,4.0453,4.0614,3.9914,3.9411,3.9516,3.9047,3.8665,3.8611,3.8592,3.8592,3.8592,3.8592,3.8592,3.8592,3.8925,3.8964,3.8612,3.9003,3.9199,3.9199,3.9981,4.0235,3.9902,4.0235,4.041,4.0391,4.0137,4.0351,4.0996,4.1133,4.1387,4.1758,4.2559,4.293,4.3028,4.3437,4.3613,4.3613,4.3691,4.3711,4.3711,4.3711,4.3711,4.3711,4.3711,4.3711,4.3711,4.3711,4.3711,4.3711,4.3711,4.3711,4.3711,4.3711,4.3711,4.3711,4.3711,4.3711,4.3711,4.3711,4.3711,4.3711,4.3711,4.3711,4.3711,4.3711,4.3711,4.3359,4.2266,4.3008,4.332,4.2246,0.0,4.3711,4.3711,4.3711,4.3711,4.3711,4.3652,4.353,4.3299,4.1539,3.9691,3.7895,3.6053,3.434,3.2719,3.2609,3.2343,3.1899,3.1507,3.1293,3.1293,3.1293,3.1293,3.1293,3.1707,3.1899,3.1921,3.2365,3.2564,3.2564,3.2564,3.2564,3.2564,3.2653,3.2689,3.2675,3.2763,3.28,3.28,4.09,4.09,4.09,4.09,4.0757,4.0614,4.0579,4.013,3.9718,3.9463,3.9119,3.8829,3.8611,3.8592,3.8592,3.8592,3.8592,3.8592,3.8592,3.8768,3.8905,3.8925,3.9336,3.9785,4.0273,4.0664,4.0664,4.0215,4.041,4.0508,4.0508,4.0566,4.0937,4.1523,4.2012,4.2325,4.2539,4.3144,4.3418,4.3437,4.3633,4.3711,4.3711,4.3711,4.3711,4.3711,4.3711,4.3711,4.3711,4.3711,4.3711,4.3711,4.3711,4.3711,4.3711,4.3711,4.3711,4.3711,4.3711,4.3711,4.3711,4.3711,4.3711,4.3711,4.3711,4.3711,4.3711,4.3711,4.3711,4.3711,4.3711,4.3711,4.3516,4.293,4.332,0.0,4.291,4.334,4.3711,4.3711,4.3711,4.3711,4.3711,4.3711,4.3711,4.3711,4.2011,4.0168,3.8302,3.647,3.4669,3.2852,3.28,3.2675,3.2431,3.2232,3.2107,3.2107,3.2107,3.2107,3.2121,3.2321,3.2431,3.2431,3.2675,3.28,3.28,3.28,3.28,3.28,3.28,3.28,3.28,3.28,3.28,3.28,4.09,4.09,4.09,4.09,4.09,4.0811,4.0489,4.0364,4.0094,3.9538,3.9375,3.9176,3.8774,3.8738,3.8702,3.8611,3.8683,3.8738,3.8738,3.8738,3.884,3.9043,3.959,4.0195,4.0879,4.1113,4.0937,4.0352,4.0567,4.0664,4.0664,4.1133,4.1621,4.2129,4.2794,4.3145,4.3263,4.3574,4.3711,4.3711,4.3711,4.3711,4.3711,4.3711,4.3711,4.3711,4.3711,4.3711,4.3711,4.3711,4.3711,4.3711,4.3711,4.3711,4.3711,4.3711,4.3711,4.3711,4.3711,4.3711,4.3711,4.3711,4.3711,4.3711,4.3711,4.3711,4.3711,4.3711,4.3711,4.3711,4.3711,4.3711,4.3613,4.332,0.0,4.3594,4.3301,4.3516,4.3711,4.3711,4.3711,4.3711,4.3711,4.3711,4.3711,4.3711,4.2407,4.0611,3.8323,3.688,3.5112,3.2852,3.28,3.28,3.28,3.28,3.28,3.28,3.28,3.28,3.28,3.28,3.28,3.28,3.28,3.28,3.28,3.28,3.28,3.28,3.28,3.28,3.28,3.28,3.28,3.28,4.09,4.09,4.09,4.09,4.09,4.09,4.0865,4.0543,4.0274,4.022,3.9876,3.9536,3.9194,3.9157,3.9012,3.8629,3.894,3.9157,3.9157,3.9157,3.8994,3.865,3.9434,3.9922,3.998,4.0781,4.0781,3.9941,4.0761,4.1152,4.1152,4.1582,4.2187,4.3008,4.3067,4.3321,4.3652,4.3691,4.3711,4.3711,4.3711,4.3711,4.3711,4.3711,4.3711,4.3711,4.3711,4.3711,4.3711,4.3711,4.3711,4.3711,4.3711,4.3711,4.3711,4.3711,4.3711,4.3711,4.3711,4.3711,4.3711,4.3711,4.3711,4.3711,4.3711,4.3711,4.3711,4.3711,4.3711,4.3711,4.3711,4.3711,4.332,4.2129,0.0,0.0,4.2109,4.2969,4.3711,4.3711,4.3711,4.3711,4.3711,4.3711,4.3711,4.3711,4.3567,4.1951,3.8387,3.8066,3.6405,3.2918,3.28,3.28,3.28,3.28,3.28,3.28,3.28,3.28,3.28,3.28,3.28,3.28,3.28,3.28,3.28,3.28,3.28,3.28,3.28,3.28,3.28,3.28,3.28,3.28,4.09,4.09,4.09,4.09,4.09,4.09,4.09,4.0561,4.0292,4.0292,3.995,3.9642,3.9536,3.9518,3.9463,3.9299,3.9427,3.9518,3.9518,3.9518,3.9456,3.9351,4.0128,4.0716,4.0994,4.1332,4.149,4.1449,4.1775,4.2073,4.2388,4.2523,4.293,4.3457,4.3457,4.3555,4.3711,4.3711,4.3711,4.3711,4.3711,4.3711,4.3711,4.3711,4.3711,4.3711,4.3711,4.3711,4.3711,4.3711,4.3711,4.3711,4.3711,4.3711,4.3711,4.3711,4.3711,4.3711,4.3711,4.3711,4.3711,4.3711,4.3711,4.3711,4.3711,4.3711,4.3711,4.3711,4.3711,4.3711,4.3711,4.3711,4.3535,4.3066,0.0,4.3535,4.3047,4.3398,4.3711,4.3711,4.3711,4.3711,4.3711,4.3711,4.3711,4.3711,4.3711,4.2595,4.0062,3.7783,3.5379,3.2874,3.28,3.28,3.28,3.28,3.28,3.28,3.28,3.28,3.28,3.28,3.28,3.28,3.28,3.28,3.28,3.28,3.28,3.28,3.28,3.28,3.28,3.28,3.28,3.28,4.09,4.09,4.09,4.09,4.09,4.09,4.09,4.0668,4.0489,4.0489,4.0236,4.002,3.9894,3.9876,3.984,3.9714,3.9822,3.9876,3.9876,4.0144,4.0183,3.9993,4.0654,4.1186,4.1506,4.1908,4.2229,4.2408,4.2663,4.2962,4.3279,4.329,4.3437,4.3711,4.3711,4.3711,4.3711,4.3711,4.3711,4.3711,4.3711,4.3711,4.3711,4.3711,4.3711,4.3711,4.3711,4.3711,4.3711,4.3711,4.3711,4.3711,4.3711,4.3711,4.3711,4.3711,4.3711,4.3711,4.3711,4.3711,4.3711,4.3711,4.3711,4.3711,4.3711,4.3711,4.3711,4.3711,4.3711,4.3711,4.3711,4.3711,4.3711,4.3711,4.3711,4.3711,4.3711,4.3711,4.3711,4.3711,4.3711,4.3711,4.3711,4.3711,4.3711,4.3711,4.3711,4.2657,4.0252,3.7182,3.4669,3.2852,3.28,3.28,3.28,3.28,3.28,3.28,3.28,3.28,3.28,3.28,3.28,3.28,3.28,3.28,3.28,3.28,3.28,3.28,3.28,3.28,3.28,3.28,3.28,3.28,4.09,4.09,4.09,4.09,4.09,4.09,4.09,4.09,4.09,4.09,4.09,4.0757,4.0346,4.0292,4.0148,3.9732,4.0076,4.031,4.0312,4.1119,4.1257,4.0453,4.0876,4.1118,4.1118,4.2428,4.2891,4.2428,4.328,4.3716,4.3695,4.3701,4.3711,4.3711,4.3711,4.3711,4.3711,4.3711,4.3711,4.3711,4.3711,4.3711,4.3711,4.3711,4.3711,4.3711,4.3711,4.3711,4.3711,4.3711,4.3711,4.3711,4.3711,4.3711,4.3711,4.3711,4.3711,4.3711,4.3711,4.3711,4.3711,4.3711,4.3711,4.3711,4.3711,4.3711,4.3711,4.3711,4.3711,4.3711,4.3711,4.3711,4.3711,4.3711,4.3711,4.3711,4.3711,4.3711,4.3711,4.3711,4.3711,4.3711,4.3711,4.3711,4.3711,4.3711,4.3711,4.2097,3.8408,3.6491,3.4691,3.2852,3.28,3.28,3.28,3.28,3.28,3.28,3.28,3.28,3.28,3.28,3.28,3.28,3.28,3.28,3.28,3.28,3.28,3.28,3.28,3.28,3.28,3.28,3.28,3.28,4.09,4.09,4.09,4.09,4.09,4.09,4.09,4.09,4.09,4.09,4.09,4.0865,4.074,4.0722,4.0686,4.054,4.065,4.0866,4.1175,4.1446,4.1782,4.2142,4.2288,4.2513,4.2861,4.358,4.4196,4.4729,4.4361,4.434,4.46,4.3982,4.3711,4.3711,4.3711,4.3711,4.3711,4.3711,4.3711,4.3711,4.3711,4.3711,4.3711,4.3711,4.3711,4.3711,4.3711,4.3711,4.3711,4.3711,4.3711,4.3711,4.3711,4.3711,4.3711,4.3711,4.3711,4.3711,4.3711,4.3711,4.3711,4.3711,4.3711,4.3711,4.3711,4.3711,4.3711,4.3711,4.3711,4.3711,4.3711,4.3711,4.3711,4.3711,4.3711,4.3711,4.3711,4.3711,4.3711,4.3711,4.3711,4.3711,4.3711,4.3711,4.3711,4.3711,4.3711,4.2097,3.8408,3.7681,3.5972,3.2896,3.28,3.28,3.28,3.28,3.28,3.28,3.28,3.28,3.28,3.28,3.28,3.28,3.28,3.28,3.28,3.28,3.28,3.28,3.28,3.28,3.28,3.28,3.28,3.28,4.09,4.09,4.09,4.09,4.09,4.09,4.09,4.09,4.09,4.09,4.09,4.09,4.09,4.09,4.09,4.09,4.1066,4.1374,4.185,4.2184,4.264,4.3161,4.3718,4.3967,4.3884,4.4526,4.5126,4.5705,4.5007,4.4764,4.4984,4.4103,4.3711,4.3711,4.3711,4.3711,4.3711,4.3711,4.3711,4.3711,4.3711,4.3711,4.3711,4.3711,4.3711,4.3711,4.3711,4.3711,4.3711,4.3711,4.3711,4.3711,4.3711,4.3711,4.3711,4.3711,4.3711,4.3711,4.3711,4.3711,4.3711,4.3711,4.3711,4.3711,4.3711,4.3711,4.3711,4.3711,4.3711,4.3711,4.3711,4.3711,4.3711,4.3711,4.3711,4.3711,4.3711,4.3711,4.3711,4.3711,4.3711,4.3711,4.3711,4.3711,4.3711,4.3711,4.305,4.1658,3.9448,3.7917,3.6123,3.3946,3.3183,3.28,3.28,3.28,3.28,3.28,3.28,3.28,3.28,3.28,3.28,3.28,3.28,3.28,3.28,3.28,3.28,3.28,3.28,3.28,3.28,3.28,3.28,3.28,4.09,4.09,4.09,4.09,4.09,4.09,4.09,4.09,4.09,4.09,4.09,4.09,4.09,4.0942,4.0962,4.0962,4.1418,4.1912,4.2389,4.3201,4.3699,4.3782,4.5022,4.5332,4.4505,4.5312,4.5747,4.5747,4.5231,4.5005,4.4984,4.4103,4.3711,4.3711,4.3711,4.3711,4.3711,4.3711,4.3711,4.3711,4.3711,4.3711,4.3711,4.3711,4.3711,4.3711,4.3711,4.3711,4.3711,4.3711,4.3711,4.3711,4.3711,4.3711,4.3711,4.3711,4.3711,4.3711,4.3711,4.3711,4.3711,4.3711,4.3711,4.3711,4.3711,4.3711,4.3711,4.3711,4.3711,4.3711,4.3711,4.3711,4.3711,4.3711,4.3711,4.3711,4.3711,4.3711,4.3711,4.3711,4.3711,4.3711,4.3711,4.3711,4.3711,4.3711,4.2011,4.0987,4.0987,3.7504,3.5488,3.5494,3.3778,3.2844,3.2844,3.2859,3.2844,3.28,3.28,3.28,3.28,3.2815,3.2844,3.2844,3.2844,3.2844,3.2829,3.28,3.28,3.28,3.28,3.28,3.28,3.28,3.28,3.28,4.09,4.09,4.09,4.09,4.09,4.09,4.09,4.09,4.09,4.09,4.09,4.09,4.09,4.1229,4.1457,4.1457,4.2184,4.2828,4.3284,4.3842,4.4484,4.5209,4.5539,4.5747,4.5852,4.6058,4.6162,4.6162,4.5393,4.5005,4.4984,4.4103,4.3711,4.3711,4.3711,4.3711,4.3711,4.3711,4.3711,4.3711,4.3711,4.3711,4.3711,4.3711,4.3711,4.3711,4.3711,4.3711,4.3711,4.3711,4.3711,4.3711,4.3711,4.3711,4.3711,4.3711,4.3711,4.3711,4.3711,4.3711,4.3711,4.3711,4.3711,4.3711,4.3711,4.3711,4.3711,4.3711,4.3711,4.3711,4.3711,4.3711,4.3711,4.3711,4.3711,4.3711,4.3711,4.3711,4.3711,4.3711,4.3711,4.3711,4.3711,4.3711,4.3711,4.3711,4.2011,4.0987,4.0987,3.7487,3.551,3.5488,3.3938,3.3121,3.3121,3.337,3.3276,3.28,3.28,3.28,3.28,3.3027,3.3121,3.3121,3.3121,3.3121,3.3107,3.2903,3.28,3.28,3.28,3.28,3.28,3.28,3.28,3.28,4.09,4.09,4.09,4.09,4.09,4.09,4.09,4.09,4.09,4.09,4.09,4.1001,4.1211,4.1457,4.1871,4.2495,4.318,4.378,4.4236,4.4712,4.5187,4.5684,4.5892,4.6099,4.6307,4.6307,4.6307,4.6307,4.5637,4.5332,4.5311,4.4431,4.4041,4.402,4.3814,4.3711,4.3711,4.3711,4.3711,4.3711,4.3711,4.3711,4.3711,4.3711,4.3711,4.3711,4.3711,4.3711,4.3711,4.3711,4.3711,4.3711,4.3711,4.3711,4.3711,4.3711,4.3711,4.3711,4.3711,4.3711,4.3711,4.3711,4.3711,4.3711,4.3711,4.3711,4.3711,4.3711,4.3711,4.3711,4.3711,4.3711,4.3711,4.3711,4.3711,4.3711,4.3711,4.3711,4.3711,4.3711,4.3711,4.3711,4.3711,4.3711,4.3711,4.3711,4.2011,4.1457,4.2543,3.8918,3.7396,3.8699,3.5996,3.4619,3.4808,3.4095,3.3546,3.3232,3.3232,3.3232,3.3232,3.3385,3.3435,3.3435,3.3435,3.3435,3.3421,3.3305,3.3144,3.2997,3.2997,3.291,3.28,3.28,3.28,3.28,4.09,4.09,4.09,4.09,4.09,4.09,4.09,4.09,4.09,4.09,4.09,4.1107,4.1664,4.1915,4.2536,4.3739,4.4277,4.4712,4.5084,4.554,4.5788,4.5788,4.612,4.6307,4.6307,4.6307,4.6307,4.6307,4.5881,4.5698,4.5698,4.4882,4.4493,4.4493,4.4103,4.3917,4.3917,4.3855,4.3835,4.3814,4.3731,4.3711,4.3711,4.3711,4.3711,4.3711,4.3711,4.3711,4.3711,4.3711,4.3711,4.3711,4.3711,4.3711,4.3711,4.3711,4.3711,4.3711,4.3711,4.3711,4.3711,4.3711,4.3711,4.3711,4.3711,4.3711,4.3711,4.3711,4.3711,4.3711,4.3711,4.3711,4.3711,4.3711,4.3711,4.3711,4.3711,4.3711,4.3711,4.3711,4.3711,4.3711,4.3711,4.3711,4.3711,4.3711,4.2011,4.1989,4.4291,4.0541,3.9532,4.2204,3.8317,3.6358,3.6683,3.4803,3.3867,3.3867,3.3867,3.3823,3.3706,3.3765,3.3794,3.3794,3.3794,3.3794,3.3779,3.3713,3.3546,3.3274,3.3216,3.3063,3.2873,3.2815,3.28,3.28,4.09,4.09,4.09,4.09,4.09,4.09,4.09,4.09,4.09,4.09,4.09,4.1229,4.2099,4.324,4.4174,4.4753,4.5229,4.5539,4.5601,4.5996,4.6224,4.6224,4.6265,4.6307,4.6307,4.6307,4.6307,4.6307,4.5881,4.5698,4.5698,4.5168,4.4923,4.4923,4.4861,4.4821,4.48,4.4452,4.4308,4.4267,4.3876,4.3711,4.3711,4.3711,4.3711,4.3711,4.3711,4.3711,4.3711,4.3711,4.3711,4.3711,4.3711,4.3711,4.3711,4.3711,4.3711,4.3711,4.3711,4.3711,4.3711,4.3711,4.3711,4.3711,4.3711,4.3711,4.3711,4.3711,4.3711,4.3711,4.3711,4.3711,4.3711,4.3711,4.3711,4.3711,4.3711,4.3711,4.3711,4.3711,4.3711,4.3711,4.3711,4.3711,4.3711,4.3711,4.2011,4.1989,4.4291,4.0836,3.9877,4.2222,3.8825,3.6985,3.7033,3.5398,3.4555,3.4555,3.4555,3.4262,3.3721,3.3999,3.413,3.413,3.413,3.413,3.4101,3.3823,3.3654,3.3596,3.3304,3.3172,3.3121,3.2903,3.28,3.28,4.09,4.09,4.09,4.09,4.09,4.09,4.09,4.09,4.09,4.09,4.09,4.1335,4.2497,4.4091,4.5187,4.5354,4.5788,4.6037,4.6037,4.6203,4.6307,4.6307,4.6307,4.6307,4.6307,4.6307,4.6307,4.6307,4.6124,4.6023,4.6023,4.5576,4.5372,4.5372,4.5127,4.5005,4.4984,4.4821,4.4596,4.439,4.4185,4.3938,4.3711,4.3711,4.3711,4.3711,4.3711,4.3711,4.3711,4.3711,4.3711,4.3711,4.3711,4.3711,4.3711,4.3711,4.3711,4.3711,4.3711,4.3711,4.3711,4.3711,4.3711,4.3711,4.3711,4.3711,4.3711,4.3711,4.3711,4.3711,4.3711,4.3711,4.3711,4.3711,4.3711,4.3711,4.3711,4.3711,4.3711,4.3711,4.3711,4.3711,4.3711,4.3711,4.3808,4.4082,4.3351,4.3555,4.5057,4.3334,4.299,4.4473,4.1767,4.0393,4.0623,3.7764,3.6328,3.6305,3.5218,3.4525,3.4262,3.4408,3.449,3.449,3.449,3.449,3.4475,3.4306,3.4145,3.3955,3.3619,3.3268,3.2968,3.2844,3.28,3.28]}]]